[[{"header":{"parameterUnit":"m.s-1","parameterCategory":1,"la1":31.0,"la2":29.5877,"lo1":-88.7671,"lo2":-86.6584,"dy":0.0162,"dx":0.0185,"nx":115,"ny":88,"refTime":"2024-05-25T00:00:00:Z","depth":0,"parameterNumber":2,"parameterNumberName":"U-component_of_WINDS"},"data":[0.0,0.0,0.0,0.0,0.0,0.0,0.0,0.0,0.0,0.0,0.0,0.0,0.0,0.0,0.0,0.0,0.0,0.0,0.0,0.0,0.0,0.0,0.0,0.0,0.0,0.0,0.0,0.0,0.0,0.0,0.0,0.0,0.0,0.0,0.0,0.0,0.0,0.0,0.0,0.0,0.0,0.0,0.0,0.0,0.0,0.0,0.0,0.0,0.0,0.0,0.0,0.0,0.0,0.0,0.0,0.0,0.0,0.0,0.0,0.0,0.0,0.0,0.0,0.0,0.0,0.0,0.0,0.0,0.0,0.0,0.0,0.0,0.0,0.0,0.0,0.0,0.0,0.0,0.0,0.0,0.0,0.0,0.0,0.0,0.0,0.0,0.0,0.0,0.0,0.0,0.0,0.0,0.0,0.0,0.0,0.0,0.0,0.0,0.0,0.0,0.0,0.0,0.0,0.0,0.0,0.0,0.0,0.0,0.0,0.0,0.0,0.0,0.0,0.0,0.0,0.0,0.0,0.0,0.0,0.0,0.0,0.0,0.0,0.0,0.0,0.0,0.0,0.0,0.0,0.0,0.0,0.0,0.0,0.0,0.0,0.0,0.0,0.0,0.0,0.0,0.0,0.0,0.0,0.0,0.0,0.0,0.0,0.0,0.0,0.0,0.0,0.0,0.0,0.0,0.0,0.0,0.0,0.0,0.0,0.0,0.0,0.0,0.0,0.0,0.0,0.0,0.0,0.0,0.0,0.0,0.0,0.0,0.0,0.0,0.0,0.0,0.0,0.0,0.0,0.0,0.0,0.0,0.0,0.0,0.0,0.0,0.0,0.0,0.0,0.0,0.0,0.0,0.0,0.0,0.0,0.0,0.0,0.0,0.0,0.0,0.0,0.0,0.0,0.0,0.0,0.0,0.0,0.0,0.0,0.0,0.0,0.0,0.0,0.0,0.0,0.0,0.0,0.0,0.0,0.0,0.0,0.0,0.0,0.0,0.0,0.0,0.0,0.0,0.0,0.0,0.0,0.0,0.0,0.0,0.0,0.0,0.0,0.0,0.0,0.0,0.0,0.0,0.0,0.0,0.0,0.0,0.0,0.0,0.0,0.0,0.0,0.0,0.0,0.0,0.0,0.0,0.0,0.0,0.0,0.0,0.0,0.0,0.0,0.0,0.0,0.0,0.0,0.0,0.0,0.0,0.0,0.0,0.0,0.0,0.0,0.0,0.0,0.0,0.0,0.0,0.0,0.0,0.0,0.0,0.0,0.0,0.0,0.0,0.0,0.0,0.0,0.0,0.0,0.0,0.0,0.0,0.0,0.0,0.0,0.0,0.0,0.0,0.0,0.0,0.0,0.0,0.0,0.0,0.0,0.0,0.0,0.0,0.0,0.0,0.0,0.0,0.0,0.0,0.0,0.0,0.0,0.0,0.0,0.0,0.0,0.0,0.0,0.0,0.0,0.0,0.0,0.0,0.0,0.0,0.0,0.0,0.0,0.0,0.0,0.0,0.0,0.0,0.0,0.0,0.0,0.0,0.0,0.0,0.0,0.0,0.0,0.0,0.0,0.0,0.0,0.0,0.0,0.0,0.0,0.0,0.0,0.0,0.0,0.0,0.0,0.0,0.0,0.0,0.0,0.0,0.0,0.0,0.0,0.0,0.0,0.0,0.0,0.0,0.0,0.0,0.0,0.0,0.0,0.0,0.0,0.0,0.0,0.0,0.0,0.0,0.0,0.0,0.0,0.0,0.0,0.0,0.0,0.0,0.0,0.0,0.0,0.0,0.0,0.0,0.0,0.0,0.0,0.0,0.0,0.0,0.0,0.0,0.0,0.0,0.0,0.0,0.0,0.0,0.0,0.0,0.0,0.0,0.0,0.0,0.0,0.0,0.0,0.0,0.0,0.0,0.0,0.0,0.0,0.0,0.0,0.0,0.0,0.0,0.0,0.0,0.0,0.0,0.0,0.0,0.0,0.0,0.0,0.0,0.0,0.0,0.0,0.0,0.0,0.0,0.0,0.0,0.0,0.0,0.0,0.0,0.0,0.0,0.0,0.0,0.0,0.0,0.0,0.0,0.0,0.0,0.0,0.0,0.0,0.0,0.0,0.0,0.0,0.0,0.0,0.0,0.0,0.0,0.0,0.0,0.0,0.0,0.0,0.0,0.0,0.0,0.0,0.0,0.0,0.0,0.0,0.0,0.0,0.0,0.0,0.0,0.0,0.0,0.0,0.0,0.0,0.0,0.0,0.0,0.0,0.0,0.0,0.0,0.0,0.0,0.0,0.0,0.0,0.0,0.0,0.0,0.0,0.0,0.0,0.0,0.0,0.0,0.0,0.0,0.0,0.0,0.0,0.0,0.0,0.0,0.0,0.0,0.0,0.0,0.0,0.0,0.0,0.0,0.0,0.0,0.0,0.0,0.0,0.0,0.0,0.0,0.0,0.0,0.0,0.0,0.0,0.0,0.0,0.0,0.0,0.0,0.0,0.0,0.0,0.0,0.0,0.0,0.0,0.0,0.0,0.0,0.0,0.0,0.0,0.0,0.0,0.0,0.0,0.0,0.0,0.0,0.0,0.0,0.0,0.0,0.0,0.0,0.0,0.0,0.0,0.0,0.0,0.0,0.0,0.0,0.0,0.0,0.0,0.0,0.0,0.0,0.0,0.0,0.0,0.0,0.0,0.0,0.0,0.0,0.0,0.0,0.0,0.0,0.0,0.0,0.0,0.0,0.0,0.0,0.0,0.0,0.0,0.0,0.0,0.0,0.0,0.0,0.0,0.0,0.0,0.0,0.0,0.0,0.0,0.0,0.0,0.0,0.0,0.0,0.0,0.0,0.0,0.0,0.0,0.0,0.0,0.0,0.0,0.0,0.0,0.0,0.0,0.0,0.0,0.0,0.0,0.0,0.0,0.0,0.0,0.0,0.0,0.0,0.0,0.0,0.0,0.0,0.0,0.0,0.0,0.0,0.0,0.0,0.0,0.0,0.0,0.0,0.0,0.0,0.0,0.0,0.0,0.0,0.0,0.0,0.0,0.0,0.0,0.0,0.0,0.0,0.0,0.0,0.0,0.0,0.0,0.0,0.0,0.0,0.0,0.0,0.0,0.0,0.0,0.0,0.0,0.0,0.0,0.0,0.0,0.0,0.0,0.0,0.0,0.0,0.0,0.0,0.0,0.0,0.0,0.0,0.0,0.0,0.0,0.0,0.0,0.0,0.0,0.0,0.0,0.0,0.0,0.0,0.0,0.0,0.0,0.0,0.0,0.0,0.0,0.0,0.0,0.0,0.0,0.0,0.0,0.0,0.0,0.0,0.0,0.0,0.0,0.0,0.0,0.0,0.0,0.0,0.0,0.0,0.0,0.0,0.0,0.0,0.0,0.0,0.0,0.0,0.0,0.0,0.0,0.0,0.0,0.0,0.0,0.0,0.0,0.0,0.0,0.0,0.0,0.0,0.0,0.0,0.0,0.0,0.0,0.0,0.0,0.0,0.0,0.0,0.0,0.0,0.0,0.0,0.0,0.0,0.0,0.0,0.0,0.0,0.0,0.0,0.0,0.0,0.0,0.0,0.0,0.0,0.0,0.0,0.0,0.0,0.0,0.0,0.0,0.0,0.0,0.0,0.0,0.0,0.0,0.0,0.0,0.0,0.0,0.0,0.0,0.0,0.0,0.0,0.0,0.0,0.0,0.0,0.0,0.0,0.0,0.0,0.0,0.0,0.0,0.0,0.0,0.0,0.0,0.0,0.0,0.0,0.0,0.0,0.0,0.0,0.0,0.0,0.0,0.0,0.0,0.0,0.0,0.0,0.0,0.0,0.0,0.0,0.0,0.0,0.0,0.0,0.0,0.0,0.0,0.0,0.0,0.0,0.0,0.0,0.0,0.0,0.0,0.0,0.0,0.0,0.0,0.0,0.0,0.0,0.0,0.0,0.0,0.0,0.0,0.0,0.0,0.0,0.0,0.0,0.0,0.0,0.0,0.0,0.0,0.0,0.0,0.0,0.0,0.0,0.0,0.0,0.0,0.0,0.0,0.0,0.0,0.0,0.0,0.0,0.0,0.0,0.0,0.0,0.0,0.0,0.0,0.0,0.0,0.0,0.0,0.0,0.0,0.0,0.0,0.0,0.0,0.0,0.0,0.0,0.0,0.0,0.0,0.0,0.0,0.0,0.0,0.0,0.0,0.0,0.0,0.0,0.0,0.0,0.0,0.0,0.0,0.0,0.0,0.0,0.0,0.0,0.0,0.0,0.0,0.0,0.0,0.0,0.0,0.0,1.3288,0.0,0.0,0.0,0.0,0.0,0.0,0.0,0.0,0.0,0.0,0.0,0.0,0.0,0.0,0.0,0.0,0.0,0.0,0.0,0.0,0.0,0.0,0.0,0.0,0.0,0.0,0.0,0.0,0.0,0.0,0.0,0.0,0.0,0.0,0.0,0.0,0.0,0.0,0.0,0.0,0.0,0.0,0.0,0.0,0.0,0.0,0.0,0.0,0.0,0.0,0.0,0.0,0.0,0.0,0.0,0.0,0.0,0.0,0.0,0.0,0.0,0.0,0.0,0.0,0.0,0.0,0.0,0.0,0.0,0.0,0.0,0.0,0.0,0.0,0.0,0.0,0.0,0.0,0.0,0.0,0.0,0.0,0.0,0.0,0.0,0.0,0.0,0.0,0.0,0.0,0.0,0.0,0.0,0.0,0.0,0.0,0.0,0.0,0.0,0.0,0.0,0.0,0.0,0.0,0.0,0.0,0.0,0.0,0.0,0.0,1.3684,1.4462,1.4132,1.3949,1.3949,0.0,0.0,0.0,0.0,0.0,0.0,0.0,0.0,0.0,0.0,0.0,0.0,0.0,0.0,0.0,0.0,0.0,0.0,0.0,0.0,0.0,0.0,0.0,0.0,0.0,0.0,0.0,0.0,0.0,0.0,0.0,0.0,0.0,0.0,0.0,0.0,0.0,0.0,0.0,0.0,0.0,0.0,0.0,0.0,0.0,0.0,0.0,0.0,0.0,0.0,0.0,0.0,0.0,0.0,0.0,0.0,0.0,0.0,0.0,0.0,0.0,0.0,0.0,0.0,0.0,0.0,0.0,0.0,0.0,0.0,0.0,0.0,0.0,0.0,0.0,0.0,0.0,0.0,0.0,0.0,0.0,0.0,0.0,0.0,0.0,0.0,0.0,0.0,0.0,0.0,0.0,0.0,0.0,0.0,0.0,0.0,0.0,0.0,0.0,0.0,0.0,0.0,0.0,0.0,0.0,0.0,0.0,0.0,0.0,0.0,0.0,0.0,1.4842,1.4751,1.4739,0.0,0.0,0.0,0.0,0.0,0.0,0.0,0.0,0.0,0.0,0.0,0.0,0.0,0.0,0.0,0.0,0.0,0.0,0.0,0.0,0.0,0.0,0.0,0.0,0.0,0.0,0.0,0.0,0.0,0.0,0.0,0.0,0.0,0.0,0.0,0.0,0.0,0.0,0.0,0.0,0.0,0.0,0.0,0.0,0.0,0.0,0.0,0.0,0.0,0.0,0.0,0.0,0.0,0.0,0.0,0.0,0.0,0.0,0.0,0.0,0.0,0.0,0.0,0.0,0.0,0.0,0.0,0.0,0.0,0.0,0.0,0.0,0.0,0.0,0.0,0.0,0.0,0.0,0.0,0.0,0.0,0.0,0.0,0.0,0.0,0.0,0.0,0.0,0.0,0.0,0.0,0.0,0.0,0.0,0.0,0.0,0.0,0.0,0.0,0.0,0.0,0.0,0.0,0.0,0.0,0.0,0.0,0.0,0.0,0.0,1.3604,1.6483,1.5872,0.0,1.5499,0.0,0.0,0.0,0.0,0.0,0.0,0.0,0.0,0.0,0.0,0.0,0.0,0.0,0.0,0.0,0.0,0.0,0.0,0.0,0.0,0.0,0.0,0.0,0.0,0.0,0.0,0.0,0.0,0.0,0.0,0.0,0.0,0.0,0.0,0.0,0.0,0.0,0.0,0.0,0.0,0.0,0.0,0.0,0.0,0.0,0.0,0.0,0.0,0.0,0.0,0.0,0.0,0.0,0.0,0.0,0.0,0.0,0.0,0.0,0.0,0.0,0.0,0.0,0.0,0.0,0.0,0.0,0.0,0.0,0.0,0.0,0.0,0.0,0.0,0.0,0.0,0.0,0.0,0.0,0.0,0.0,0.0,0.0,0.0,0.0,0.0,0.0,0.0,0.0,0.0,0.0,0.0,0.0,0.0,0.0,0.0,0.0,0.0,0.0,0.0,0.0,0.0,0.0,0.0,0.0,0.0,0.0,0.0,0.0,0.0,0.0,1.5329,1.553,1.5564,0.0,0.0,0.0,0.0,0.0,0.0,0.0,0.0,0.0,0.0,0.0,0.0,0.0,0.0,0.0,0.0,0.0,0.0,0.0,0.0,0.0,0.0,0.0,0.0,0.0,0.0,0.0,0.0,0.0,0.0,0.0,0.0,0.0,0.0,0.0,0.0,0.0,0.0,0.0,0.0,0.0,0.0,0.0,0.0,0.0,0.0,0.0,0.0,0.0,0.0,0.0,0.0,0.0,0.0,0.0,0.0,0.0,0.0,0.0,0.0,0.0,0.0,0.0,0.0,0.0,0.0,0.0,0.0,0.0,0.0,0.0,0.0,0.0,0.0,0.0,0.0,0.0,0.0,0.0,0.0,0.0,0.0,0.0,0.0,0.0,0.0,0.0,0.0,0.0,0.0,0.0,0.0,0.0,0.0,0.0,0.0,0.0,0.0,0.0,0.0,0.0,0.0,0.0,0.0,0.0,0.0,0.0,0.0,0.0,0.0,1.315,0.0,1.4654,1.5267,1.5316,1.4756,0.0,0.0,0.0,0.0,0.0,0.0,0.0,0.0,0.0,0.0,0.0,0.0,0.0,0.0,0.0,0.0,0.0,0.0,0.0,0.0,0.0,0.0,0.0,0.0,0.0,0.0,0.0,0.0,0.0,0.0,0.0,0.0,0.0,0.0,0.0,0.0,0.0,0.0,0.0,0.0,0.0,0.0,0.0,0.0,0.0,0.0,0.0,0.0,0.0,0.0,0.0,0.0,0.0,0.0,0.0,0.0,0.0,0.0,0.0,0.0,0.0,0.0,0.0,0.0,0.0,0.0,0.0,0.0,0.0,0.0,0.0,0.0,0.0,0.0,0.0,0.0,0.0,0.0,0.0,0.0,0.0,0.0,0.0,0.0,0.0,0.0,0.0,0.0,0.0,0.0,0.0,0.0,0.0,0.0,0.0,0.0,0.0,0.0,0.0,0.0,0.0,0.0,0.0,0.0,0.0,0.0,0.0,0.0,0.0,1.3895,1.3907,1.5387,1.5461,1.4742,0.0,0.0,0.0,0.0,0.0,0.0,0.0,0.0,0.0,0.0,0.0,0.0,0.0,0.0,0.0,0.0,0.0,0.0,0.0,0.0,0.0,0.0,0.0,0.0,0.0,0.0,0.0,0.0,0.0,0.0,0.0,0.0,0.0,0.0,0.0,0.0,0.0,0.0,0.0,0.0,0.0,0.0,0.0,0.0,0.0,0.0,0.0,0.0,0.0,0.0,0.0,0.0,0.0,0.0,0.0,0.0,0.0,0.0,0.0,0.0,0.0,0.0,0.0,0.0,0.0,0.0,0.0,0.0,0.0,0.0,0.0,0.0,0.0,0.0,0.0,0.0,0.0,0.0,0.0,0.0,0.0,0.0,0.0,0.0,0.0,0.0,0.0,0.0,0.0,0.0,0.0,0.0,0.0,0.0,0.0,0.0,0.0,0.0,0.0,0.0,0.0,0.0,0.0,0.0,0.0,0.0,0.0,0.0,0.0,1.1658,1.2168,1.3677,0.0,1.4777,1.409,0.0,0.0,0.0,0.0,0.0,0.0,0.0,0.0,0.0,0.0,0.0,0.0,0.0,0.0,0.0,0.0,0.0,0.0,0.0,0.0,0.0,0.0,0.0,0.0,0.0,0.0,0.0,0.0,0.0,0.0,0.0,0.0,0.0,0.0,0.0,0.0,0.0,0.0,0.0,0.0,0.0,0.0,0.0,0.0,0.0,0.0,0.0,0.0,0.0,0.0,0.0,0.0,0.0,0.0,0.0,0.0,0.0,0.0,0.0,0.0,0.0,0.0,0.0,0.0,0.0,0.0,0.0,0.0,0.0,0.0,0.0,0.0,0.0,0.0,0.0,0.0,0.0,0.0,0.0,0.0,0.0,0.0,0.0,0.0,0.0,0.0,0.0,0.0,0.0,0.0,0.0,0.0,0.0,0.0,0.0,0.0,0.0,0.0,0.0,0.0,0.0,0.0,0.0,0.0,0.0,0.0,0.0,0.0,0.0,1.1121,0.0,1.4307,0.0,1.4342,1.3412,0.0,0.0,0.0,0.0,0.0,0.0,0.0,0.0,0.0,0.0,0.0,0.0,0.0,0.0,0.0,0.0,0.0,0.0,0.0,0.0,0.0,0.0,0.0,0.0,0.0,0.0,0.0,0.0,0.0,0.0,0.0,0.0,0.0,0.0,0.0,0.0,0.0,0.0,0.0,0.0,0.0,0.0,0.0,0.0,0.0,0.0,0.0,0.0,0.0,0.0,0.0,0.0,0.0,0.0,0.0,0.0,0.0,0.0,0.0,0.0,0.0,0.0,0.0,0.0,0.0,0.0,0.0,0.0,0.0,0.0,0.0,0.0,0.0,0.0,0.0,0.0,0.0,0.0,0.0,0.0,0.0,0.0,0.0,0.0,0.0,0.0,0.0,0.0,0.0,0.0,0.0,0.0,0.0,0.0,0.0,0.0,0.0,0.0,0.0,0.0,0.0,0.0,0.0,0.0,0.0,0.0,0.0,0.0,1.1201,1.4131,1.5732,1.5845,1.442,1.4312,1.28,0.0,0.0,0.0,0.0,0.0,0.0,0.0,0.0,0.0,0.0,0.0,0.0,0.0,0.0,0.0,0.0,0.0,0.0,0.0,0.0,0.0,0.0,0.0,0.0,0.0,0.0,0.0,0.0,0.0,0.0,0.0,0.0,0.0,0.0,0.0,0.0,0.0,0.0,0.0,0.0,0.0,0.0,0.0,0.0,0.0,0.0,0.0,0.0,0.0,0.0,0.0,0.0,0.0,0.0,0.0,0.0,0.0,0.0,0.0,0.0,0.0,0.0,0.0,0.0,0.0,0.0,0.0,0.0,0.0,0.0,0.0,0.0,0.0,0.0,0.0,0.0,0.0,0.0,0.0,0.0,0.0,0.0,0.0,0.0,0.0,0.0,0.0,0.0,0.0,0.0,0.0,0.0,0.0,0.0,0.0,0.0,0.0,0.0,0.0,0.0,0.0,0.0,0.0,0.0,0.0,0.0,0.0,0.0,0.0,1.3515,1.5049,1.6171,1.666,1.4614,1.3732,0.0,0.0,0.0,0.0,0.0,0.0,0.0,0.0,0.0,0.0,0.0,0.0,0.0,0.0,0.0,0.0,0.0,0.0,0.0,0.0,0.0,0.0,0.0,0.0,0.0,0.0,0.0,0.0,0.0,0.0,0.0,0.0,0.0,0.0,0.0,0.0,0.0,0.0,0.0,0.0,0.0,0.0,0.0,0.0,0.0,0.0,0.0,0.0,0.0,0.0,0.0,0.0,0.0,0.0,0.0,0.0,0.0,0.0,0.0,0.0,0.0,0.0,0.0,0.0,0.0,0.0,0.0,0.0,0.0,0.0,0.0,0.0,0.0,0.0,0.0,0.0,0.0,0.0,0.0,0.0,0.0,0.0,0.0,0.0,0.0,0.0,0.0,0.0,0.0,0.0,0.0,0.0,0.0,0.0,0.0,0.0,0.0,0.0,0.0,0.0,0.0,0.0,0.0,0.0,0.0,0.0,0.0,0.0,0.0,1.5307,1.6743,1.7604,1.7761,1.5576,1.4599,1.5006,0.0,0.0,0.0,0.0,0.0,0.0,0.0,0.0,0.0,0.0,0.0,0.0,0.0,0.0,0.0,0.0,0.0,0.0,0.0,0.0,0.0,0.0,0.0,0.0,0.0,0.0,0.0,0.0,0.0,0.0,0.0,0.0,0.0,0.0,0.0,0.0,0.0,0.0,0.0,0.0,0.0,0.0,0.0,0.0,0.0,0.0,0.0,0.0,0.0,0.0,0.0,0.0,0.0,0.0,0.0,0.0,0.0,0.0,0.0,0.0,0.0,0.0,0.0,0.0,0.0,0.0,0.0,0.0,0.0,0.0,0.0,0.0,0.0,0.0,0.0,0.0,0.0,0.0,0.0,0.0,0.0,0.0,0.0,0.0,0.0,0.0,0.0,0.0,0.0,0.0,0.0,0.0,0.0,0.0,0.0,0.0,0.0,0.0,0.0,0.0,0.0,0.0,0.0,0.0,0.0,0.0,0.0,0.0,1.884,2.0327,2.0043,1.7861,1.7089,1.5553,0.0,0.0,0.0,0.0,0.0,0.0,0.0,0.0,0.0,0.0,0.0,0.0,0.0,0.0,0.0,0.0,0.0,0.0,0.0,0.0,0.0,0.0,0.0,0.0,0.0,0.0,0.0,0.0,0.0,0.0,0.0,0.0,0.0,0.0,0.0,0.0,0.0,0.0,0.0,0.0,0.0,0.0,0.0,0.0,0.0,0.0,0.0,0.0,0.0,0.0,0.0,0.0,0.0,0.0,0.0,0.0,0.0,0.0,0.0,0.0,0.0,0.0,0.0,0.0,0.0,0.0,0.0,0.0,0.0,0.0,0.0,0.0,0.0,0.0,0.0,0.0,0.0,0.0,0.0,0.0,0.0,0.0,0.0,0.0,0.0,0.0,0.0,0.0,0.0,0.0,0.0,0.0,0.0,0.0,0.0,0.0,0.0,0.0,0.0,0.0,0.0,0.0,0.0,0.0,0.0,0.0,0.0,0.0,0.0,2.0441,2.1726,2.1931,2.0894,1.9069,1.7701,0.0,0.0,0.0,0.0,0.0,0.0,0.0,0.0,0.0,0.0,0.0,0.0,0.0,0.0,0.0,0.0,0.0,0.0,0.0,0.0,0.0,0.0,0.0,0.0,0.0,0.0,0.0,0.0,0.0,0.0,0.0,0.0,0.0,0.0,0.0,0.0,0.0,0.0,0.0,0.0,0.0,0.0,0.0,0.0,0.0,0.0,0.0,0.0,0.0,0.0,0.0,0.0,0.0,0.0,0.0,0.0,0.0,0.0,0.0,0.0,0.0,0.0,0.0,0.0,0.0,0.0,0.0,0.0,0.0,0.0,0.0,0.0,0.0,0.0,0.0,0.0,0.0,0.0,0.0,0.0,0.0,0.0,0.0,0.0,0.0,0.0,0.0,0.0,0.0,0.0,0.0,0.0,0.0,0.0,0.0,0.0,0.0,0.0,0.0,0.0,0.0,0.0,0.0,0.0,0.0,0.0,0.0,0.0,1.9759,2.1326,2.2404,2.2783,2.2371,2.0555,1.9079,0.0,0.0,0.0,0.0,0.0,0.0,0.0,0.0,0.0,0.0,0.0,0.0,0.0,0.0,0.0,0.0,0.0,0.0,0.0,0.0,0.0,0.0,0.0,0.0,0.0,0.0,0.0,0.0,0.0,0.0,0.0,0.0,0.0,0.0,0.0,0.0,0.0,0.0,0.0,0.0,0.0,0.0,0.0,0.0,0.0,0.0,0.0,0.0,0.0,0.0,0.0,0.0,0.0,0.0,0.0,0.0,0.0,0.0,0.0,0.0,0.0,0.0,0.0,0.0,0.0,0.0,0.0,0.0,0.0,0.0,0.0,0.0,0.0,0.0,0.0,0.0,0.0,0.0,0.0,0.0,0.0,0.0,0.0,0.0,0.0,0.0,0.0,0.0,0.0,0.0,0.0,0.0,0.0,0.0,0.0,0.0,0.0,0.0,0.0,0.0,0.0,0.0,0.0,0.0,0.0,0.0,0.0,0.0,2.0554,2.1736,2.2618,2.2925,2.2669,2.1598,2.0018,0.0,0.0,0.0,0.0,0.0,0.0,0.0,0.0,0.0,0.0,0.0,0.0,0.0,0.0,0.0,0.0,0.0,0.0,0.0,0.0,0.0,0.0,0.0,0.0,0.0,0.0,0.0,0.0,0.0,0.0,0.0,0.0,0.0,0.0,0.0,0.0,0.0,0.0,0.0,0.0,0.0,0.0,0.0,0.0,0.0,0.0,0.0,0.0,0.0,0.0,0.0,0.0,0.0,0.0,0.0,0.0,0.0,0.0,0.0,0.0,0.0,0.0,0.0,0.0,0.0,0.0,0.0,0.0,0.0,0.0,0.0,0.0,0.0,0.0,0.0,0.0,0.0,0.0,0.0,0.0,0.0,0.0,0.0,0.0,0.0,0.0,0.0,0.0,0.0,0.0,0.0,0.0,0.0,0.0,0.0,0.0,0.0,0.0,0.0,0.0,0.0,0.0,0.0,0.0,0.0,0.0,0.0,0.0,2.0298,2.1978,2.2541,2.2746,2.2695,2.1888,2.0494,0.0,0.0,0.0,0.0,0.0,0.0,0.0,0.0,0.0,0.0,0.0,0.0,0.0,0.0,0.0,0.0,0.0,0.0,0.0,0.0,0.0,0.0,0.0,0.0,0.0,0.0,0.0,0.0,0.0,0.0,0.0,0.0,0.0,0.0,0.0,0.0,0.0,0.0,0.0,0.0,0.0,0.0,0.0,0.0,0.0,0.0,0.0,0.0,1.1731,0.0,0.0,0.0,0.0,0.0,0.0,0.0,0.0,0.0,0.0,0.0,0.0,0.0,0.0,0.0,0.0,0.0,0.0,0.0,0.0,0.0,0.0,0.0,0.0,0.0,0.0,0.0,0.0,0.0,0.0,0.0,0.0,0.0,0.0,0.0,0.0,0.0,0.0,0.0,0.0,0.0,0.0,0.0,0.0,0.0,0.0,0.0,0.0,0.0,0.0,0.0,0.0,0.0,0.0,0.0,0.0,0.0,0.0,0.0,2.1162,2.2338,2.259,2.2608,2.2459,2.2089,2.1019,0.0,0.0,0.0,0.0,0.0,0.0,0.0,0.0,0.0,0.0,0.0,0.0,0.0,0.0,0.0,0.0,0.0,0.0,0.0,0.0,0.0,0.0,0.0,0.0,0.0,0.0,0.0,0.0,0.0,0.0,0.0,0.0,0.0,0.0,0.0,0.0,0.0,0.0,0.0,0.0,0.0,0.0,0.0,0.0,0.0,0.0,0.0,0.0,0.0,0.0,0.0,0.0,0.0,0.0,0.0,0.0,0.0,0.0,0.0,0.0,0.0,0.0,0.0,0.0,0.0,0.0,0.0,0.0,0.0,0.0,0.0,0.0,0.0,0.0,0.0,0.0,0.0,0.0,0.0,0.0,0.0,0.0,0.0,0.0,0.0,0.0,0.0,0.0,0.0,0.0,0.0,0.0,0.0,0.0,0.0,0.0,0.0,0.0,0.0,0.0,0.0,0.0,0.0,0.0,0.0,0.0,0.0,2.0582,2.1947,2.2678,2.2634,2.2483,2.222,2.2164,2.1351,1.9724,0.0,0.0,0.0,0.0,0.0,0.0,0.0,0.0,0.0,0.0,0.0,0.0,0.0,0.0,0.0,0.0,0.0,0.0,0.0,0.0,0.0,0.0,0.0,0.0,0.0,0.0,0.0,0.0,0.0,0.0,0.0,0.0,0.0,0.0,0.0,0.0,0.0,0.0,1.1031,1.2535,0.0,0.0,0.0,0.0,0.0,0.0,0.0,0.0,1.2702,0.0,0.0,0.0,0.0,0.0,0.0,0.0,0.0,0.0,0.0,0.0,0.0,0.0,0.0,0.0,0.0,0.0,0.0,0.0,0.0,0.0,0.0,0.0,0.0,0.0,0.0,0.0,0.0,0.0,0.0,0.0,0.0,0.0,0.0,0.0,0.0,0.0,0.0,0.0,0.0,0.0,0.0,0.0,0.0,0.0,0.0,0.0,0.0,0.0,0.0,0.0,0.0,0.0,0.0,0.0,0.0,1.9912,1.9768,2.0655,2.2634,2.2429,2.2265,2.2192,2.1998,2.1159,1.9661,0.0,0.0,0.0,0.0,0.0,0.0,0.0,0.0,0.0,0.0,0.0,0.0,0.0,0.0,0.0,0.0,0.0,0.0,0.0,0.0,0.0,0.0,0.0,0.0,0.0,0.0,0.0,0.0,0.0,0.0,0.0,0.0,0.0,0.0,0.0,0.0,0.0,0.0,0.0,1.4398,1.5138,0.0,0.0,0.0,0.0,0.0,0.0,0.0,0.0,1.295,0.0,0.0,0.0,0.0,0.0,0.0,0.0,0.0,0.0,0.0,0.0,0.0,0.0,0.0,0.0,0.0,0.0,0.0,0.0,0.0,0.0,0.0,0.0,0.0,0.0,0.0,0.0,0.0,0.0,0.0,0.0,0.0,0.0,0.0,0.0,0.0,0.0,0.0,0.0,0.0,0.0,0.0,0.0,0.0,0.0,0.0,0.0,0.0,0.0,0.0,0.0,0.0,0.0,0.0,0.0,1.9046,2.0216,2.131,2.2378,2.2153,2.1998,2.1982,2.1487,2.0704,0.0,0.0,0.0,0.0,0.0,0.0,0.0,0.0,0.0,0.0,0.0,0.0,0.0,0.0,0.0,0.0,0.0,0.0,0.0,0.0,0.0,0.0,0.0,0.0,0.0,0.0,0.0,0.0,0.0,0.0,0.0,0.0,0.0,0.0,0.0,0.0,0.0,0.0,0.0,0.0,1.4387,1.5039,1.5605,0.0,0.0,0.0,0.0,0.0,0.0,1.3988,1.336,0.0,0.0,0.0,0.0,0.0,0.0,0.0,0.0,0.0,0.0,0.0,0.0,0.0,0.0,0.0,0.0,0.0,0.0,0.0,0.0,0.0,0.0,0.0,0.0,0.0,0.0,0.0,0.0,0.0,0.0,0.0,0.0,0.0,0.0,0.0,0.0,0.0,0.0,0.0,0.0,0.0,0.0,0.0,0.0,0.0,0.0,0.0,0.0,0.0,0.0,0.0,0.0,0.0,0.0,0.0,1.8057,2.0433,2.1832,2.2091,2.1911,2.1781,2.1781,2.1189,2.0411,0.0,0.0,0.0,0.0,0.0,0.0,0.0,0.0,0.0,0.0,0.0,0.0,0.0,0.0,0.0,0.0,0.0,0.0,0.0,0.0,0.0,0.0,0.0,0.0,0.0,0.0,0.0,0.0,0.0,0.0,0.0,0.0,0.0,0.0,0.0,0.0,0.0,0.0,0.0,0.0,0.0,1.5007,1.5356,1.491,0.0,0.0,0.0,0.0,1.5634,1.4711,0.0,0.0,0.0,0.0,0.0,0.0,0.0,0.0,0.0,0.0,0.0,0.0,0.0,0.0,0.0,0.0,0.0,0.0,0.0,0.0,0.0,0.0,0.0,0.0,0.0,0.0,0.0,0.0,0.0,0.0,0.0,0.0,0.0,0.0,0.0,0.0,0.0,0.0,0.0,0.0,0.0,0.0,0.0,0.0,0.0,0.0,0.0,0.0,0.0,0.0,0.0,0.0,0.0,0.0,0.0,0.0,1.7687,1.9286,2.0671,2.1774,2.1811,2.1751,2.1708,2.1625,2.0636,0.0,0.0,0.0,0.0,0.0,0.0,0.0,0.0,0.0,0.0,0.0,0.0,0.0,0.0,0.0,0.0,0.0,0.0,0.0,0.0,0.0,0.0,0.0,0.0,0.0,0.0,0.0,0.0,0.0,0.0,0.0,0.0,0.0,0.0,0.0,0.0,0.0,0.0,0.0,0.0,0.0,1.6226,1.5566,1.5505,1.5491,0.0,0.0,1.5133,1.6023,1.5299,0.0,0.0,0.0,0.0,0.0,0.0,0.0,0.0,0.0,0.0,0.0,0.0,0.0,0.0,0.0,0.0,0.0,0.0,0.0,0.0,0.0,0.0,0.0,0.0,0.0,0.0,0.0,0.0,0.0,0.0,0.0,0.0,0.0,0.0,0.0,0.0,0.0,0.0,0.0,0.0,0.0,0.0,0.0,0.0,0.0,0.0,0.0,0.0,0.0,0.0,0.0,0.0,0.0,0.0,0.0,1.5925,1.7472,1.9684,2.1097,2.1661,2.1694,2.168,2.1634,2.1239,2.0188,0.0,0.0,0.0,0.0,0.0,0.0,0.0,0.0,0.0,0.0,0.0,0.0,0.0,0.0,0.0,0.0,0.0,0.0,0.0,0.0,0.0,0.0,0.0,0.0,0.0,0.0,0.0,0.0,0.0,0.0,0.0,0.0,0.0,0.0,0.0,0.0,0.0,0.0,0.0,0.0,0.0,0.0,1.6026,1.5812,0.0,0.0,0.0,1.6005,1.6645,0.0,0.0,0.0,0.0,0.0,0.0,0.0,0.0,0.0,0.0,0.0,0.0,0.0,0.0,0.0,0.0,0.0,0.0,0.0,0.0,0.0,0.0,0.0,0.0,0.0,0.0,0.0,0.0,0.0,0.0,0.0,0.0,0.0,0.0,0.0,0.0,0.0,0.0,0.0,0.0,0.0,0.0,0.0,0.0,0.0,0.0,0.0,0.0,0.0,0.0,0.0,0.0,0.0,0.0,0.0,0.0,0.0,1.7601,2.0197,2.1589,2.1589,2.1589,2.1573,2.1542,2.1002,0.0,0.0,0.0,0.0,0.0,0.0,0.0,0.0,0.0,0.0,0.0,0.0,0.0,0.0,0.0,0.0,0.0,0.0,0.0,0.0,0.0,0.0,0.0,0.0,0.0,0.0,0.0,0.7807,0.0,0.0,0.0,0.0,0.0,0.0,0.0,0.0,0.0,0.0,0.0,0.0,0.0,0.0,1.5583,1.625,1.6151,1.6213,0.0,0.0,1.6754,1.7007,1.646,1.5707,0.0,0.0,0.0,0.0,0.0,0.0,0.0,0.0,0.0,0.0,0.0,0.0,0.0,0.0,0.0,0.0,0.0,0.0,0.0,0.0,0.0,0.0,0.0,0.0,0.0,0.0,0.0,0.0,0.0,0.0,0.0,0.0,0.0,0.0,0.0,0.0,0.0,0.0,0.0,0.0,0.0,0.0,0.0,0.0,0.0,0.0,0.0,0.0,0.0,0.0,0.0,0.0,0.0,0.0,0.0,1.8299,2.0368,2.1464,2.1589,2.1589,2.1542,2.1417,2.1368,2.0033,0.0,0.0,0.0,0.0,0.0,0.0,0.0,0.0,0.0,0.0,0.0,0.0,0.0,0.0,0.0,0.0,0.0,0.0,0.0,0.0,0.0,0.0,0.0,0.0,0.0,0.0,0.0,0.0,0.0,0.0,0.0,0.0,0.0,0.0,0.0,0.0,0.0,0.0,0.0,0.0,0.0,1.6475,1.5941,1.6654,1.7267,0.0,0.0,1.7183,1.6735,1.657,1.6053,1.4583,0.0,0.0,0.0,0.0,0.0,0.0,0.0,0.0,0.0,0.0,0.0,0.0,0.0,0.0,0.0,0.0,0.0,0.0,0.0,0.0,0.0,0.0,0.0,0.0,0.0,0.0,0.0,0.0,0.0,0.0,0.0,0.0,0.0,0.0,0.0,0.0,0.0,0.0,0.0,0.0,0.0,0.0,0.0,0.0,0.0,0.0,0.0,0.0,0.0,0.0,0.0,0.0,0.0,1.6082,1.8261,2.0283,2.1371,2.1419,2.1419,2.1371,2.134,2.1324,2.0189,0.0,0.0,0.0,0.0,0.0,0.0,0.0,0.0,0.0,0.0,0.0,0.0,0.0,0.0,0.0,0.0,0.0,0.0,0.0,0.0,0.0,0.0,0.0,0.0,0.0,0.0,0.0,0.0,0.8846,0.9084,0.9453,0.0,0.0,0.0,0.0,0.0,0.0,0.0,0.0,0.0,0.0,1.6308,1.67,1.7131,0.0,0.0,1.77,1.7712,1.7195,1.7063,1.669,1.544,1.4959,0.0,0.0,0.0,0.0,0.0,0.0,0.0,0.0,0.0,0.0,0.0,0.0,0.0,0.0,0.0,0.0,0.0,0.0,0.0,0.0,0.0,0.0,0.0,0.0,0.0,0.0,0.0,0.0,0.0,0.0,0.0,0.0,0.0,0.0,0.0,0.0,0.0,0.0,0.0,0.0,0.0,0.0,0.0,0.0,0.0,0.0,0.0,0.0,0.0,0.0,0.0,0.0,1.6345,1.8508,2.0367,2.1294,2.1294,2.1294,2.1294,2.1294,2.1294,2.0418,0.0,0.0,0.0,0.0,0.0,0.0,0.0,0.0,0.0,0.0,0.0,0.0,0.0,0.0,0.0,0.0,0.0,0.0,0.0,0.0,0.0,0.0,0.0,0.0,0.0,0.0,0.0,0.0,0.9273,0.9564,1.0083,0.0,0.0,0.0,0.0,0.0,0.0,0.0,0.0,0.0,0.0,1.659,1.7439,1.7751,1.7893,1.7893,1.8061,1.8013,1.7496,1.7412,1.7003,1.5756,0.0,0.0,0.0,0.0,0.0,0.0,0.0,0.0,0.0,0.0,0.0,0.0,0.0,0.0,0.0,0.0,0.0,0.0,0.0,0.0,0.0,0.0,0.0,0.0,0.0,0.0,0.0,0.0,0.0,0.0,1.0571,0.0,0.0,0.0,0.0,0.0,0.0,0.0,0.0,0.0,0.0,0.0,0.0,0.0,0.0,0.0,0.0,0.0,0.0,0.0,0.0,0.0,0.0,1.7035,1.9251,2.061,2.1294,2.1294,2.1294,2.1294,2.1294,2.1294,2.0629,1.9139,0.0,0.0,0.0,0.0,0.0,0.0,0.0,0.0,0.0,0.0,0.0,0.0,0.0,0.0,0.0,0.0,0.0,0.0,0.0,0.0,0.0,0.0,0.0,0.0,0.0,0.0,0.8567,0.8831,0.9157,0.0,0.0,0.0,0.0,0.0,0.0,0.0,0.0,0.0,0.0,1.6714,1.758,1.8073,1.8614,1.8915,1.8927,1.8518,1.8037,1.7532,1.7424,1.6835,0.0,0.0,0.0,0.0,0.0,0.0,0.0,0.0,0.0,0.0,0.0,0.0,0.0,0.0,0.0,0.0,0.0,0.0,0.0,0.0,0.0,0.0,0.0,0.0,0.0,0.0,0.0,1.3538,1.2816,0.0,0.0,0.0,0.0,0.0,0.0,0.0,0.0,0.0,0.0,0.0,1.9959,2.0069,0.0,0.0,0.0,0.0,0.0,0.0,0.0,0.0,0.0,0.0,0.0,0.0,1.7068,1.9179,2.0596,2.1294,2.1294,2.1294,2.1294,2.1294,2.1087,1.9972,1.7782,0.0,0.0,0.0,0.0,0.0,0.0,0.0,0.0,0.0,0.0,0.0,0.0,0.0,0.0,0.0,0.0,0.0,0.0,0.0,0.0,0.0,0.0,0.0,0.0,0.0,0.8905,0.0,0.0,0.0,0.0,0.0,0.0,0.0,0.0,0.0,0.0,0.0,1.5332,1.5732,1.7051,1.8001,1.8181,1.865,1.8987,0.0,0.0,0.0,0.0,0.0,0.0,0.0,0.0,0.0,0.0,0.0,0.0,0.0,0.0,1.6413,1.4773,1.4255,1.4022,1.3981,0.0,0.0,0.0,0.0,0.0,0.0,0.0,0.0,0.0,0.0,0.0,0.0,0.0,0.0,1.5836,0.0,1.4951,0.0,0.0,0.0,0.0,0.0,0.0,0.0,0.0,2.0256,2.1493,2.1932,2.2064,2.1725,0.0,2.0078,1.8502,0.0,0.0,0.0,0.0,0.0,0.0,0.0,0.0,1.7675,1.9556,2.0726,2.1294,2.1294,2.1183,2.1119,2.1119,2.0761,1.9599,1.7542,1.6443,1.5039,0.0,0.0,0.0,0.0,0.0,0.0,0.0,0.0,0.0,0.0,0.0,0.0,0.0,0.0,0.0,0.0,0.0,0.0,0.0,0.0,0.0,0.0,0.0,0.9534,0.0,0.0,0.0,0.0,0.0,0.0,0.0,0.0,0.0,1.3756,1.5012,1.617,1.6846,1.7676,1.8326,1.8698,0.0,0.0,0.0,0.0,0.0,0.0,0.0,1.8289,1.8446,1.8287,1.8084,1.8,1.8396,1.8422,1.7536,0.0,0.0,1.582,1.5258,1.5023,1.4976,1.479,1.4662,1.4613,1.4819,1.4894,0.0,0.0,0.0,0.0,0.0,0.0,0.0,0.0,1.8422,1.8211,0.0,1.7105,0.0,0.0,0.0,0.0,0.0,1.8684,0.0,0.0,2.1906,2.2831,2.3497,2.3513,2.3495,2.3462,2.27,2.1649,2.0226,1.7575,0.0,0.0,0.0,0.0,0.0,0.0,1.882,2.0226,2.0939,2.1278,2.1246,2.0941,2.0777,2.0761,2.0308,1.9537,1.844,1.7777,1.652,1.4485,1.3075,0.0,0.0,0.0,0.0,0.0,0.0,0.0,0.0,0.0,0.0,0.0,0.0,0.0,0.0,0.0,0.0,0.0,0.0,0.0,0.0,1.0116,0.0,0.0,0.0,0.0,0.0,0.0,0.0,0.0,0.0,0.0,1.5816,1.5924,1.669,1.8698,0.0,0.0,0.0,0.0,1.9805,1.9805,1.9805,1.986,1.986,1.978,1.96,1.9066,0.0,0.0,1.7947,1.8154,1.8166,1.709,1.7743,1.8354,1.7904,1.6993,1.6396,1.6331,1.5846,1.5571,1.5557,1.5525,1.5468,2.3753,0.0,0.0,0.0,0.0,2.1943,2.2279,2.3215,2.2582,2.1683,2.0604,2.0332,0.0,0.0,0.0,0.0,0.0,0.0,2.1431,2.2019,2.332,2.3942,2.3991,2.4007,2.3919,2.374,2.302,2.248,2.2067,2.1256,1.9012,1.548,0.0,0.0,0.0,0.0,1.8866,1.9609,2.0738,2.0964,2.0296,2.0604,2.0457,1.9818,1.966,1.9317,1.87,1.8108,1.7294,1.6207,1.451,0.0,0.0,0.0,0.0,0.0,0.0,0.0,0.0,0.0,0.0,0.0,0.0,0.0,0.0,0.0,0.0,0.0,0.0,0.0,1.0614,1.0466,1.0606,0.0,0.0,0.0,0.0,0.0,0.0,0.0,0.0,0.0,1.7977,1.8085,1.8313,0.0,0.0,1.9889,1.9793,2.0093,2.0346,2.037,2.0358,0.0,0.0,2.0021,1.9686,1.939,1.9377,1.9171,1.8743,1.8762,1.862,1.777,1.7686,1.7654,1.7547,1.7183,1.6827,1.6659,1.6262,1.6039,1.6276,1.6331,1.6357,2.7089,2.5328,2.4899,2.4979,2.5362,2.4893,2.5138,2.579,2.5206,2.4351,2.3338,2.2975,2.1888,2.0303,2.0043,0.0,0.0,0.0,2.2638,2.3181,2.4184,2.4745,2.49,2.49,2.4877,2.4697,2.3711,2.3238,2.3238,2.2733,2.0999,1.8155,0.0,0.0,1.8181,1.8812,1.9518,2.0288,2.11,2.124,2.0682,2.0603,2.0101,1.9153,1.9124,1.8974,1.8683,1.8342,1.7859,1.7185,1.5889,1.4438,0.0,0.0,0.0,0.0,0.0,0.0,0.0,0.0,0.0,0.0,0.0,0.8625,0.0,0.0,0.0,0.0,0.9843,1.0814,1.166,1.1628,0.0,0.0,0.0,0.0,0.0,0.0,0.0,1.6632,1.7452,1.8295,1.9109,1.9403,1.9645,1.9881,2.0334,2.0574,2.0442,0.0,2.0535,2.0711,2.0542,2.0537,2.0857,2.0349,1.981,1.9618,1.949,1.9312,1.8914,1.8849,1.8652,1.8163,1.7803,1.7637,1.7627,1.7501,1.7254,1.688,1.6703,1.6743,1.6953,1.7119,1.7246,2.9382,2.8977,2.7946,2.7461,2.7407,2.7407,2.7211,2.6928,2.6672,2.6358,2.5954,2.5118,2.4398,2.3833,2.3227,0.0,2.2733,2.3154,2.377,2.4419,2.4863,2.5431,2.603,2.6046,2.6046,2.5973,2.4697,2.4044,2.399,2.2801,2.1919,2.1345,2.0722,2.0373,2.0216,2.0015,2.0504,2.1708,2.1768,2.1768,2.1669,2.0744,1.974,1.8687,1.8673,1.8634,1.8503,1.8478,1.8264,1.7717,1.7093,1.596,1.4158,0.0,0.0,0.0,0.0,0.0,0.0,0.0,0.0,0.0,0.0,0.0,0.0,0.0,0.0,0.0,1.2106,0.0,1.283,1.3227,0.0,0.0,0.0,1.4583,1.5064,1.5936,1.6905,1.8061,0.0,0.0,1.9454,1.9966,2.0565,2.1271,2.0878,2.0735,2.1284,2.0787,2.0489,2.0937,2.0618,2.0522,2.1166,2.0686,2.004,1.9829,1.971,1.9422,1.8813,1.8623,1.8477,1.8164,1.8037,1.7998,1.7998,1.7939,1.7773,1.6982,1.7158,1.7422,1.7451,1.7628,1.7784,2.9897,2.9823,2.9549,2.8998,2.8272,2.8289,2.8253,2.8163,2.8089,2.7664,2.7005,2.6803,2.6231,2.536,2.5049,2.5109,2.5397,2.5502,2.5847,2.6335,2.6467,2.6513,2.6529,2.6529,2.6442,2.628,2.5572,2.5271,2.5241,2.4208,2.3333,2.2723,2.1848,2.1079,2.0378,2.0694,2.0936,2.107,2.1495,2.1382,2.0754,1.9987,1.9296,1.857,1.8542,1.8517,1.8517,1.8478,1.8461,1.8268,1.7735,1.6831,1.555,1.3657,0.0,0.0,0.0,0.0,0.0,0.0,0.0,0.0,0.0,1.1117,0.8936,0.0,1.1507,0.0,1.2323,1.3035,1.3831,1.3619,0.0,0.0,1.4967,1.5438,1.5924,1.6819,1.7509,1.7789,1.8614,1.9203,1.9324,2.0072,2.0665,2.0852,2.0504,2.0448,2.0963,2.0834,2.0764,2.1136,2.1087,2.1127,2.1242,2.0796,2.024,2.0143,1.9768,1.9337,1.9203,1.8848,1.8603,1.8477,1.8213,1.8037,1.8018,1.8008,1.7959,1.7754,1.7793,1.7861,1.7871,1.7512,1.7157,3.0908,3.0774,3.0774,3.0363,2.9675,2.937,2.9187,2.9026,2.9066,2.8534,2.7671,2.7362,2.6902,2.6389,2.6246,2.6349,2.6592,2.6525,2.6603,2.6867,2.7076,2.7143,2.7024,2.7024,2.6872,2.6504,2.5968,2.5616,2.5399,2.4743,2.4072,2.3445,2.2735,2.1985,2.1225,2.1239,2.1284,2.1454,2.1737,2.1549,2.0837,2.0175,1.9557,1.8899,1.8618,1.8478,1.8478,1.8478,1.8478,1.8478,1.8168,1.7504,1.6434,1.4842,1.3257,0.0,0.0,0.0,0.0,0.0,0.0,0.0,0.0,0.0,0.0,0.0,1.2567,1.2564,1.324,1.3906,1.4467,1.4429,1.4669,1.5421,1.5916,1.6396,1.6849,1.752,1.8094,1.8397,1.9051,1.9509,1.952,2.0058,2.0493,2.0493,2.0075,2.0133,2.0952,2.0834,2.0663,2.1119,2.082,2.0481,2.0471,2.0298,2.0129,2.0139,1.9772,1.957,1.9561,1.9375,1.915,1.8955,1.873,1.8516,1.833,1.8281,1.8163,1.7627,1.751,1.751,1.751,1.6881,1.6367,3.1725,3.147,3.1454,3.1275,3.0966,3.0357,2.9972,2.9669,2.9781,2.9204,2.8207,2.7545,2.7261,2.7261,2.7261,2.7261,2.7217,2.7014,2.6956,2.6943,2.735,2.7487,2.7425,2.7472,2.7204,2.6744,2.6093,2.5634,2.5297,2.4896,2.4367,2.3851,2.3461,2.2915,2.2344,2.1763,2.1766,2.2156,2.217,2.1921,2.1316,2.0695,2.0091,1.9404,1.8747,1.8386,1.84,1.8347,1.8321,1.8361,1.8307,1.7901,1.69,1.5738,1.462,0.0,1.2373,0.0,0.0,0.0,0.0,0.0,0.0,0.0,0.0,1.3766,1.3788,1.3572,1.4451,1.5007,1.5006,1.5418,1.5828,1.632,1.6834,1.7259,1.7616,1.8009,1.8485,1.9041,1.94,1.953,1.951,1.995,2.0278,2.0206,1.9925,2.0018,2.0934,2.0667,2.0431,2.0882,2.0132,1.9772,1.9698,1.986,2.0066,2.0,2.0,2.0,2.001,1.9932,1.9775,1.9453,1.9287,1.9049,1.8627,1.8498,1.8151,1.7147,1.681,1.6747,1.6691,1.6097,1.5604,3.069,3.0654,3.0603,3.0603,3.0536,3.041,3.0221,3.0038,3.056,3.0418,2.9674,2.898,2.8681,2.8681,2.8681,2.8589,2.8404,2.8358,2.8233,2.8074,2.815,2.8018,2.7758,2.7709,2.7495,2.7033,2.6557,2.6307,2.624,2.5351,2.4845,2.477,2.4174,2.3575,2.2957,0.0,0.0,0.0,2.217,2.1889,2.1316,2.0695,2.0091,1.9418,1.8452,0.0,1.7922,1.7598,1.7447,1.7447,1.7447,0.0,0.0,0.0,0.0,0.0,0.0,0.0,0.0,0.0,0.0,0.0,1.4367,1.429,1.4213,1.5248,1.555,1.4653,1.5121,1.5604,1.5976,1.6058,1.6239,1.6646,1.7062,1.7352,1.7461,1.7833,1.816,1.8228,1.8596,1.8844,1.8923,1.9515,1.9999,2.0029,2.0174,2.0456,2.0675,2.0357,2.0187,2.0562,2.0466,2.0293,2.0322,2.0448,2.04,2.0439,2.0439,2.0439,2.04,2.0127,1.9922,1.9785,1.9521,1.9058,1.8266,1.8101,1.7852,1.6885,1.6271,1.5881,1.5882,1.5321,1.4816,3.1382,0.0,3.1397,3.1397,0.0,3.1397,3.1155,3.0744,3.0725,3.0538,3.0245,2.9868,2.9728,2.9728,2.9728,2.9679,2.95,2.8962,2.8675,2.8575,2.8026,2.766,2.7458,2.7458,2.724,2.6826,2.6616,2.6404,2.619,2.5678,2.5289,2.498,2.4723,2.4258,2.3575,2.3252,2.2788,2.2231,2.217,2.203,2.1766,2.1145,2.044,1.957,0.0,0.0,0.0,0.0,0.0,0.0,0.0,0.0,0.0,0.0,0.0,1.4672,1.4244,1.3982,1.3852,1.4333,1.4971,1.572,1.5974,1.5782,1.5028,1.5605,1.5921,1.5532,1.571,1.6074,1.6475,1.6466,1.6597,1.7036,1.7238,1.7461,1.7676,1.7871,1.8096,1.832,1.8691,1.9023,1.9248,1.9814,2.0205,2.0244,2.042,2.0576,2.0557,2.0381,2.0342,2.0605,2.0576,2.0566,2.0576,2.0576,2.0576,2.0566,2.0576,2.0576,2.0576,2.0381,2.0234,2.0225,2.0059,1.9628,1.8563,1.8291,1.785,1.6539,1.5888,1.5425,1.5197,1.477,1.4553,3.2398,3.2398,3.2398,3.2398,3.2398,3.2398,3.2074,3.152,0.0,0.0,0.0,3.0474,3.036,3.0256,3.0271,3.0204,3.0105,2.9244,2.8847,2.8764,2.7884,2.7424,2.7305,2.7187,2.6934,2.6562,2.6461,2.6204,2.5893,2.5893,2.564,2.5177,2.5149,2.4826,2.4287,2.3589,2.2957,2.2367,2.2287,2.217,2.217,2.1535,2.0765,1.9853,1.9094,1.8256,1.7398,1.7286,1.7192,1.7089,1.7102,1.691,1.6552,1.651,1.6404,1.6113,1.6068,1.6023,1.5932,1.6337,1.6516,1.6443,1.6854,1.668,1.5676,1.5742,1.5944,1.6155,1.6229,1.6447,1.6768,1.6846,1.7021,1.7441,1.749,1.7637,1.7959,1.8086,1.8262,1.8543,1.9082,1.9521,1.9844,2.0264,2.0576,2.0566,2.0557,2.0576,2.0576,2.0547,2.0537,2.0566,2.0576,2.0576,2.0576,2.0576,2.0576,2.0576,2.0576,2.0576,2.0576,2.0576,2.0566,2.0285,2.0323,1.9684,1.8551,1.816,1.7666,1.5904,1.5545,1.5389,1.487,1.464,1.4675,3.2398,3.2398,3.2398,3.2398,3.2398,3.2398,3.2336,3.2151,3.0951,3.0735,3.1213,3.0658,3.0204,2.9818,2.9818,2.9589,2.9208,2.9049,2.8965,2.8965,2.8807,2.8542,2.8179,2.7631,2.7152,2.675,2.6256,2.5934,2.5893,2.5893,2.5837,2.5767,2.5767,2.5458,2.4906,2.4301,2.3617,2.2971,2.2451,2.217,2.217,2.1167,2.0547,2.0346,1.8942,1.8109,1.7974,1.7587,1.7156,1.6718,1.6694,1.6651,1.6603,1.6581,1.6761,1.7147,1.7195,1.6942,1.6431,1.65,1.6266,1.5733,1.614,1.6189,1.5608,1.6317,1.6591,1.6217,1.6432,1.6801,1.7217,1.7285,1.7451,1.7842,1.791,1.7949,1.8037,1.833,1.8574,1.8711,1.9346,1.9824,1.9961,2.0312,2.0576,2.0576,2.0576,2.0576,2.0576,2.0576,2.0576,2.0576,2.0576,2.0576,2.0576,2.0576,2.0576,2.0576,2.0566,2.0489,2.0489,2.0411,2.0167,1.9618,1.9539,1.885,1.7413,1.6952,1.6571,1.5687,1.545,1.539,1.5218,1.5226,1.5101,3.2398,3.2398,3.2398,3.2398,3.2398,3.2398,3.2398,3.2336,3.1767,3.1496,3.1506,3.0955,3.0597,3.0428,3.0372,3.0315,3.0072,2.9491,2.9231,2.9202,2.8584,2.8269,2.8082,2.774,2.7513,2.7284,2.668,2.6399,2.6357,2.6062,2.5893,2.5893,2.5893,2.5422,2.4488,2.4199,2.3601,2.2663,2.2679,2.2365,2.1759,2.1247,2.0569,1.9725,1.8913,1.8311,1.775,1.7509,1.7303,1.7063,1.7051,1.7022,1.7042,1.7054,1.7121,1.7377,1.7419,1.7156,1.6539,1.6485,1.6319,1.596,1.6311,1.6311,1.5886,1.6237,1.6546,1.6782,1.6982,1.7266,1.7676,1.7725,1.7803,1.7988,1.8008,1.8105,1.833,1.8506,1.8818,1.9258,1.9668,2.0,2.0244,2.0439,2.0566,2.0576,2.0576,2.0576,2.0576,2.0576,2.0566,2.0576,2.0576,2.0576,2.0576,2.0576,2.0576,2.0576,2.0167,1.9932,1.9854,1.9608,1.9036,1.8727,1.8567,1.8078,1.6862,1.6698,1.6304,1.5673,1.5431,1.5431,1.5431,1.5431,1.5313,3.2398,3.2398,3.2398,3.2398,3.2382,3.2287,3.2231,3.2231,3.1977,3.1724,3.1379,3.119,3.1014,3.0851,3.0851,3.0792,3.054,2.9822,2.9414,2.9356,2.8573,2.8183,2.8169,2.8057,2.7973,2.7917,2.7326,2.7031,2.6961,2.6274,2.5716,2.5508,2.5481,2.497,2.3997,2.3983,2.3482,2.2531,2.2877,2.2602,2.1645,2.1336,2.0584,1.9485,1.9121,1.8635,1.7796,1.776,1.7712,1.7604,1.7592,1.7568,1.7597,1.7567,1.7579,1.7558,1.7564,1.7249,1.6535,1.6385,1.6308,1.6263,1.6546,1.6617,1.6409,1.6357,1.6631,1.7266,1.7441,1.7589,1.792,1.7998,1.8008,1.8008,1.8096,1.8291,1.8514,1.8718,1.915,1.9805,1.999,2.0205,2.0469,2.0576,2.0576,2.0576,2.0576,2.0576,2.0576,2.0576,2.0566,2.0411,2.0489,2.0576,2.0566,2.0411,2.0255,2.0333,1.9608,1.9134,1.8895,1.8399,1.7908,1.7836,1.7674,1.735,1.6624,1.6378,1.6064,1.5506,1.5431,1.5431,1.5431,1.5431,1.5423,3.2398,3.2398,3.2398,3.2398,3.2342,3.1951,3.1724,3.1667,3.0896,3.0493,3.0539,3.1263,3.1087,3.0418,3.0372,3.0129,2.9789,2.9608,2.9552,2.9552,2.9462,2.9434,2.926,2.8872,2.8605,2.8535,2.7928,2.7619,2.7519,2.64,2.5307,2.4319,2.4195,2.4168,2.3987,2.3974,2.3655,2.3063,2.3041,2.2782,2.2124,2.1179,2.058,2.0476,1.9515,1.8955,1.8819,1.8843,1.8614,1.8181,1.8133,1.8127,1.8129,1.814,1.8123,1.7999,1.8015,1.7564,1.6479,1.6224,1.6118,1.6136,1.6478,1.688,1.7178,1.7246,1.7275,1.7451,1.759,1.7784,1.7998,1.8008,1.8027,1.8086,1.834,1.8533,1.875,1.9326,1.9834,1.9883,2.0244,2.0605,2.0557,2.0566,2.0566,2.0489,2.0333,2.0323,2.0411,2.0323,2.0079,1.9775,2.002,2.0411,2.0401,1.9854,1.9529,1.9381,1.8727,1.8238,1.8078,1.7917,1.7747,1.6952,1.687,1.6468,1.5906,1.5514,1.559,1.5506,1.5431,1.5431,1.5431,1.5431,1.5431,3.1879,3.2342,3.1823,3.1595,3.148,3.1116,3.1131,3.1204,3.0464,3.004,2.9993,3.0237,2.9979,2.9588,2.9588,2.9352,2.9035,2.9035,2.9035,2.9035,2.8972,2.8972,2.8944,2.8801,2.8663,2.8546,2.7796,2.7387,2.7149,2.5962,2.4992,2.4517,2.4191,2.3846,2.3492,2.3492,2.3153,2.2621,2.2548,2.2377,2.2021,2.14,2.0896,2.0538,1.9842,1.9456,1.942,1.9114,1.8797,1.8541,1.8453,1.8422,1.8449,1.8462,1.8258,1.7913,1.7402,1.6937,1.6422,1.6262,1.6153,1.6153,1.6398,1.6721,1.7025,1.7063,1.7214,1.7446,1.7707,1.793,1.8008,1.8008,1.8096,1.834,1.8535,1.8757,1.9365,1.9697,2.0,2.0254,2.0449,2.0566,2.0489,2.0167,1.9854,1.9766,1.945,1.9283,1.9696,1.945,1.8966,1.8647,1.8886,1.9045,1.9036,1.8798,1.8567,1.8407,1.7836,1.7269,1.7188,1.6714,1.6312,1.5989,1.5989,1.5906,1.5499,1.5431,1.5431,1.5347,1.5431,1.5431,1.5431,1.5431,1.5431,3.1379,3.1879,3.1248,3.1029,3.097,3.0598,3.0598,3.0732,3.0162,2.9808,2.9574,2.931,2.9071,2.8844,2.8908,2.8844,2.8587,2.8587,2.8587,2.8587,2.8587,2.8587,2.8587,2.8379,2.8379,2.8233,2.7457,2.6843,2.644,2.5497,2.4643,2.42,2.3793,2.3299,2.2811,2.2738,2.2519,2.2123,2.2073,2.2011,2.1818,2.1642,2.1226,2.0674,2.0229,1.9941,1.9885,1.9416,1.91,1.8958,1.8838,1.872,1.8584,1.8471,1.8066,1.7435,1.6767,1.6414,1.6404,1.6398,1.6336,1.6364,1.6628,1.6863,1.6986,1.7008,1.7176,1.747,1.7841,1.7987,1.8046,1.8046,1.823,1.8537,1.8763,1.9131,1.9589,1.9924,2.0148,2.0187,2.006,2.0167,1.9844,1.9283,1.8975,1.8886,1.8399,1.8158,1.8727,1.8407,1.7997,1.7674,1.7674,1.7755,1.7917,1.7755,1.7674,1.7432,1.6944,1.6386,1.6386,1.5748,1.5431,1.5673,1.5514,1.5431,1.5423,1.5431,1.5264,1.5257,1.5173,1.5257,1.5173,1.5173,1.509,3.1014,3.1029,3.1029,3.097,3.097,3.0433,3.0266,3.0251,2.9775,2.9415,2.9099,2.9099,2.8716,2.821,2.8471,2.8587,2.8587,2.8522,2.8522,2.8522,2.8522,2.8587,2.8587,2.8012,2.7736,2.7604,2.7033,2.6228,2.5197,2.5006,2.4237,2.2963,2.275,2.2349,2.2094,2.1984,2.1761,2.1761,2.1773,2.1698,2.1698,2.169,2.1434,2.0924,2.0511,2.0238,2.0122,2.0053,1.9806,1.928,1.9188,1.9033,1.8565,1.8018,1.7372,1.6666,1.6331,1.6201,1.6239,1.6515,1.6751,1.6798,1.709,1.7423,1.7307,1.7354,1.7411,1.7489,1.782,1.8081,1.8176,1.8147,1.8309,1.8727,1.9173,1.9458,1.9336,1.9899,2.0022,1.9362,1.9204,1.8966,1.8238,1.8086,1.8006,1.7997,1.7917,1.7917,1.7917,1.7917,1.7513,1.6944,1.678,1.7017,1.7666,1.7269,1.6788,1.6624,1.6221,1.5582,1.5514,1.5431,1.5431,1.5347,1.5347,1.5347,1.534,1.5257,1.4999,1.4915,1.4824,1.4824,1.4908,1.4741,1.4566,3.0083,3.0129,3.0433,3.0251,2.9761,2.9387,2.9212,2.9149,2.856,2.8327,2.8392,2.8197,2.7921,2.7736,2.7855,2.7855,2.7868,2.7855,2.7921,2.7855,2.7523,2.739,2.731,2.6812,2.6539,2.6458,2.6102,2.5554,2.4883,2.4548,2.4133,2.3573,2.3152,2.2674,2.2327,2.218,2.2027,2.1745,2.171,2.1624,2.1537,2.1624,2.153,2.1132,2.0803,2.0653,2.0605,2.0193,1.9679,1.9016,1.8888,1.8599,1.7933,1.7334,1.6869,1.6609,1.6381,1.6233,1.628,1.6603,1.6893,1.6912,1.7023,1.7116,1.7116,1.7125,1.7218,1.7459,1.7608,1.7896,1.8415,1.8507,1.8663,1.9042,1.925,1.921,1.9026,1.9122,1.8966,1.8149,1.7989,1.7755,1.7188,1.678,1.678,1.687,1.6468,1.6468,1.6788,1.664,1.626,1.5824,1.5824,1.5899,1.6064,1.6064,1.5824,1.5824,1.5582,1.5506,1.5431,1.5347,1.5347,1.5173,1.5173,1.509,1.5082,1.4992,1.4741,1.4741,1.465,1.4566,1.4734,1.4223,1.388,2.9415,2.9477,2.9651,2.9463,2.8908,2.8729,2.8587,2.8522,2.8052,2.7934,2.8013,2.7802,2.7603,2.7536,2.7469,2.739,2.7268,2.739,2.739,2.7188,2.6863,2.6645,2.6371,2.5861,2.5639,2.5581,2.517,2.4838,2.4611,2.4272,2.4015,2.3897,2.3477,2.3001,2.2636,2.2554,2.2243,2.1847,2.1754,2.1609,2.1383,2.1486,2.1434,2.1187,2.0802,2.0754,2.095,2.0308,1.967,1.905,1.8649,1.813,1.727,1.6951,1.6656,1.656,1.6476,1.6505,1.6532,1.6762,1.6908,1.6908,1.6908,1.6908,1.6908,1.7018,1.7229,1.7458,1.7487,1.7707,1.8056,1.81,1.8299,1.8688,1.8734,1.8424,1.8106,1.806,1.7738,1.709,1.6609,1.6288,1.5891,1.5718,1.5718,1.5809,1.5405,1.5456,1.568,1.569,1.5418,1.5191,1.5369,1.5511,1.5633,1.5669,1.5584,1.5526,1.5504,1.5405,1.5322,1.5307,1.5278,1.5097,1.4915,1.4824,1.4741,1.465,1.4566,1.4482,1.4405,1.4321,1.4062,1.3542,1.2942,2.9099,2.9099,2.8716,2.8651,2.8587,2.86,2.8587,2.8522,2.8457,2.8276,2.8013,2.8013,2.7669,2.7469,2.7323,2.7134,2.685,2.7121,2.7121,2.6701,2.6577,2.6289,2.5861,2.53,2.5016,2.5016,2.4467,2.4261,2.4261,2.4204,2.4057,2.3769,2.3547,2.3329,2.2933,2.2798,2.25,2.2108,2.1927,2.1686,2.1238,2.129,2.1279,2.1094,2.0526,2.0429,2.1049,2.0364,1.9726,1.9188,1.8617,1.7772,1.6939,1.6978,1.689,1.6508,1.6679,1.6862,1.6881,1.689,1.6908,1.6917,1.6927,1.6912,1.6888,1.7151,1.7388,1.7342,1.7331,1.7415,1.7335,1.6998,1.7082,1.7738,1.7599,1.7131,1.6919,1.7017,1.6935,1.6041,1.5387,1.481,1.4727,1.4817,1.4831,1.4916,1.5071,1.5091,1.5128,1.5338,1.5434,1.5336,1.543,1.5507,1.5532,1.5609,1.5518,1.5411,1.5466,1.5445,1.5304,1.5304,1.5163,1.4965,1.4685,1.4594,1.4405,1.4321,1.3984,1.3899,1.3899,1.3639,1.3039,1.2437,1.1666,2.8794,2.8729,2.8651,2.8471,2.8276,2.8276,2.8131,2.7855,2.7855,2.7802,2.7603,2.7335,2.7066,2.6918,2.6552,2.6277,2.6151,2.6346,2.6277,2.607,2.5721,2.5499,2.5229,2.4671,2.4478,2.4394,2.4261,2.4189,2.4189,2.4189,2.4169,2.4066,2.3959,2.3695,2.3294,2.319,2.296,2.2513,2.2444,2.2191,2.1732,2.1697,2.132,2.054,2.0226,2.0031,1.9694,1.9431,1.9027,1.842,1.8221,1.7705,1.7004,1.6917,1.6922,1.6762,1.6826,1.6908,1.6908,1.6908,1.6908,1.6963,1.7147,1.7,1.6552,1.6793,1.6882,1.6623,1.6513,1.6575,1.6782,1.6269,1.6175,1.7025,1.6935,1.6445,1.5876,1.547,1.4992,1.4741,1.4412,1.4328,1.4405,1.4405,1.4494,1.4771,1.4902,1.4957,1.5129,1.5355,1.5466,1.5294,1.5473,1.5562,1.5535,1.5576,1.5575,1.55,1.5489,1.5461,1.5368,1.5247,1.5098,1.4638,1.4443,1.4102,1.4004,1.373,1.33,1.296,1.2699,1.2266,1.1843,1.1241,1.0636,2.8406,2.8406,2.8262,2.8066,2.7868,2.7868,2.7749,2.7536,2.7469,2.739,2.7134,2.6863,2.6564,2.6358,2.607,2.5791,2.5569,2.5569,2.5429,2.53,2.5146,2.4874,2.4671,2.4406,2.4189,2.4189,2.4189,2.4189,2.4189,2.4189,2.4189,2.4189,2.4189,2.4051,2.3752,2.3718,2.3477,2.3041,2.2949,2.2719,2.225,2.1935,2.1286,2.0445,1.9839,1.9277,1.8664,1.8365,1.8172,1.7969,1.7765,1.7373,1.6908,1.6908,1.6908,1.6908,1.6908,1.6908,1.6908,1.6908,1.6982,1.7138,1.7063,1.6899,1.6476,1.659,1.6366,1.6197,1.5983,1.5932,1.6047,1.5455,1.5199,1.5636,1.5636,1.5477,1.4908,1.4419,1.4173,1.4166,1.4088,1.4166,1.4243,1.425,1.4294,1.4629,1.4892,1.498,1.5232,1.5422,1.545,1.549,1.5565,1.5606,1.5593,1.5593,1.567,1.5617,1.5666,1.552,1.5422,1.5272,1.5115,1.4215,1.3732,1.3157,1.2949,1.2546,1.2186,1.1837,1.158,1.1322,1.1068,1.0549,1.0033,2.8079,2.8013,2.7669,2.7536,2.7469,2.7456,2.739,2.7323,2.7323,2.704,2.6714,2.6508,2.6289,2.5918,2.5721,2.537,2.5016,2.4945,2.4743,2.4539,2.4671,2.4671,2.4334,2.4189,2.4189,2.4189,2.4189,2.4189,2.4189,2.4189,2.4189,2.4189,2.4189,2.4189,2.412,2.4177,2.3769,2.3322,2.3194,2.2933,2.248,2.1871,2.1224,2.0668,1.943,1.8487,1.7997,1.748,1.7304,1.7706,1.7304,1.6968,1.6908,1.6908,1.6908,1.6908,1.6908,1.6908,1.6908,1.6842,1.689,1.718,1.6706,1.6302,1.6387,1.6172,1.5911,1.5733,1.5517,1.5274,1.5137,1.4657,1.4334,1.4166,1.4412,1.4334,1.4166,1.4088,1.4088,1.4088,1.4088,1.4088,1.4082,1.4088,1.4249,1.4536,1.4885,1.5013,1.5255,1.5497,1.5598,1.5531,1.5297,1.501,1.4703,1.4509,1.4584,1.4534,1.4718,1.4897,1.4851,1.4773,1.443,1.3616,1.3009,1.2342,1.188,1.157,1.1348,1.1063,1.0895,1.0636,1.0294,0.9772,0.9515,2.7669,2.7669,2.7536,2.7255,2.6918,2.693,2.6714,2.6346,2.6346,2.6277,2.607,2.5639,2.5429,2.5217,2.4814,2.4539,2.4467,2.4394,2.4406,2.4261,2.4334,2.4334,2.42,2.4189,2.4189,2.4189,2.4189,2.4189,2.4189,2.4189,2.4189,2.4189,2.4116,2.4189,2.4127,2.3593,2.3243,2.3047,2.2487,2.2029,2.1573,2.1271,2.0607,1.9686,1.896,1.8251,1.7656,1.7186,1.6978,1.7097,1.7038,1.6908,1.6908,1.6908,1.6908,1.6839,1.6839,1.6848,1.6824,1.659,1.6425,1.6499,1.6271,1.5944,1.5336,1.5486,1.524,1.4795,1.4468,1.4496,1.4412,1.425,1.4088,1.4088,1.4088,1.4088,1.4088,1.4088,1.4088,1.4088,1.4088,1.4088,1.4088,1.4135,1.4295,1.4703,1.4847,1.504,1.5239,1.521,1.5177,1.4721,1.4518,1.4058,1.3771,1.3476,1.3369,1.325,1.3397,1.3749,1.372,1.3719,1.3136,1.237,1.222,1.1731,1.1315,1.0953,1.0722,1.0338,0.9864,0.9524,0.9262,0.8915,0.8915,2.739,2.7188,2.7188,2.6837,2.6358,2.6358,2.622,2.5931,2.5931,2.5709,2.5499,2.5146,2.4874,2.4671,2.4334,2.4189,2.4189,2.4189,2.42,2.42,2.42,2.4189,2.4189,2.4189,2.4189,2.4189,2.4189,2.4189,2.4189,2.4189,2.4189,2.4127,2.3813,2.374,2.3604,2.2916,2.2456,2.2381,2.1993,2.1611,2.1393,2.0998,2.0372,1.9506,1.8966,1.8265,1.7594,1.711,1.6908,1.6908,1.6908,1.6908,1.6908,1.6908,1.676,1.6482,1.6412,1.6325,1.6145,1.5917,1.5865,1.601,1.5858,1.5431,1.5109,1.4975,1.458,1.4243,1.4088,1.4088,1.4088,1.4088,1.4088,1.4088,1.4088,1.4088,1.4088,1.4088,1.4088,1.4088,1.4088,1.4088,1.4095,1.4182,1.4482,1.4747,1.4611,1.481,1.493,1.4823,1.4382,1.3902,1.3607,1.3216,1.3022,1.2823,1.263,1.2533,1.2145,1.2441,1.2684,1.2688,1.2247,1.1667,1.1421,1.1096,1.0619,1.0145,0.97,0.9305,0.8802,0.8668,0.8668,0.8572,0.8572,2.7053,2.6645,2.6645,2.6289,2.5861,2.5791,2.5721,2.5721,2.5652,2.537,2.4945,2.4945,2.4599,2.4189,2.4261,2.4189,2.4189,2.4189,2.4189,2.4189,2.4189,2.4189,2.4189,2.4189,2.4189,2.4189,2.4189,2.4189,2.4116,2.4116,2.4043,2.3824,2.3224,2.2916,2.2692,2.2069,2.169,2.1614,2.1375,2.1201,2.1064,2.0594,2.0043,1.9697,1.907,1.8387,1.7715,1.7284,1.7101,1.7064,1.6954,1.6908,1.6908,1.6839,1.6491,1.5982,1.578,1.5543,1.5209,1.5173,1.5239,1.5599,1.5152,1.4924,1.4892,1.4566,1.4166,1.4082,1.4088,1.4088,1.4088,1.4088,1.4088,1.4088,1.4088,1.4088,1.4088,1.4088,1.4088,1.4088,1.4088,1.4088,1.407,1.4163,1.4359,1.3789,1.375,1.3842,1.388,1.3771,1.3312,1.2727,1.2533,1.2436,1.2242,1.215,1.2052,1.1858,1.1272,1.1272,1.1663,1.1696,1.1443,1.113,1.0683,1.0206,0.9766,0.9288,0.8956,0.8837,0.8755,0.8625,0.8601,0.858,0.8572,2.6208,2.607,2.607,2.5709,2.5217,2.5158,2.4945,2.4611,2.4611,2.4539,2.4394,2.4394,2.4334,2.4189,2.4189,2.4189,2.4189,2.4189,2.4189,2.4189,2.4189,2.4189,2.4189,2.4189,2.42,2.42,2.4189,2.42,2.4043,2.3519,2.3224,2.315,2.2521,2.2069,2.1918,2.1231,2.0769,2.0692,2.0235,1.9991,1.9991,1.9835,1.9552,1.9403,1.8939,1.8485,1.8109,1.7908,1.7862,1.7715,1.7222,1.6921,1.6799,1.6431,1.6005,1.5644,1.5174,1.4937,1.4954,1.4744,1.4636,1.4969,1.4667,1.4266,1.4307,1.425,1.4088,1.4088,1.4088,1.4088,1.4088,1.4088,1.3997,1.3997,1.3997,1.3997,1.4088,1.4088,1.4088,1.3997,1.4004,1.3835,1.3155,1.3225,1.3212,1.2813,1.2794,1.2753,1.2699,1.2619,1.2145,1.1565,1.1468,1.137,1.1082,1.1082,1.1082,1.1082,1.0596,1.0301,1.0694,1.0788,1.0635,1.0281,0.9816,0.9452,0.9299,0.9072,0.8984,0.88,0.8723,0.8694,0.8666,0.8625,0.8649,2.5721,2.5511,2.5499,2.5158,2.4671,2.4599,2.4467,2.4261,2.4189,2.4189,2.4189,2.4189,2.4189,2.4189,2.4189,2.4189,2.4189,2.4189,2.4189,2.4189,2.4189,2.4189,2.4043,2.3897,2.3751,2.4043,2.3751,2.3677,2.3446,2.2916,2.2456,2.2381,2.1603,2.1221,2.1068,2.0382,1.9991,1.9923,1.9539,1.9292,1.9292,1.9292,1.9292,1.9228,1.8935,1.8595,1.8421,1.8192,1.7904,1.7546,1.7133,1.6893,1.6828,1.6495,1.5971,1.5118,1.4797,1.4366,1.437,1.4166,1.4079,1.4468,1.426,1.4139,1.4088,1.4088,1.4088,1.4088,1.4088,1.4088,1.4088,1.4088,1.3997,1.3483,1.3398,1.3307,1.3045,1.3568,1.3913,1.3652,1.3398,1.2961,1.2638,1.2474,1.2457,1.2363,1.1842,1.1854,1.1574,1.1468,1.0984,1.0498,1.0502,1.0306,1.0015,0.9916,1.0015,1.0015,1.0015,0.9817,1.0015,0.9916,0.9719,0.9563,0.9608,0.9522,0.9437,0.919,0.8999,0.8946,0.8885,0.8812,0.8735,0.8674,0.8759,2.537,2.4874,2.4874,2.4599,2.4261,2.4189,2.4189,2.4189,2.4189,2.4189,2.4189,2.4189,2.4189,2.4189,2.4189,2.4189,2.4189,2.397,2.3897,2.3897,2.3593,2.3593,2.3446,2.3139,2.3065,2.374,2.315,2.2841,2.2606,2.208,2.1614,2.1451,2.0769,2.0382,2.0157,1.9687,1.9371,1.9371,1.9371,1.9292,1.9292,1.9292,1.9292,1.9228,1.9054,1.8697,1.8443,1.8168,1.7743,1.6903,1.6784,1.6716,1.6588,1.6387,1.5918,1.435,1.4171,1.4016,1.3856,1.3689,1.3823,1.4055,1.4088,1.4088,1.4088,1.4088,1.4088,1.4004,1.3913,1.3743,1.3913,1.3483,1.3137,1.2705,1.2448,1.21,1.1843,1.279,1.296,1.2711,1.2531,1.2203,1.1849,1.1589,1.1744,1.1785,1.1327,1.0979,1.069,1.0493,1.0109,0.9916,1.0015,1.0015,0.9723,0.9624,0.9624,0.9624,0.9624,0.9624,0.9624,0.9624,0.9624,0.9624,0.96,0.96,0.9551,0.9364,0.9214,0.9133,0.9003,0.8877,0.8792,0.8718,0.8869,2.4394,2.4334,2.4334,2.4261,2.42,2.4189,2.4189,2.4189,2.4189,2.4189,2.4189,2.4189,2.4189,2.4189,2.4189,2.4189,2.397,2.353,2.3224,2.3075,2.2681,2.2446,2.2371,2.2145,2.2145,2.2145,2.1993,2.1918,2.1766,2.1155,2.0769,2.0537,2.0001,1.9608,1.9529,1.9371,1.9292,1.9292,1.9292,1.9292,1.9292,1.9292,1.9213,1.9213,1.9016,1.8673,1.8196,1.8002,1.7658,1.6855,1.675,1.6322,1.5731,1.5136,1.4734,1.4316,1.3822,1.3675,1.3647,1.3674,1.3808,1.4001,1.4088,1.4088,1.4088,1.4088,1.4004,1.3828,1.3392,1.296,1.2881,1.2443,1.1843,1.1585,1.1494,1.1408,1.1322,1.1435,1.1699,1.1381,1.1494,1.1478,1.1046,1.0672,1.0759,1.0728,1.0493,1.0293,1.0109,1.0015,0.9821,0.9723,0.9723,0.9723,0.9624,0.9624,0.9624,0.9624,0.9624,0.9624,0.9624,0.9624,0.9624,0.9624,0.9624,0.9616,0.9547,0.9466,0.9376,0.9259,0.9096,0.8934,0.895,0.897,0.9015,2.4189,2.4189,2.4189,2.4189,2.4189,2.4189,2.4189,2.4189,2.4189,2.4189,2.4189,2.4189,2.4189,2.4189,2.4189,2.4043,2.3446,2.2767,2.2381,2.2231,2.1993,2.1756,2.1603,2.1375,2.1155,2.1001,2.076,2.0837,2.1001,2.0304,2.0001,1.9766,1.945,1.9292,1.9292,1.9292,1.9292,1.9292,1.9292,1.9292,1.9292,1.9292,1.9054,1.8727,1.8567,1.8158,1.7504,1.7342,1.6935,1.6183,1.6055,1.5501,1.4887,1.4468,1.4212,1.4097,1.3872,1.3701,1.3841,1.3874,1.3955,1.4048,1.4088,1.4088,1.4088,1.4088,1.3828,1.3392,1.3137,1.2443,1.2015,1.1494,1.1154,1.0722,1.0549,1.0376,1.0052,1.0036,1.0162,1.0269,1.0538,1.0538,1.005,0.9824,0.9853,0.9672,0.9571,0.9604,0.9624,0.9624,0.9624,0.9624,0.9624,0.9624,0.9624,0.9624,0.9624,0.9624,0.9624,0.9624,0.9624,0.9624,0.9624,0.9624,0.9624,0.9426,0.9608,0.9547,0.9462,0.9477,0.925,0.9161,0.9202,0.9238,0.9242,2.4189,2.4189,2.4189,2.4189,2.4189,2.4189,2.4189,2.4189,2.4189,2.4189,2.4189,2.4189,2.4116,2.3897,2.3666,2.3287,2.2692,2.1918,2.1527,2.1451,2.1221,2.1221,2.1068,2.0682,2.0226,2.0226,1.9844,1.9608,2.007,1.9687,1.9371,1.9371,1.9292,1.9292,1.9292,1.9292,1.9292,1.9292,1.9292,1.9301,1.9054,1.8816,1.8487,1.7836,1.7747,1.735,1.6535,1.6445,1.5966,1.5455,1.5079,1.4802,1.423,1.4088,1.4088,1.4088,1.4088,1.4088,1.4075,1.4068,1.4048,1.4088,1.4088,1.3997,1.3652,1.3392,1.3137,1.2619,1.21,1.1757,1.1068,1.0809,1.0381,0.9946,0.9602,0.9437,0.9134,0.9038,0.9173,0.9384,0.9695,0.9758,0.9621,0.9581,0.9693,0.9714,0.9608,0.9608,0.9624,0.9624,0.9624,0.9624,0.9624,0.9624,0.9624,0.9624,0.9624,0.9624,0.9624,0.9624,0.9624,0.9624,0.9525,0.9426,0.9229,0.913,0.9327,0.9624,0.9551,0.9474,0.9401,0.9376,0.9397,0.9256,0.922,2.4189,2.4189,2.4189,2.4189,2.4189,2.4189,2.4189,2.4189,2.42,2.4189,2.4116,2.4116,2.3666,2.3139,2.2371,2.2069,2.169,2.1078,2.0692,2.0615,2.0148,1.9835,1.9687,1.9529,1.9608,1.9608,1.9371,1.9301,1.945,1.9292,1.9292,1.9292,1.9213,1.9213,1.9134,1.8966,1.9292,1.9213,1.9213,1.8807,1.8158,1.7504,1.7107,1.6862,1.678,1.646,1.5718,1.556,1.5151,1.4496,1.4321,1.4237,1.4088,1.4088,1.4088,1.4088,1.4088,1.4088,1.4088,1.4088,1.3997,1.3913,1.4004,1.3652,1.296,1.2272,1.1843,1.1494,1.089,1.0376,1.0033,0.9428,0.8999,0.8915,0.8915,0.8915,0.8601,0.8787,0.8913,0.9047,0.9558,0.9579,0.9464,0.9494,0.9608,0.962,0.9624,0.9624,0.9624,0.9624,0.9624,0.9624,0.9624,0.9624,0.9624,0.9624,0.9628,0.9628,0.9426,0.9426,0.9327,0.9229,0.9327,0.913,0.8832,0.8634,0.8928,0.9122,0.941,0.9265,0.8893,0.912,0.9579,0.9405,0.8918,2.3824,2.42,2.4189,2.4189,2.4189,2.4189,2.4189,2.4127,2.3751,2.3519,2.3446,2.2979,2.2606,2.2145,2.1461,2.1078,2.0847,2.0226,1.9835,1.9844,1.945,1.9292,1.9371,1.9292,1.9292,1.9213,1.9213,1.8886,1.8886,1.9054,1.9292,1.9134,1.8807,1.8479,1.8487,1.8078,1.7836,1.7755,1.7755,1.7674,1.7269,1.6862,1.6453,1.5966,1.5966,1.5477,1.4908,1.4657,1.4496,1.4088,1.4088,1.4088,1.4088,1.4088,1.3919,1.3326,1.3313,1.3568,1.3997,1.3997,1.3737,1.3392,1.3222,1.2875,1.21,1.1499,1.0895,1.0549,1.0202,0.9772,0.9345,0.8823,0.8744,0.8572,0.8572,0.8572,0.8633,0.8869,0.9039,0.9177,0.9307,0.9388,0.9458,0.9543,0.962,0.9624,0.9624,0.9624,0.9624,0.9624,0.9624,0.9624,0.9624,0.9624,0.9624,0.9624,0.9529,0.9426,0.8832,0.8832,0.8733,0.8733,0.863,0.8432,0.7935,0.7935,0.8333,0.8329,0.8322,0.8301,0.8178,0.84,0.8623,0.8216,0.7855,2.3065,2.3593,2.3582,2.3593,2.3582,2.3582,2.3593,2.3508,2.299,2.2692,2.2456,2.1907,2.1527,2.1298,2.0615,2.0235,2.0157,1.9608,1.9371,1.9292,1.9292,1.9292,1.9292,1.9292,1.9134,1.8975,1.8807,1.8399,1.8078,1.8158,1.8487,1.8647,1.7917,1.7666,1.7504,1.718,1.6944,1.6944,1.6617,1.6453,1.6288,1.6131,1.5636,1.5228,1.4985,1.4734,1.425,1.4166,1.4088,1.4088,1.4088,1.399,1.3704,1.3555,1.3215,1.2613,1.2345,1.2619,1.296,1.3052,1.296,1.2528,1.2015,1.158,1.1063,1.0809,1.0467,0.9602,0.9515,0.917,0.8828,0.8656,0.8656,0.8572,0.8572,0.8572,0.8617,0.884,0.9027,0.9149,0.9291,0.9482,0.9547,0.9596,0.9624,0.9624,0.9624,0.9624,0.9525,0.9426,0.9525,0.9426,0.9525,0.9525,0.9525,0.9525,0.943,0.913,0.8531,0.8134,0.8035,0.7836,0.7733,0.7338,0.7039,0.7039,0.7235,0.7235,0.7235,0.7518,0.7611,0.7422,0.7335,0.7039,0.6936,2.1907,2.1993,2.1983,2.1993,2.2059,2.1983,2.1983,2.2145,2.1993,2.1842,2.1614,2.1001,2.0605,2.0382,1.9913,1.9529,1.945,1.9301,1.9292,1.9292,1.9292,1.9213,1.9134,1.9045,1.8807,1.8167,1.8078,1.7594,1.7025,1.6935,1.7017,1.6854,1.678,1.6772,1.669,1.6453,1.6288,1.6214,1.5801,1.5477,1.5311,1.4908,1.4412,1.4334,1.425,1.4166,1.4088,1.4088,1.4088,1.4088,1.3913,1.3613,1.3153,1.2857,1.2351,1.166,1.1397,1.1494,1.1499,1.1757,1.1585,1.1241,1.0722,1.0289,1.0033,0.9257,0.8828,0.8915,0.9003,0.8828,0.8656,0.8572,0.8572,0.8572,0.858,0.8605,0.8662,0.8796,0.8974,0.91,0.9184,0.9205,0.9087,0.9019,0.9426,0.9529,0.9229,0.9229,0.9027,0.9027,0.9229,0.9229,0.9327,0.9327,0.9327,0.913,0.8634,0.8233,0.7736,0.7437,0.7238,0.7039,0.6634,0.6637,0.6337,0.6239,0.6139,0.6337,0.6534,0.7036,0.7135,0.6634,0.6434,0.6337,0.6139,2.0991,2.0914,2.0459,2.0837,2.1756,2.1756,2.1756,2.168,2.1231,2.0682,2.0294,1.9923,1.9766,1.9687,1.9529,1.9292,1.9292,1.9292,1.9213,1.9292,1.9292,1.8975,1.8727,1.8399,1.8078,1.735,1.7188,1.678,1.5966,1.5876,1.547,1.5394,1.5643,1.5884,1.5801,1.5477,1.5228,1.5151,1.4824,1.4664,1.4496,1.4412,1.4088,1.4088,1.4088,1.4088,1.4088,1.4088,1.4088,1.3913,1.3574,1.3087,1.2529,1.2077,1.1419,1.0554,1.0472,1.0202,1.012,1.0554,1.1068,1.0289,0.9689,0.917,0.9174,0.874,0.8656,0.866,0.8572,0.8572,0.8572,0.8572,0.8572,0.8572,0.8597,0.8633,0.8723,0.8857,0.8926,0.9001,0.8887,0.8776,0.8513,0.8329,0.8832,0.9331,0.9031,0.8733,0.8531,0.8432,0.8531,0.8531,0.8531,0.8432,0.8432,0.8035,0.7637,0.7338,0.7039,0.6739,0.6439,0.5837,0.5534,0.5534,0.5634,0.5536,0.5436,0.5536,0.5734,0.6034,0.5934,0.5634,0.5534,0.5536,0.5536,2.0157,2.007,1.9539,1.9991,2.0991,2.1068,2.1068,2.0914,2.0382,1.9844,1.9292,1.9292,1.9292,1.9292,1.9292,1.9054,1.8895,1.8807,1.8647,1.8487,1.8327,1.8167,1.7836,1.7513,1.7188,1.6535,1.6206,1.5884,1.5068,1.4985,1.4741,1.458,1.4664,1.4908,1.4908,1.4496,1.4088,1.4088,1.4088,1.4088,1.4082,1.4082,1.4088,1.4088,1.4088,1.4088,1.4088,1.4088,1.3828,1.3568,1.3039,1.2486,1.1872,1.1203,1.0396,0.9892,0.9454,0.9174,0.9174,0.9519,1.0207,0.9515,0.9082,0.8744,0.8572,0.8572,0.8572,0.8572,0.8572,0.8572,0.8572,0.8572,0.8572,0.8572,0.867,0.8723,0.8816,0.8934,0.8839,0.8917,0.8661,0.8347,0.7925,0.7736,0.7935,0.8333,0.8233,0.7935,0.7832,0.7633,0.7633,0.7633,0.7534,0.7434,0.7235,0.7036,0.6839,0.6637,0.6239,0.5837,0.5436,0.4935,0.4834,0.5033,0.5133,0.4832,0.4933,0.5133,0.5033,0.4933,0.4933,0.5133,0.5033,0.5135,0.5035,1.9301,1.9301,1.9222,1.9292,1.9371,1.9381,1.945,1.9608,1.945,1.9371,1.9301,1.9292,1.9292,1.9292,1.9213,1.8807,1.8238,1.8078,1.7755,1.7261,1.7269,1.6944,1.678,1.6617,1.6288,1.5643,1.5394,1.4985,1.425,1.4328,1.4173,1.4173,1.425,1.4334,1.4166,1.4173,1.4088,1.4088,1.4088,1.4088,1.4088,1.4088,1.4088,1.4088,1.4088,1.4088,1.3828,1.3822,1.3483,1.279,1.2443,1.1632,1.0469,1.0173,0.9519,0.892,0.8748,0.8656,0.8656,0.8744,0.8828,0.8828,0.8656,0.8656,0.8572,0.8572,0.8572,0.8572,0.8572,0.8572,0.8572,0.8572,0.8572,0.8633,0.8731,0.8852,0.8946,0.8765,0.8661,0.8523,0.8233,0.7962,0.7473,0.7138,0.7039,0.7135,0.7235,0.7135,0.6936,0.6734,0.6534,0.6534,0.6534,0.6537,0.6337,0.6139,0.6039,0.5839,0.5639,0.5336,0.5135,0.4935,0.4834,0.4832,0.4832,0.4832,0.4832,0.4832,0.4832,0.4832,0.4832,0.4832,0.4832,0.4832,0.4832,1.8407,1.8407,1.7836,1.7585,1.7747,1.8816,1.9292,1.9292,1.9292,1.9292,1.9292,1.9292,1.9292,1.9134,1.8647,1.8238,1.7917,1.7261,1.6772,1.6698,1.6535,1.6288,1.6049,1.5718,1.5394,1.4741,1.4496,1.4496,1.4166,1.4088,1.4088,1.4088,1.3913,1.4088,1.4088,1.4088,1.4088,1.4088,1.4088,1.4088,1.4088,1.4088,1.3997,1.3997,1.3913,1.3652,1.3222,1.3137,1.2705,1.1843,1.1408,1.0605,0.9794,0.9483,0.8999,0.8656,0.8572,0.8572,0.8572,0.8656,0.8656,0.8572,0.8572,0.8572,0.8572,0.8572,0.8572,0.8572,0.8572,0.8572,0.8572,0.8572,0.8597,0.8723,0.884,0.8999,0.9019,0.8638,0.8383,0.8017,0.7671,0.6767,0.6019,0.6137,0.6137,0.6137,0.6237,0.6037,0.5837,0.5534,0.5434,0.5434,0.5436,0.5536,0.5536,0.5536,0.5436,0.5336,0.5236,0.5035,0.4834,0.4832,0.4832,0.4832,0.4832,0.4832,0.4832,0.4832,0.4832,0.4832,0.4832,0.4832,0.4832,0.4832,0.4832,1.7401,1.7338,1.6895,1.6698,1.6862,1.7917,1.8399,1.8399,1.8399,1.8407,1.8399,1.8399,1.8318,1.8158,1.7836,1.7269,1.7098,1.6535,1.5876,1.5884,1.5801,1.5394,1.5068,1.4985,1.4657,1.4166,1.4088,1.4088,1.4088,1.4088,1.3913,1.3568,1.3313,1.296,1.3137,1.3476,1.4088,1.3997,1.3828,1.3483,1.3398,1.3307,1.3045,1.3052,1.2966,1.279,1.2363,1.21,1.1757,1.0895,1.0284,0.9753,0.9392,0.8973,0.8572,0.8572,0.8572,0.8572,0.8572,0.8572,0.8572,0.8572,0.8572,0.8572,0.8572,0.8572,0.8572,0.8572,0.8572,0.8576,0.858,0.858,0.8694,0.8824,0.8717,0.8867,0.868,0.819,0.7589,0.7307,0.6936,0.5837,0.5037,0.4935,0.5133,0.5236,0.5236,0.5035,0.4935,0.4834,0.4832,0.4834,0.4834,0.5035,0.5135,0.5035,0.4935,0.4834,0.4832,0.4832,0.4832,0.4832,0.4832,0.4832,0.4832,0.4832,0.4832,0.4832,0.4832,0.4832,0.4832,0.4832,0.4832,0.4832,0.4832,1.6253,1.6301,1.654,1.6503,1.6593,1.6593,1.6698,1.6772,1.6772,1.678,1.678,1.6944,1.7025,1.6862,1.669,1.6288,1.5718,1.5477,1.4985,1.4496,1.4573,1.4334,1.4334,1.425,1.4075,1.4082,1.3913,1.3652,1.3913,1.3568,1.3137,1.2705,1.2106,1.1929,1.2186,1.279,1.3483,1.3307,1.2966,1.2705,1.2619,1.2015,1.1837,1.1843,1.1752,1.158,1.1327,1.1154,1.0722,1.0115,0.9772,0.934,0.8911,0.8656,0.8572,0.8572,0.8572,0.8572,0.8572,0.8572,0.8572,0.8572,0.8572,0.8572,0.8572,0.8572,0.8572,0.8572,0.8572,0.8584,0.8597,0.8702,0.8721,0.8609,0.8404,0.8324,0.8021,0.7514,0.6892,0.6442,0.6139,0.5438,0.4935,0.4834,0.4832,0.4834,0.5035,0.4935,0.4834,0.4834,0.4832,0.4832,0.4834,0.4834,0.4832,0.4832,0.4832,0.4832,0.4832,0.4832,0.4832,0.4832,0.4832,0.4832,0.4832,0.4832,0.4832,0.4832,0.4832,0.4832,0.4832,0.4832,0.4832,0.4832,0.4832,1.5038,1.4997,1.4676,1.4494,1.4522,1.4726,1.547,1.6617,1.6698,1.6698,1.6698,1.6698,1.6535,1.6617,1.6049,1.5636,1.5228,1.4824,1.4419,1.4088,1.3828,1.3997,1.3997,1.3913,1.3652,1.3307,1.3045,1.2875,1.2272,1.2186,1.21,1.1666,1.1241,1.1149,1.1322,1.1843,1.2015,1.2106,1.1757,1.1757,1.1671,1.1235,1.1063,1.1068,1.1063,1.0804,1.0463,1.0289,0.9859,0.9257,0.8999,0.8744,0.8744,0.8572,0.8572,0.8572,0.8572,0.8572,0.8572,0.8572,0.8572,0.8572,0.8572,0.8572,0.8572,0.8572,0.8572,0.8572,0.8576,0.8593,0.8504,0.8529,0.849,0.82,0.7955,0.7748,0.7423,0.6778,0.6139,0.5942,0.5641,0.5338,0.4834,0.4832,0.4832,0.4832,0.4832,0.4832,0.4832,0.4832,0.4832,0.4832,0.4832,0.4832,0.4832,0.4832,0.4832,0.4832,0.4832,0.4832,0.4832,0.4832,0.4832,0.4832,0.4832,0.4832,0.4832,0.4832,0.4832,0.4832,0.4832,0.4832,0.4832,0.4832,0.4832,1.386,1.3747,1.358,1.3474,1.3527,1.3781,1.4559,1.5383,1.5576,1.5643,1.5643,1.5636,1.5643,1.556,1.5068,1.4824,1.4741,1.3984,1.3483,1.3392,1.3222,1.2875,1.296,1.3045,1.2613,1.2272,1.21,1.1929,1.1235,1.0809,1.0722,1.0722,1.0463,1.0294,1.0207,1.0207,1.0207,1.0381,1.0463,1.0722,1.0636,1.0463,1.0294,1.0294,1.0294,0.9946,0.9515,0.9428,0.9082,0.8652,0.8656,0.8572,0.8572,0.8572,0.8572,0.8572,0.8572,0.8572,0.8572,0.8572,0.8572,0.8572,0.8572,0.8572,0.8572,0.8572,0.8572,0.8572,0.8589,0.8537,0.8399,0.8352,0.8074,0.777,0.7463,0.715,0.6594,0.6029,0.5639,0.5438,0.5238,0.4935,0.4832,0.4832,0.4832,0.4832,0.4832,0.4832,0.4832,0.4832,0.4832,0.4832,0.4832,0.4832,0.4832,0.4832,0.4832,0.4832,0.4832,0.4832,0.4832,0.4832,0.4832,0.4832,0.4832,0.4832,0.4832,0.4832,0.4832,0.4832,0.4832,0.4832,0.4832,0.4832,0.4832,1.2782,1.2815,1.3046,1.32,1.3253,1.3426,1.3464,1.3503,1.3741,1.3971,1.4153,1.4082,1.4082,1.4068,1.3815,1.3724,1.3464,1.2875,1.2619,1.2534,1.21,1.1757,1.1666,1.1322,1.1494,1.1327,1.1154,1.0982,1.0809,1.0289,0.9772,0.9777,0.917,0.8999,0.9091,0.9003,0.9087,0.9257,0.9515,0.9772,0.9602,0.9174,0.8572,0.8744,0.8744,0.8656,0.8656,0.8656,0.8572,0.8572,0.8572,0.8572,0.8572,0.8572,0.8572,0.8572,0.8572,0.8572,0.8572,0.8572,0.8572,0.8572,0.8572,0.8572,0.8572,0.8572,0.8572,0.8593,0.8609,0.8376,0.8234,0.8106,0.7896,0.7255,0.6755,0.6399,0.5819,0.5436,0.5236,0.5035,0.5035,0.4832,0.4832,0.4832,0.4832,0.4832,0.4832,0.4832,0.4832,0.4832,0.4832,0.4832,0.4832,0.4832,0.4832,0.4832,0.4832,0.4832,0.4832,0.4832,0.4832,0.4832,0.4832,0.4832,0.4832,0.4832,0.4832,0.4832,0.4832,0.4832,0.4832,0.4832,0.4832,0.4832,0.4832,1.2405,1.2445,1.2732,1.2986,1.3121,1.2622,1.245,1.256,1.1939,1.2673,1.3789,1.3385,1.3045,1.296,1.2443,1.218,1.2009,1.1923,1.1666,1.158,1.1235,1.0895,1.1149,1.089,1.0809,1.0376,1.012,0.9951,0.9607,0.9174,0.8911,0.8915,0.8568,0.8568,0.8572,0.8572,0.8656,0.8656,0.8828,0.9087,0.9003,0.8828,0.8572,0.8572,0.8572,0.8572,0.8572,0.8572,0.8572,0.8572,0.8572,0.8572,0.8572,0.8572,0.8572,0.8572,0.8572,0.8572,0.8568,0.8568,0.8476,0.848,0.848,0.8568,0.8572,0.8572,0.8584,0.8609,0.841,0.8185,0.7877,0.7837,0.7598,0.6726,0.6019,0.5627,0.5236,0.5035,0.4834,0.4832,0.4832,0.4832,0.4832,0.4832,0.4832,0.4832,0.4832,0.4832,0.4832,0.4832,0.4832,0.4832,0.4832,0.4832,0.4832,0.4832,0.4832,0.4832,0.4832,0.4832,0.4832,0.4832,0.4832,0.4832,0.4832,0.4832,0.4832,0.4832,0.4832,0.4832,0.4832,0.4832,0.4832,0.4832,0.4832,1.1248,1.1267,1.1407,1.1643,1.1636,1.1353,1.1335,1.1301,1.1078,1.1598,1.2608,1.2292,1.21,1.2095,1.1494,1.1235,1.1149,1.0809,1.0722,1.0636,1.0376,1.0038,1.012,1.0207,0.9772,0.934,0.9345,0.9087,0.8656,0.8656,0.8656,0.8572,0.8572,0.8568,0.8568,0.8568,0.8572,0.8572,0.8568,0.8572,0.8572,0.8572,0.8572,0.8572,0.8572,0.8572,0.8572,0.8572,0.8572,0.8572,0.8572,0.8572,0.8572,0.8572,0.8572,0.8572,0.8572,0.8572,0.848,0.8296,0.8116,0.8116,0.7676,0.7499,0.7411,0.7408,0.7672,0.7694,0.7436,0.7185,0.6737,0.6599,0.6252,0.5669,0.5413,0.5133,0.4935,0.4834,0.4832,0.4832,0.4832,0.4832,0.4832,0.4832,0.4832,0.4832,0.4832,0.4832,0.4832,0.4832,0.4832,0.4832,0.4832,0.4832,0.4832,0.4832,0.4832,0.4832,0.4832,0.4832,0.4832,0.4832,0.4832,0.4832,0.4832,0.4832,0.4832,0.4832,0.4832,0.4832,0.4832,0.4832,0.4832,0.4832,0.4832,0.9965,0.989,0.9895,0.9895,0.9922,1.0033,1.0151,1.0137,1.0306,1.0468,1.0648,1.0841,1.093,1.1144,1.0977,1.0982,1.0722,1.0033,0.9777,0.9515,0.9087,0.9174,0.9003,0.8744,0.8828,0.8828,0.8744,0.8744,0.866,0.8572,0.8572,0.8572,0.8568,0.8568,0.848,0.8568,0.8568,0.8388,0.8388,0.8568,0.8572,0.8572,0.8572,0.8572,0.8572,0.8572,0.8572,0.8572,0.8572,0.848,0.8476,0.83,0.8208,0.812,0.8036,0.8032,0.7944,0.8032,0.8028,0.758,0.7489,0.7224,0.6605,0.6428,0.6428,0.6517,0.6782,0.6704,0.6444,0.6367,0.5991,0.5676,0.5408,0.5085,0.4914,0.4834,0.4834,0.4832,0.4832,0.4832,0.4832,0.4832,0.4832,0.4832,0.4832,0.4832,0.4832,0.4832,0.4832,0.4832,0.4832,0.4832,0.4832,0.4832,0.4832,0.4832,0.4832,0.4832,0.4832,0.4832,0.4832,0.4832,0.4832,0.4832,0.4832,0.4832,0.4832,0.4832,0.4832,0.4832,0.4832,0.4832,0.4832,0.4832,0.4832,0.989,0.989,0.989,0.989,0.9755,0.9276,0.9077,0.9149,0.8652,0.8547,0.8893,0.8989,0.9258,1.012,0.9345,0.9262,0.9519,0.9087,0.8911,0.874,0.8744,0.8656,0.8572,0.8572,0.8572,0.8568,0.8568,0.8568,0.83,0.8392,0.8568,0.848,0.848,0.8296,0.7848,0.794,0.8208,0.8028,0.8116,0.8388,0.848,0.848,0.8572,0.8572,0.8572,0.8572,0.8572,0.8572,0.8572,0.8476,0.8028,0.776,0.758,0.7316,0.7143,0.7231,0.7139,0.7139,0.7051,0.6782,0.6694,0.6605,0.6163,0.6163,0.5985,0.5722,0.5905,0.5922,0.5784,0.5993,0.5779,0.5754,0.5485,0.5107,0.4832,0.4834,0.4834,0.4832,0.4832,0.4832,0.4832,0.4832,0.4832,0.4832,0.4832,0.4832,0.4832,0.4832,0.4832,0.4832,0.4832,0.4832,0.4832,0.4832,0.4832,0.4832,0.4832,0.4832,0.4832,0.4832,0.4832,0.4832,0.4832,0.4832,0.4832,0.4832,0.4832,0.4832,0.4832,0.4832,0.4832,0.4832,0.4832,0.4832,0.4832]},{"header":{"parameterUnit":"m.s-1","parameterCategory":1,"la1":31.0,"la2":29.5877,"lo1":-88.7671,"lo2":-86.6584,"dy":0.0162,"dx":0.0185,"nx":115,"ny":88,"refTime":"2024-05-25T00:00:00:Z","depth":0,"parameterNumber":3,"parameterNumberName":"V-component_of_WINDS"},"data":[0.0,0.0,0.0,0.0,0.0,0.0,0.0,0.0,0.0,0.0,0.0,0.0,0.0,0.0,0.0,0.0,0.0,0.0,0.0,0.0,0.0,0.0,0.0,0.0,0.0,0.0,0.0,0.0,0.0,0.0,0.0,0.0,0.0,0.0,0.0,0.0,0.0,0.0,0.0,0.0,0.0,0.0,0.0,0.0,0.0,0.0,0.0,0.0,0.0,0.0,0.0,0.0,0.0,0.0,0.0,0.0,0.0,0.0,0.0,0.0,0.0,0.0,0.0,0.0,0.0,0.0,0.0,0.0,0.0,0.0,0.0,0.0,0.0,0.0,0.0,0.0,0.0,0.0,0.0,0.0,0.0,0.0,0.0,0.0,0.0,0.0,0.0,0.0,0.0,0.0,0.0,0.0,0.0,0.0,0.0,0.0,0.0,0.0,0.0,0.0,0.0,0.0,0.0,0.0,0.0,0.0,0.0,0.0,0.0,0.0,0.0,0.0,0.0,0.0,0.0,0.0,0.0,0.0,0.0,0.0,0.0,0.0,0.0,0.0,0.0,0.0,0.0,0.0,0.0,0.0,0.0,0.0,0.0,0.0,0.0,0.0,0.0,0.0,0.0,0.0,0.0,0.0,0.0,0.0,0.0,0.0,0.0,0.0,0.0,0.0,0.0,0.0,0.0,0.0,0.0,0.0,0.0,0.0,0.0,0.0,0.0,0.0,0.0,0.0,0.0,0.0,0.0,0.0,0.0,0.0,0.0,0.0,0.0,0.0,0.0,0.0,0.0,0.0,0.0,0.0,0.0,0.0,0.0,0.0,0.0,0.0,0.0,0.0,0.0,0.0,0.0,0.0,0.0,0.0,0.0,0.0,0.0,0.0,0.0,0.0,0.0,0.0,0.0,0.0,0.0,0.0,0.0,0.0,0.0,0.0,0.0,0.0,0.0,0.0,0.0,0.0,0.0,0.0,0.0,0.0,0.0,0.0,0.0,0.0,0.0,0.0,0.0,0.0,0.0,0.0,0.0,0.0,0.0,0.0,0.0,0.0,0.0,0.0,0.0,0.0,0.0,0.0,0.0,0.0,0.0,0.0,0.0,0.0,0.0,0.0,0.0,0.0,0.0,0.0,0.0,0.0,0.0,0.0,0.0,0.0,0.0,0.0,0.0,0.0,0.0,0.0,0.0,0.0,0.0,0.0,0.0,0.0,0.0,0.0,0.0,0.0,0.0,0.0,0.0,0.0,0.0,0.0,0.0,0.0,0.0,0.0,0.0,0.0,0.0,0.0,0.0,0.0,0.0,0.0,0.0,0.0,0.0,0.0,0.0,0.0,0.0,0.0,0.0,0.0,0.0,0.0,0.0,0.0,0.0,0.0,0.0,0.0,0.0,0.0,0.0,0.0,0.0,0.0,0.0,0.0,0.0,0.0,0.0,0.0,0.0,0.0,0.0,0.0,0.0,0.0,0.0,0.0,0.0,0.0,0.0,0.0,0.0,0.0,0.0,0.0,0.0,0.0,0.0,0.0,0.0,0.0,0.0,0.0,0.0,0.0,0.0,0.0,0.0,0.0,0.0,0.0,0.0,0.0,0.0,0.0,0.0,0.0,0.0,0.0,0.0,0.0,0.0,0.0,0.0,0.0,0.0,0.0,0.0,0.0,0.0,0.0,0.0,0.0,0.0,0.0,0.0,0.0,0.0,0.0,0.0,0.0,0.0,0.0,0.0,0.0,0.0,0.0,0.0,0.0,0.0,0.0,0.0,0.0,0.0,0.0,0.0,0.0,0.0,0.0,0.0,0.0,0.0,0.0,0.0,0.0,0.0,0.0,0.0,0.0,0.0,0.0,0.0,0.0,0.0,0.0,0.0,0.0,0.0,0.0,0.0,0.0,0.0,0.0,0.0,0.0,0.0,0.0,0.0,0.0,0.0,0.0,0.0,0.0,0.0,0.0,0.0,0.0,0.0,0.0,0.0,0.0,0.0,0.0,0.0,0.0,0.0,0.0,0.0,0.0,0.0,0.0,0.0,0.0,0.0,0.0,0.0,0.0,0.0,0.0,0.0,0.0,0.0,0.0,0.0,0.0,0.0,0.0,0.0,0.0,0.0,0.0,0.0,0.0,0.0,0.0,0.0,0.0,0.0,0.0,0.0,0.0,0.0,0.0,0.0,0.0,0.0,0.0,0.0,0.0,0.0,0.0,0.0,0.0,0.0,0.0,0.0,0.0,0.0,0.0,0.0,0.0,0.0,0.0,0.0,0.0,0.0,0.0,0.0,0.0,0.0,0.0,0.0,0.0,0.0,0.0,0.0,0.0,0.0,0.0,0.0,0.0,0.0,0.0,0.0,0.0,0.0,0.0,0.0,0.0,0.0,0.0,0.0,0.0,0.0,0.0,0.0,0.0,0.0,0.0,0.0,0.0,0.0,0.0,0.0,0.0,0.0,0.0,0.0,0.0,0.0,0.0,0.0,0.0,0.0,0.0,0.0,0.0,0.0,0.0,0.0,0.0,0.0,0.0,0.0,0.0,0.0,0.0,0.0,0.0,0.0,0.0,0.0,0.0,0.0,0.0,0.0,0.0,0.0,0.0,0.0,0.0,0.0,0.0,0.0,0.0,0.0,0.0,0.0,0.0,0.0,0.0,0.0,0.0,0.0,0.0,0.0,0.0,0.0,0.0,0.0,0.0,0.0,0.0,0.0,0.0,0.0,0.0,0.0,0.0,0.0,0.0,0.0,0.0,0.0,0.0,0.0,0.0,0.0,0.0,0.0,0.0,0.0,0.0,0.0,0.0,0.0,0.0,0.0,0.0,0.0,0.0,0.0,0.0,0.0,0.0,0.0,0.0,0.0,0.0,0.0,0.0,0.0,0.0,0.0,0.0,0.0,0.0,0.0,0.0,0.0,0.0,0.0,0.0,0.0,0.0,0.0,0.0,0.0,0.0,0.0,0.0,0.0,0.0,0.0,0.0,0.0,0.0,0.0,0.0,0.0,0.0,0.0,0.0,0.0,0.0,0.0,0.0,0.0,0.0,0.0,0.0,0.0,0.0,0.0,0.0,0.0,0.0,0.0,0.0,0.0,0.0,0.0,0.0,0.0,0.0,0.0,0.0,0.0,0.0,0.0,0.0,0.0,0.0,0.0,0.0,0.0,0.0,0.0,0.0,0.0,0.0,0.0,0.0,0.0,0.0,0.0,0.0,0.0,0.0,0.0,0.0,0.0,0.0,0.0,0.0,0.0,0.0,0.0,0.0,0.0,0.0,0.0,0.0,0.0,0.0,0.0,0.0,0.0,0.0,0.0,0.0,0.0,0.0,0.0,0.0,0.0,0.0,0.0,0.0,0.0,0.0,0.0,0.0,0.0,0.0,0.0,0.0,0.0,0.0,0.0,0.0,0.0,0.0,0.0,0.0,0.0,0.0,0.0,0.0,0.0,0.0,0.0,0.0,0.0,0.0,0.0,0.0,0.0,0.0,0.0,0.0,0.0,0.0,0.0,0.0,0.0,0.0,0.0,0.0,0.0,0.0,0.0,0.0,0.0,0.0,0.0,0.0,0.0,0.0,0.0,0.0,0.0,0.0,0.0,0.0,0.0,0.0,0.0,0.0,0.0,0.0,0.0,0.0,0.0,0.0,0.0,0.0,0.0,0.0,0.0,0.0,0.0,0.0,0.0,0.0,0.0,0.0,0.0,0.0,0.0,0.0,0.0,0.0,0.0,0.0,0.0,0.0,0.0,0.0,0.0,0.0,0.0,0.0,0.0,0.0,0.0,0.0,0.0,0.0,0.0,0.0,0.0,0.0,0.0,0.0,0.0,0.0,0.0,0.0,0.0,0.0,0.0,0.0,0.0,0.0,0.0,0.0,0.0,0.0,0.0,0.0,0.0,0.0,0.0,0.0,0.0,0.0,0.0,0.0,0.0,0.0,0.0,0.0,0.0,0.0,0.0,0.0,0.0,0.0,0.0,0.0,0.0,0.0,0.0,0.0,0.0,0.0,0.0,0.0,0.0,0.0,0.0,0.0,0.0,0.0,0.0,0.0,0.0,0.0,0.0,0.0,0.0,0.0,0.0,0.0,0.0,0.0,0.0,0.0,0.0,0.0,0.0,0.0,0.0,0.0,0.0,0.0,0.0,0.0,0.0,0.0,0.0,0.0,0.0,0.0,0.0,0.0,0.0,0.0,0.0,0.0,0.0,0.0,0.0,0.0,0.0,0.0,0.0,0.0,0.0,0.0,0.0,0.0,0.0,0.0,0.0,0.0,0.0,0.0,0.0,0.0,-0.4836,0.0,0.0,0.0,0.0,0.0,0.0,0.0,0.0,0.0,0.0,0.0,0.0,0.0,0.0,0.0,0.0,0.0,0.0,0.0,0.0,0.0,0.0,0.0,0.0,0.0,0.0,0.0,0.0,0.0,0.0,0.0,0.0,0.0,0.0,0.0,0.0,0.0,0.0,0.0,0.0,0.0,0.0,0.0,0.0,0.0,0.0,0.0,0.0,0.0,0.0,0.0,0.0,0.0,0.0,0.0,0.0,0.0,0.0,0.0,0.0,0.0,0.0,0.0,0.0,0.0,0.0,0.0,0.0,0.0,0.0,0.0,0.0,0.0,0.0,0.0,0.0,0.0,0.0,0.0,0.0,0.0,0.0,0.0,0.0,0.0,0.0,0.0,0.0,0.0,0.0,0.0,0.0,0.0,0.0,0.0,0.0,0.0,0.0,0.0,0.0,0.0,0.0,0.0,0.0,0.0,0.0,0.0,0.0,0.0,0.0,-0.4947,-0.5264,-0.5144,-0.5077,-0.5077,0.0,0.0,0.0,0.0,0.0,0.0,0.0,0.0,0.0,0.0,0.0,0.0,0.0,0.0,0.0,0.0,0.0,0.0,0.0,0.0,0.0,0.0,0.0,0.0,0.0,0.0,0.0,0.0,0.0,0.0,0.0,0.0,0.0,0.0,0.0,0.0,0.0,0.0,0.0,0.0,0.0,0.0,0.0,0.0,0.0,0.0,0.0,0.0,0.0,0.0,0.0,0.0,0.0,0.0,0.0,0.0,0.0,0.0,0.0,0.0,0.0,0.0,0.0,0.0,0.0,0.0,0.0,0.0,0.0,0.0,0.0,0.0,0.0,0.0,0.0,0.0,0.0,0.0,0.0,0.0,0.0,0.0,0.0,0.0,0.0,0.0,0.0,0.0,0.0,0.0,0.0,0.0,0.0,0.0,0.0,0.0,0.0,0.0,0.0,0.0,0.0,0.0,0.0,0.0,0.0,0.0,0.0,0.0,0.0,0.0,0.0,0.0,-0.5476,-0.5442,-0.5474,0.0,0.0,0.0,0.0,0.0,0.0,0.0,0.0,0.0,0.0,0.0,0.0,0.0,0.0,0.0,0.0,0.0,0.0,0.0,0.0,0.0,0.0,0.0,0.0,0.0,0.0,0.0,0.0,0.0,0.0,0.0,0.0,0.0,0.0,0.0,0.0,0.0,0.0,0.0,0.0,0.0,0.0,0.0,0.0,0.0,0.0,0.0,0.0,0.0,0.0,0.0,0.0,0.0,0.0,0.0,0.0,0.0,0.0,0.0,0.0,0.0,0.0,0.0,0.0,0.0,0.0,0.0,0.0,0.0,0.0,0.0,0.0,0.0,0.0,0.0,0.0,0.0,0.0,0.0,0.0,0.0,0.0,0.0,0.0,0.0,0.0,0.0,0.0,0.0,0.0,0.0,0.0,0.0,0.0,0.0,0.0,0.0,0.0,0.0,0.0,0.0,0.0,0.0,0.0,0.0,0.0,0.0,0.0,0.0,0.0,-0.5052,-0.6327,-0.6013,0.0,-0.5949,0.0,0.0,0.0,0.0,0.0,0.0,0.0,0.0,0.0,0.0,0.0,0.0,0.0,0.0,0.0,0.0,0.0,0.0,0.0,0.0,0.0,0.0,0.0,0.0,0.0,0.0,0.0,0.0,0.0,0.0,0.0,0.0,0.0,0.0,0.0,0.0,0.0,0.0,0.0,0.0,0.0,0.0,0.0,0.0,0.0,0.0,0.0,0.0,0.0,0.0,0.0,0.0,0.0,0.0,0.0,0.0,0.0,0.0,0.0,0.0,0.0,0.0,0.0,0.0,0.0,0.0,0.0,0.0,0.0,0.0,0.0,0.0,0.0,0.0,0.0,0.0,0.0,0.0,0.0,0.0,0.0,0.0,0.0,0.0,0.0,0.0,0.0,0.0,0.0,0.0,0.0,0.0,0.0,0.0,0.0,0.0,0.0,0.0,0.0,0.0,0.0,0.0,0.0,0.0,0.0,0.0,0.0,0.0,0.0,0.0,0.0,-0.5846,-0.5923,-0.6052,0.0,0.0,0.0,0.0,0.0,0.0,0.0,0.0,0.0,0.0,0.0,0.0,0.0,0.0,0.0,0.0,0.0,0.0,0.0,0.0,0.0,0.0,0.0,0.0,0.0,0.0,0.0,0.0,0.0,0.0,0.0,0.0,0.0,0.0,0.0,0.0,0.0,0.0,0.0,0.0,0.0,0.0,0.0,0.0,0.0,0.0,0.0,0.0,0.0,0.0,0.0,0.0,0.0,0.0,0.0,0.0,0.0,0.0,0.0,0.0,0.0,0.0,0.0,0.0,0.0,0.0,0.0,0.0,0.0,0.0,0.0,0.0,0.0,0.0,0.0,0.0,0.0,0.0,0.0,0.0,0.0,0.0,0.0,0.0,0.0,0.0,0.0,0.0,0.0,0.0,0.0,0.0,0.0,0.0,0.0,0.0,0.0,0.0,0.0,0.0,0.0,0.0,0.0,0.0,0.0,0.0,0.0,0.0,0.0,0.0,-0.4982,0.0,-0.5589,-0.5899,-0.6149,-0.6226,0.0,0.0,0.0,0.0,0.0,0.0,0.0,0.0,0.0,0.0,0.0,0.0,0.0,0.0,0.0,0.0,0.0,0.0,0.0,0.0,0.0,0.0,0.0,0.0,0.0,0.0,0.0,0.0,0.0,0.0,0.0,0.0,0.0,0.0,0.0,0.0,0.0,0.0,0.0,0.0,0.0,0.0,0.0,0.0,0.0,0.0,0.0,0.0,0.0,0.0,0.0,0.0,0.0,0.0,0.0,0.0,0.0,0.0,0.0,0.0,0.0,0.0,0.0,0.0,0.0,0.0,0.0,0.0,0.0,0.0,0.0,0.0,0.0,0.0,0.0,0.0,0.0,0.0,0.0,0.0,0.0,0.0,0.0,0.0,0.0,0.0,0.0,0.0,0.0,0.0,0.0,0.0,0.0,0.0,0.0,0.0,0.0,0.0,0.0,0.0,0.0,0.0,0.0,0.0,0.0,0.0,0.0,0.0,0.0,-0.5439,-0.5408,-0.6022,-0.6207,-0.6106,0.0,0.0,0.0,0.0,0.0,0.0,0.0,0.0,0.0,0.0,0.0,0.0,0.0,0.0,0.0,0.0,0.0,0.0,0.0,0.0,0.0,0.0,0.0,0.0,0.0,0.0,0.0,0.0,0.0,0.0,0.0,0.0,0.0,0.0,0.0,0.0,0.0,0.0,0.0,0.0,0.0,0.0,0.0,0.0,0.0,0.0,0.0,0.0,0.0,0.0,0.0,0.0,0.0,0.0,0.0,0.0,0.0,0.0,0.0,0.0,0.0,0.0,0.0,0.0,0.0,0.0,0.0,0.0,0.0,0.0,0.0,0.0,0.0,0.0,0.0,0.0,0.0,0.0,0.0,0.0,0.0,0.0,0.0,0.0,0.0,0.0,0.0,0.0,0.0,0.0,0.0,0.0,0.0,0.0,0.0,0.0,0.0,0.0,0.0,0.0,0.0,0.0,0.0,0.0,0.0,0.0,0.0,0.0,0.0,-0.4563,-0.4762,-0.5353,0.0,-0.597,-0.5945,0.0,0.0,0.0,0.0,0.0,0.0,0.0,0.0,0.0,0.0,0.0,0.0,0.0,0.0,0.0,0.0,0.0,0.0,0.0,0.0,0.0,0.0,0.0,0.0,0.0,0.0,0.0,0.0,0.0,0.0,0.0,0.0,0.0,0.0,0.0,0.0,0.0,0.0,0.0,0.0,0.0,0.0,0.0,0.0,0.0,0.0,0.0,0.0,0.0,0.0,0.0,0.0,0.0,0.0,0.0,0.0,0.0,0.0,0.0,0.0,0.0,0.0,0.0,0.0,0.0,0.0,0.0,0.0,0.0,0.0,0.0,0.0,0.0,0.0,0.0,0.0,0.0,0.0,0.0,0.0,0.0,0.0,0.0,0.0,0.0,0.0,0.0,0.0,0.0,0.0,0.0,0.0,0.0,0.0,0.0,0.0,0.0,0.0,0.0,0.0,0.0,0.0,0.0,0.0,0.0,0.0,0.0,0.0,0.0,-0.4381,0.0,-0.5672,0.0,-0.5795,-0.5693,0.0,0.0,0.0,0.0,0.0,0.0,0.0,0.0,0.0,0.0,0.0,0.0,0.0,0.0,0.0,0.0,0.0,0.0,0.0,0.0,0.0,0.0,0.0,0.0,0.0,0.0,0.0,0.0,0.0,0.0,0.0,0.0,0.0,0.0,0.0,0.0,0.0,0.0,0.0,0.0,0.0,0.0,0.0,0.0,0.0,0.0,0.0,0.0,0.0,0.0,0.0,0.0,0.0,0.0,0.0,0.0,0.0,0.0,0.0,0.0,0.0,0.0,0.0,0.0,0.0,0.0,0.0,0.0,0.0,0.0,0.0,0.0,0.0,0.0,0.0,0.0,0.0,0.0,0.0,0.0,0.0,0.0,0.0,0.0,0.0,0.0,0.0,0.0,0.0,0.0,0.0,0.0,0.0,0.0,0.0,0.0,0.0,0.0,0.0,0.0,0.0,0.0,0.0,0.0,0.0,0.0,0.0,0.0,-0.4497,-0.5745,-0.6316,-0.6402,-0.5863,-0.5819,-0.5335,0.0,0.0,0.0,0.0,0.0,0.0,0.0,0.0,0.0,0.0,0.0,0.0,0.0,0.0,0.0,0.0,0.0,0.0,0.0,0.0,0.0,0.0,0.0,0.0,0.0,0.0,0.0,0.0,0.0,0.0,0.0,0.0,0.0,0.0,0.0,0.0,0.0,0.0,0.0,0.0,0.0,0.0,0.0,0.0,0.0,0.0,0.0,0.0,0.0,0.0,0.0,0.0,0.0,0.0,0.0,0.0,0.0,0.0,0.0,0.0,0.0,0.0,0.0,0.0,0.0,0.0,0.0,0.0,0.0,0.0,0.0,0.0,0.0,0.0,0.0,0.0,0.0,0.0,0.0,0.0,0.0,0.0,0.0,0.0,0.0,0.0,0.0,0.0,0.0,0.0,0.0,0.0,0.0,0.0,0.0,0.0,0.0,0.0,0.0,0.0,0.0,0.0,0.0,0.0,0.0,0.0,0.0,0.0,0.0,-0.5495,-0.608,-0.6534,-0.6731,-0.5904,-0.5688,0.0,0.0,0.0,0.0,0.0,0.0,0.0,0.0,0.0,0.0,0.0,0.0,0.0,0.0,0.0,0.0,0.0,0.0,0.0,0.0,0.0,0.0,0.0,0.0,0.0,0.0,0.0,0.0,0.0,0.0,0.0,0.0,0.0,0.0,0.0,0.0,0.0,0.0,0.0,0.0,0.0,0.0,0.0,0.0,0.0,0.0,0.0,0.0,0.0,0.0,0.0,0.0,0.0,0.0,0.0,0.0,0.0,0.0,0.0,0.0,0.0,0.0,0.0,0.0,0.0,0.0,0.0,0.0,0.0,0.0,0.0,0.0,0.0,0.0,0.0,0.0,0.0,0.0,0.0,0.0,0.0,0.0,0.0,0.0,0.0,0.0,0.0,0.0,0.0,0.0,0.0,0.0,0.0,0.0,0.0,0.0,0.0,0.0,0.0,0.0,0.0,0.0,0.0,0.0,0.0,0.0,0.0,0.0,0.0,-0.6576,-0.7193,-0.7563,-0.7494,-0.6492,-0.6197,-0.6681,0.0,0.0,0.0,0.0,0.0,0.0,0.0,0.0,0.0,0.0,0.0,0.0,0.0,0.0,0.0,0.0,0.0,0.0,0.0,0.0,0.0,0.0,0.0,0.0,0.0,0.0,0.0,0.0,0.0,0.0,0.0,0.0,0.0,0.0,0.0,0.0,0.0,0.0,0.0,0.0,0.0,0.0,0.0,0.0,0.0,0.0,0.0,0.0,0.0,0.0,0.0,0.0,0.0,0.0,0.0,0.0,0.0,0.0,0.0,0.0,0.0,0.0,0.0,0.0,0.0,0.0,0.0,0.0,0.0,0.0,0.0,0.0,0.0,0.0,0.0,0.0,0.0,0.0,0.0,0.0,0.0,0.0,0.0,0.0,0.0,0.0,0.0,0.0,0.0,0.0,0.0,0.0,0.0,0.0,0.0,0.0,0.0,0.0,0.0,0.0,0.0,0.0,0.0,0.0,0.0,0.0,0.0,0.0,-0.8536,-0.9371,-0.924,-0.8187,-0.7475,-0.6844,0.0,0.0,0.0,0.0,0.0,0.0,0.0,0.0,0.0,0.0,0.0,0.0,0.0,0.0,0.0,0.0,0.0,0.0,0.0,0.0,0.0,0.0,0.0,0.0,0.0,0.0,0.0,0.0,0.0,0.0,0.0,0.0,0.0,0.0,0.0,0.0,0.0,0.0,0.0,0.0,0.0,0.0,0.0,0.0,0.0,0.0,0.0,0.0,0.0,0.0,0.0,0.0,0.0,0.0,0.0,0.0,0.0,0.0,0.0,0.0,0.0,0.0,0.0,0.0,0.0,0.0,0.0,0.0,0.0,0.0,0.0,0.0,0.0,0.0,0.0,0.0,0.0,0.0,0.0,0.0,0.0,0.0,0.0,0.0,0.0,0.0,0.0,0.0,0.0,0.0,0.0,0.0,0.0,0.0,0.0,0.0,0.0,0.0,0.0,0.0,0.0,0.0,0.0,0.0,0.0,0.0,0.0,0.0,0.0,-0.9262,-1.0479,-1.0637,-0.9632,-0.874,-0.8301,0.0,0.0,0.0,0.0,0.0,0.0,0.0,0.0,0.0,0.0,0.0,0.0,0.0,0.0,0.0,0.0,0.0,0.0,0.0,0.0,0.0,0.0,0.0,0.0,0.0,0.0,0.0,0.0,0.0,0.0,0.0,0.0,0.0,0.0,0.0,0.0,0.0,0.0,0.0,0.0,0.0,0.0,0.0,0.0,0.0,0.0,0.0,0.0,0.0,0.0,0.0,0.0,0.0,0.0,0.0,0.0,0.0,0.0,0.0,0.0,0.0,0.0,0.0,0.0,0.0,0.0,0.0,0.0,0.0,0.0,0.0,0.0,0.0,0.0,0.0,0.0,0.0,0.0,0.0,0.0,0.0,0.0,0.0,0.0,0.0,0.0,0.0,0.0,0.0,0.0,0.0,0.0,0.0,0.0,0.0,0.0,0.0,0.0,0.0,0.0,0.0,0.0,0.0,0.0,0.0,0.0,0.0,0.0,-0.9477,-1.0229,-1.1049,-1.1297,-1.0851,-0.9804,-0.9357,0.0,0.0,0.0,0.0,0.0,0.0,0.0,0.0,0.0,0.0,0.0,0.0,0.0,0.0,0.0,0.0,0.0,0.0,0.0,0.0,0.0,0.0,0.0,0.0,0.0,0.0,0.0,0.0,0.0,0.0,0.0,0.0,0.0,0.0,0.0,0.0,0.0,0.0,0.0,0.0,0.0,0.0,0.0,0.0,0.0,0.0,0.0,0.0,0.0,0.0,0.0,0.0,0.0,0.0,0.0,0.0,0.0,0.0,0.0,0.0,0.0,0.0,0.0,0.0,0.0,0.0,0.0,0.0,0.0,0.0,0.0,0.0,0.0,0.0,0.0,0.0,0.0,0.0,0.0,0.0,0.0,0.0,0.0,0.0,0.0,0.0,0.0,0.0,0.0,0.0,0.0,0.0,0.0,0.0,0.0,0.0,0.0,0.0,0.0,0.0,0.0,0.0,0.0,0.0,0.0,0.0,0.0,0.0,-0.953,-1.1075,-1.1277,-1.1493,-1.1738,-1.0651,-1.0145,0.0,0.0,0.0,0.0,0.0,0.0,0.0,0.0,0.0,0.0,0.0,0.0,0.0,0.0,0.0,0.0,0.0,0.0,0.0,0.0,0.0,0.0,0.0,0.0,0.0,0.0,0.0,0.0,0.0,0.0,0.0,0.0,0.0,0.0,0.0,0.0,0.0,0.0,0.0,0.0,0.0,0.0,0.0,0.0,0.0,0.0,0.0,0.0,0.0,0.0,0.0,0.0,0.0,0.0,0.0,0.0,0.0,0.0,0.0,0.0,0.0,0.0,0.0,0.0,0.0,0.0,0.0,0.0,0.0,0.0,0.0,0.0,0.0,0.0,0.0,0.0,0.0,0.0,0.0,0.0,0.0,0.0,0.0,0.0,0.0,0.0,0.0,0.0,0.0,0.0,0.0,0.0,0.0,0.0,0.0,0.0,0.0,0.0,0.0,0.0,0.0,0.0,0.0,0.0,0.0,0.0,0.0,0.0,-1.0065,-1.0542,-1.13,-1.1715,-1.1814,-1.1334,-1.1127,0.0,0.0,0.0,0.0,0.0,0.0,0.0,0.0,0.0,0.0,0.0,0.0,0.0,0.0,0.0,0.0,0.0,0.0,0.0,0.0,0.0,0.0,0.0,0.0,0.0,0.0,0.0,0.0,0.0,0.0,0.0,0.0,0.0,0.0,0.0,0.0,0.0,0.0,0.0,0.0,0.0,0.0,0.0,0.0,0.0,0.0,0.0,0.0,-1.1329,0.0,0.0,0.0,0.0,0.0,0.0,0.0,0.0,0.0,0.0,0.0,0.0,0.0,0.0,0.0,0.0,0.0,0.0,0.0,0.0,0.0,0.0,0.0,0.0,0.0,0.0,0.0,0.0,0.0,0.0,0.0,0.0,0.0,0.0,0.0,0.0,0.0,0.0,0.0,0.0,0.0,0.0,0.0,0.0,0.0,0.0,0.0,0.0,0.0,0.0,0.0,0.0,0.0,0.0,0.0,0.0,0.0,0.0,0.0,-1.0609,-1.1137,-1.1635,-1.2021,-1.2258,-1.2119,-1.1953,0.0,0.0,0.0,0.0,0.0,0.0,0.0,0.0,0.0,0.0,0.0,0.0,0.0,0.0,0.0,0.0,0.0,0.0,0.0,0.0,0.0,0.0,0.0,0.0,0.0,0.0,0.0,0.0,0.0,0.0,0.0,0.0,0.0,0.0,0.0,0.0,0.0,0.0,0.0,0.0,0.0,0.0,0.0,0.0,0.0,0.0,0.0,0.0,0.0,0.0,0.0,0.0,0.0,0.0,0.0,0.0,0.0,0.0,0.0,0.0,0.0,0.0,0.0,0.0,0.0,0.0,0.0,0.0,0.0,0.0,0.0,0.0,0.0,0.0,0.0,0.0,0.0,0.0,0.0,0.0,0.0,0.0,0.0,0.0,0.0,0.0,0.0,0.0,0.0,0.0,0.0,0.0,0.0,0.0,0.0,0.0,0.0,0.0,0.0,0.0,0.0,0.0,0.0,0.0,0.0,0.0,0.0,-1.015,-1.1002,-1.1931,-1.2098,-1.2335,-1.2764,-1.2861,-1.2702,-1.2146,0.0,0.0,0.0,0.0,0.0,0.0,0.0,0.0,0.0,0.0,0.0,0.0,0.0,0.0,0.0,0.0,0.0,0.0,0.0,0.0,0.0,0.0,0.0,0.0,0.0,0.0,0.0,0.0,0.0,0.0,0.0,0.0,0.0,0.0,0.0,0.0,0.0,0.0,-1.002,-1.1587,0.0,0.0,0.0,0.0,0.0,0.0,0.0,0.0,-1.232,0.0,0.0,0.0,0.0,0.0,0.0,0.0,0.0,0.0,0.0,0.0,0.0,0.0,0.0,0.0,0.0,0.0,0.0,0.0,0.0,0.0,0.0,0.0,0.0,0.0,0.0,0.0,0.0,0.0,0.0,0.0,0.0,0.0,0.0,0.0,0.0,0.0,0.0,0.0,0.0,0.0,0.0,0.0,0.0,0.0,0.0,0.0,0.0,0.0,0.0,0.0,0.0,0.0,0.0,0.0,0.0,-1.0643,-1.0456,-1.0867,-1.1972,-1.2433,-1.2725,-1.2812,-1.3218,-1.3094,-1.2285,0.0,0.0,0.0,0.0,0.0,0.0,0.0,0.0,0.0,0.0,0.0,0.0,0.0,0.0,0.0,0.0,0.0,0.0,0.0,0.0,0.0,0.0,0.0,0.0,0.0,0.0,0.0,0.0,0.0,0.0,0.0,0.0,0.0,0.0,0.0,0.0,0.0,0.0,0.0,-1.3965,-1.4941,0.0,0.0,0.0,0.0,0.0,0.0,0.0,0.0,-1.3178,0.0,0.0,0.0,0.0,0.0,0.0,0.0,0.0,0.0,0.0,0.0,0.0,0.0,0.0,0.0,0.0,0.0,0.0,0.0,0.0,0.0,0.0,0.0,0.0,0.0,0.0,0.0,0.0,0.0,0.0,0.0,0.0,0.0,0.0,0.0,0.0,0.0,0.0,0.0,0.0,0.0,0.0,0.0,0.0,0.0,0.0,0.0,0.0,0.0,0.0,0.0,0.0,0.0,0.0,0.0,-1.0234,-1.1148,-1.1873,-1.2404,-1.2919,-1.3218,-1.3208,-1.3232,-1.2937,0.0,0.0,0.0,0.0,0.0,0.0,0.0,0.0,0.0,0.0,0.0,0.0,0.0,0.0,0.0,0.0,0.0,0.0,0.0,0.0,0.0,0.0,0.0,0.0,0.0,0.0,0.0,0.0,0.0,0.0,0.0,0.0,0.0,0.0,0.0,0.0,0.0,0.0,0.0,0.0,-1.445,-1.537,-1.6019,0.0,0.0,0.0,0.0,0.0,0.0,-1.4485,-1.4327,0.0,0.0,0.0,0.0,0.0,0.0,0.0,0.0,0.0,0.0,0.0,0.0,0.0,0.0,0.0,0.0,0.0,0.0,0.0,0.0,0.0,0.0,0.0,0.0,0.0,0.0,0.0,0.0,0.0,0.0,0.0,0.0,0.0,0.0,0.0,0.0,0.0,0.0,0.0,0.0,0.0,0.0,0.0,0.0,0.0,0.0,0.0,0.0,0.0,0.0,0.0,0.0,0.0,0.0,0.0,-0.9804,-1.1679,-1.2732,-1.2948,-1.3362,-1.361,-1.361,-1.3305,-1.2816,0.0,0.0,0.0,0.0,0.0,0.0,0.0,0.0,0.0,0.0,0.0,0.0,0.0,0.0,0.0,0.0,0.0,0.0,0.0,0.0,0.0,0.0,0.0,0.0,0.0,0.0,0.0,0.0,0.0,0.0,0.0,0.0,0.0,0.0,0.0,0.0,0.0,0.0,0.0,0.0,0.0,-1.6023,-1.7055,-1.6272,0.0,0.0,0.0,0.0,-1.5771,-1.5845,0.0,0.0,0.0,0.0,0.0,0.0,0.0,0.0,0.0,0.0,0.0,0.0,0.0,0.0,0.0,0.0,0.0,0.0,0.0,0.0,0.0,0.0,0.0,0.0,0.0,0.0,0.0,0.0,0.0,0.0,0.0,0.0,0.0,0.0,0.0,0.0,0.0,0.0,0.0,0.0,0.0,0.0,0.0,0.0,0.0,0.0,0.0,0.0,0.0,0.0,0.0,0.0,0.0,0.0,0.0,0.0,-1.0263,-1.1474,-1.2544,-1.3474,-1.3563,-1.3658,-1.3763,-1.3711,-1.3083,0.0,0.0,0.0,0.0,0.0,0.0,0.0,0.0,0.0,0.0,0.0,0.0,0.0,0.0,0.0,0.0,0.0,0.0,0.0,0.0,0.0,0.0,0.0,0.0,0.0,0.0,0.0,0.0,0.0,0.0,0.0,0.0,0.0,0.0,0.0,0.0,0.0,0.0,0.0,0.0,0.0,-1.8502,-1.7364,-1.7758,-1.7899,0.0,0.0,-1.7408,-1.7795,-1.7678,0.0,0.0,0.0,0.0,0.0,0.0,0.0,0.0,0.0,0.0,0.0,0.0,0.0,0.0,0.0,0.0,0.0,0.0,0.0,0.0,0.0,0.0,0.0,0.0,0.0,0.0,0.0,0.0,0.0,0.0,0.0,0.0,0.0,0.0,0.0,0.0,0.0,0.0,0.0,0.0,0.0,0.0,0.0,0.0,0.0,0.0,0.0,0.0,0.0,0.0,0.0,0.0,0.0,0.0,0.0,-0.9522,-1.0812,-1.2359,-1.3376,-1.38,-1.3821,-1.3879,-1.3915,-1.3662,-1.2985,0.0,0.0,0.0,0.0,0.0,0.0,0.0,0.0,0.0,0.0,0.0,0.0,0.0,0.0,0.0,0.0,0.0,0.0,0.0,0.0,0.0,0.0,0.0,0.0,0.0,0.0,0.0,0.0,0.0,0.0,0.0,0.0,0.0,0.0,0.0,0.0,0.0,0.0,0.0,0.0,0.0,0.0,-1.8599,-1.8678,0.0,0.0,0.0,-1.8822,-1.8731,0.0,0.0,0.0,0.0,0.0,0.0,0.0,0.0,0.0,0.0,0.0,0.0,0.0,0.0,0.0,0.0,0.0,0.0,0.0,0.0,0.0,0.0,0.0,0.0,0.0,0.0,0.0,0.0,0.0,0.0,0.0,0.0,0.0,0.0,0.0,0.0,0.0,0.0,0.0,0.0,0.0,0.0,0.0,0.0,0.0,0.0,0.0,0.0,0.0,0.0,0.0,0.0,0.0,0.0,0.0,0.0,0.0,-1.1267,-1.3116,-1.402,-1.402,-1.402,-1.401,-1.4057,-1.3704,0.0,0.0,0.0,0.0,0.0,0.0,0.0,0.0,0.0,0.0,0.0,0.0,0.0,0.0,0.0,0.0,0.0,0.0,0.0,0.0,0.0,0.0,0.0,0.0,0.0,0.0,0.0,-0.7091,0.0,0.0,0.0,0.0,0.0,0.0,0.0,0.0,0.0,0.0,0.0,0.0,0.0,0.0,-1.882,-1.9713,-1.9768,-1.9844,0.0,0.0,-2.0234,-1.9738,-2.0146,-1.9924,0.0,0.0,0.0,0.0,0.0,0.0,0.0,0.0,0.0,0.0,0.0,0.0,0.0,0.0,0.0,0.0,0.0,0.0,0.0,0.0,0.0,0.0,0.0,0.0,0.0,0.0,0.0,0.0,0.0,0.0,0.0,0.0,0.0,0.0,0.0,0.0,0.0,0.0,0.0,0.0,0.0,0.0,0.0,0.0,0.0,0.0,0.0,0.0,0.0,0.0,0.0,0.0,0.0,0.0,0.0,-1.177,-1.3354,-1.414,-1.402,-1.402,-1.4057,-1.4176,-1.4143,-1.3259,0.0,0.0,0.0,0.0,0.0,0.0,0.0,0.0,0.0,0.0,0.0,0.0,0.0,0.0,0.0,0.0,0.0,0.0,0.0,0.0,0.0,0.0,0.0,0.0,0.0,0.0,0.0,0.0,0.0,0.0,0.0,0.0,0.0,0.0,0.0,0.0,0.0,0.0,0.0,0.0,0.0,-2.0712,-2.0312,-2.1316,-2.2101,0.0,0.0,-2.1894,-2.1228,-2.1209,-2.0547,-1.8498,0.0,0.0,0.0,0.0,0.0,0.0,0.0,0.0,0.0,0.0,0.0,0.0,0.0,0.0,0.0,0.0,0.0,0.0,0.0,0.0,0.0,0.0,0.0,0.0,0.0,0.0,0.0,0.0,0.0,0.0,0.0,0.0,0.0,0.0,0.0,0.0,0.0,0.0,0.0,0.0,0.0,0.0,0.0,0.0,0.0,0.0,0.0,0.0,0.0,0.0,0.0,0.0,0.0,-1.0594,-1.1972,-1.3553,-1.428,-1.4244,-1.4244,-1.428,-1.4326,-1.4316,-1.3554,0.0,0.0,0.0,0.0,0.0,0.0,0.0,0.0,0.0,0.0,0.0,0.0,0.0,0.0,0.0,0.0,0.0,0.0,0.0,0.0,0.0,0.0,0.0,0.0,0.0,0.0,0.0,0.0,-0.9403,-0.9742,-1.0093,0.0,0.0,0.0,0.0,0.0,0.0,0.0,0.0,0.0,0.0,-2.0594,-2.0531,-2.1537,0.0,0.0,-2.2655,-2.2671,-2.2009,-2.1938,-2.1362,-1.9762,-1.9146,0.0,0.0,0.0,0.0,0.0,0.0,0.0,0.0,0.0,0.0,0.0,0.0,0.0,0.0,0.0,0.0,0.0,0.0,0.0,0.0,0.0,0.0,0.0,0.0,0.0,0.0,0.0,0.0,0.0,0.0,0.0,0.0,0.0,0.0,0.0,0.0,0.0,0.0,0.0,0.0,0.0,0.0,0.0,0.0,0.0,0.0,0.0,0.0,0.0,0.0,0.0,0.0,-1.087,-1.2308,-1.3673,-1.443,-1.443,-1.443,-1.443,-1.443,-1.443,-1.3772,0.0,0.0,0.0,0.0,0.0,0.0,0.0,0.0,0.0,0.0,0.0,0.0,0.0,0.0,0.0,0.0,0.0,0.0,0.0,0.0,0.0,0.0,0.0,0.0,0.0,0.0,0.0,0.0,-1.0389,-1.081,-1.1498,0.0,0.0,0.0,0.0,0.0,0.0,0.0,0.0,0.0,0.0,-2.1044,-2.144,-2.2317,-2.2902,-2.2902,-2.3117,-2.3055,-2.2394,-2.2286,-2.1763,-2.0258,0.0,0.0,0.0,0.0,0.0,0.0,0.0,0.0,0.0,0.0,0.0,0.0,0.0,0.0,0.0,0.0,0.0,0.0,0.0,0.0,0.0,0.0,0.0,0.0,0.0,0.0,0.0,0.0,0.0,0.0,-0.4487,0.0,0.0,0.0,0.0,0.0,0.0,0.0,0.0,0.0,0.0,0.0,0.0,0.0,0.0,0.0,0.0,0.0,0.0,0.0,0.0,0.0,0.0,-1.1383,-1.2742,-1.3837,-1.443,-1.443,-1.443,-1.443,-1.443,-1.443,-1.3914,-1.2909,0.0,0.0,0.0,0.0,0.0,0.0,0.0,0.0,0.0,0.0,0.0,0.0,0.0,0.0,0.0,0.0,0.0,0.0,0.0,0.0,0.0,0.0,0.0,0.0,0.0,0.0,-0.9684,-1.0386,-1.1258,0.0,0.0,0.0,0.0,0.0,0.0,0.0,0.0,0.0,0.0,-2.1393,-2.2501,-2.3132,-2.3825,-2.421,-2.4225,-2.3702,-2.3086,-2.244,-2.2301,-2.1645,0.0,0.0,0.0,0.0,0.0,0.0,0.0,0.0,0.0,0.0,0.0,0.0,0.0,0.0,0.0,0.0,0.0,0.0,0.0,0.0,0.0,0.0,0.0,0.0,0.0,0.0,0.0,-0.6277,-0.5976,0.0,0.0,0.0,0.0,0.0,0.0,0.0,0.0,0.0,0.0,0.0,-1.1523,-1.248,0.0,0.0,0.0,0.0,0.0,0.0,0.0,0.0,0.0,0.0,0.0,0.0,-1.1404,-1.2815,-1.3892,-1.443,-1.443,-1.443,-1.443,-1.443,-1.4697,-1.4378,-1.34,0.0,0.0,0.0,0.0,0.0,0.0,0.0,0.0,0.0,0.0,0.0,0.0,0.0,0.0,0.0,0.0,0.0,0.0,0.0,0.0,0.0,0.0,0.0,0.0,0.0,-1.0707,0.0,0.0,0.0,0.0,0.0,0.0,0.0,0.0,0.0,0.0,0.0,-1.9449,-2.0227,-2.1824,-2.304,-2.3271,-2.3871,-2.4302,0.0,0.0,0.0,0.0,0.0,0.0,0.0,0.0,0.0,0.0,0.0,0.0,0.0,0.0,-2.3223,-2.0241,-1.9264,-1.895,-1.8981,0.0,0.0,0.0,0.0,0.0,0.0,0.0,0.0,0.0,0.0,0.0,0.0,0.0,0.0,-0.7982,0.0,-0.7783,0.0,0.0,0.0,0.0,0.0,0.0,0.0,0.0,-1.2843,-1.3627,-1.344,-1.4329,-1.4312,0.0,-1.3226,-1.2246,0.0,0.0,0.0,0.0,0.0,0.0,0.0,0.0,-1.1866,-1.3129,-1.398,-1.443,-1.443,-1.4558,-1.4651,-1.4651,-1.5153,-1.5107,-1.4461,-1.3615,-1.2675,0.0,0.0,0.0,0.0,0.0,0.0,0.0,0.0,0.0,0.0,0.0,0.0,0.0,0.0,0.0,0.0,0.0,0.0,0.0,0.0,0.0,0.0,0.0,-1.1932,0.0,0.0,0.0,0.0,0.0,0.0,0.0,0.0,0.0,-1.7607,-1.9129,-2.0604,-2.1563,-2.2624,-2.3456,-2.3933,0.0,0.0,0.0,0.0,0.0,0.0,0.0,-2.3409,-2.3609,-2.3832,-2.4108,-2.4438,-2.5671,-2.668,-2.6875,0.0,0.0,-2.2804,-2.1791,-2.1455,-2.1487,-2.2135,-2.2686,-2.2718,-2.3374,-2.3835,0.0,0.0,0.0,0.0,0.0,0.0,0.0,0.0,-0.9744,-0.9888,0.0,-0.9826,0.0,0.0,0.0,0.0,0.0,-1.1562,0.0,0.0,-1.4499,-1.54,-1.5774,-1.5785,-1.5847,-1.5826,-1.5384,-1.4671,-1.3707,-1.191,0.0,0.0,0.0,0.0,0.0,0.0,-1.2754,-1.3707,-1.4257,-1.4488,-1.4466,-1.4937,-1.5165,-1.5153,-1.5724,-1.6033,-1.603,-1.5453,-1.4488,-1.3043,-1.1366,0.0,0.0,0.0,0.0,0.0,0.0,0.0,0.0,0.0,0.0,0.0,0.0,0.0,0.0,0.0,0.0,0.0,0.0,0.0,0.0,-1.2717,0.0,0.0,0.0,0.0,0.0,0.0,0.0,0.0,0.0,0.0,-2.0335,-2.0474,-2.1362,-2.3933,0.0,0.0,0.0,0.0,-2.5349,-2.5349,-2.5349,-2.5305,-2.5305,-2.5318,-2.5087,-2.4513,0.0,0.0,-2.686,-2.7427,-2.784,-2.7483,-2.7717,-2.7599,-2.6795,-2.5431,-2.4538,-2.4557,-2.4873,-2.5162,-2.5262,-2.5967,-2.6657,-1.2234,0.0,0.0,0.0,0.0,-1.088,-1.1169,-1.1829,-1.1693,-1.1348,-1.084,-1.0811,0.0,0.0,0.0,0.0,0.0,0.0,-1.3653,-1.4505,-1.5582,-1.6302,-1.6643,-1.6655,-1.6748,-1.6933,-1.6496,-1.6109,-1.5813,-1.5302,-1.3437,-1.0441,0.0,0.0,0.0,0.0,-1.3707,-1.4576,-1.5415,-1.5798,-1.5644,-1.617,-1.6418,-1.6337,-1.6497,-1.6718,-1.706,-1.652,-1.5847,-1.4981,-1.365,0.0,0.0,0.0,0.0,0.0,0.0,0.0,0.0,0.0,0.0,0.0,0.0,0.0,0.0,0.0,0.0,0.0,0.0,0.0,-1.3344,-1.3336,-1.3575,0.0,0.0,0.0,0.0,0.0,0.0,0.0,0.0,0.0,-2.3009,-2.3148,-2.344,0.0,0.0,-2.5456,-2.5333,-2.5718,-2.6041,-2.6072,-2.6057,0.0,0.0,-2.5626,-2.554,-2.6204,-2.7418,-2.8556,-2.928,-2.9593,-2.9798,-3.0017,-2.9727,-2.9381,-2.9059,-2.7632,-2.6541,-2.6531,-2.6799,-2.7229,-2.7769,-2.8144,-2.8332,-1.4328,-1.3396,-1.2824,-1.2796,-1.2992,-1.2752,-1.3086,-1.3858,-1.3828,-1.3637,-1.3406,-1.3331,-1.2829,-1.2019,-1.1806,0.0,0.0,0.0,-1.5055,-1.5857,-1.6777,-1.7407,-1.7761,-1.7761,-1.7827,-1.7943,-1.7306,-1.6961,-1.6961,-1.7053,-1.5752,-1.3191,0.0,0.0,-1.3453,-1.4305,-1.5181,-1.6066,-1.6708,-1.6971,-1.6823,-1.7135,-1.7244,-1.717,-1.7144,-1.731,-1.7652,-1.733,-1.6874,-1.6308,-1.582,-1.4564,0.0,0.0,0.0,0.0,0.0,0.0,0.0,0.0,0.0,0.0,0.0,-0.958,0.0,0.0,0.0,0.0,-1.221,-1.3534,-1.4858,-1.4883,0.0,0.0,0.0,0.0,0.0,0.0,0.0,-2.1383,-2.2847,-2.4169,-2.5243,-2.5633,-2.5718,-2.5561,-2.6026,-2.6334,-2.6164,0.0,-2.7128,-2.7484,-2.7635,-2.7881,-2.8446,-2.7753,-2.7517,-2.8678,-2.9447,-3.0168,-3.1016,-3.1215,-3.1197,-3.1145,-3.0835,-3.0548,-3.0531,-2.9563,-2.8574,-2.8092,-2.8356,-2.8854,-2.9364,-2.9651,-2.9871,-1.6287,-1.6646,-1.5411,-1.4833,-1.4726,-1.4726,-1.5006,-1.5469,-1.5868,-1.6311,-1.6694,-1.6546,-1.6148,-1.5477,-1.5012,0.0,-1.5406,-1.6137,-1.6721,-1.7258,-1.7981,-1.8562,-1.8999,-1.9011,-1.9011,-1.9044,-1.8109,-1.7711,-1.7752,-1.7894,-1.7592,-1.6902,-1.6336,-1.5989,-1.5937,-1.6281,-1.6978,-1.7974,-1.8024,-1.8024,-1.8022,-1.7874,-1.7774,-1.7733,-1.772,-1.776,-1.7868,-1.7922,-1.7638,-1.7109,-1.7623,-1.6599,-1.3792,0.0,0.0,0.0,0.0,0.0,0.0,0.0,0.0,0.0,0.0,0.0,0.0,0.0,0.0,0.0,-1.5426,0.0,-1.6348,-1.693,0.0,0.0,0.0,-1.8919,-1.9632,-2.1834,-2.3375,-2.3537,0.0,0.0,-2.7148,-2.7862,-2.8176,-2.7721,-2.7087,-2.6901,-2.7489,-2.7964,-2.8592,-2.9353,-2.972,-3.0425,-3.138,-3.0668,-3.0277,-3.1275,-3.1696,-3.185,-3.2259,-3.2256,-3.2002,-3.1461,-3.1241,-3.1173,-3.1173,-3.1072,-3.0784,-2.9414,-2.9719,-3.0176,-3.0226,-3.0688,-3.1116,-1.8682,-1.8726,-1.8464,-1.7683,-1.6654,-1.6663,-1.6725,-1.6838,-1.6961,-1.687,-1.6711,-1.6667,-1.655,-1.639,-1.658,-1.7016,-1.7701,-1.7857,-1.8351,-1.9046,-1.9229,-1.9529,-1.9901,-1.9901,-2.0016,-2.0165,-2.0341,-2.0373,-2.0349,-2.0313,-2.0016,-1.9407,-1.9076,-1.8323,-1.7251,-1.7753,-1.828,-1.8806,-1.9269,-1.9422,-1.9269,-1.8802,-1.8311,-1.7855,-1.7828,-1.7882,-1.7882,-1.7922,-1.7828,-1.7718,-1.7813,-1.7278,-1.5963,-1.2904,0.0,0.0,0.0,0.0,0.0,0.0,0.0,0.0,0.0,-1.3667,-1.1235,0.0,-1.4531,0.0,-1.5703,-1.6609,-1.7623,-1.8155,0.0,0.0,-2.1375,-2.2568,-2.3278,-2.4818,-2.5837,-2.5883,-2.7211,-2.8204,-2.8382,-2.9479,-3.0209,-3.0057,-2.9419,-2.8933,-2.8853,-2.9617,-3.0497,-3.1189,-3.141,-3.1619,-3.1941,-3.2023,-3.2078,-3.2392,-3.2737,-3.2993,-3.3094,-3.2645,-3.2222,-3.2002,-3.1546,-3.1241,-3.1207,-3.119,-3.1106,-3.0751,-3.0818,-3.0937,-3.0954,-3.127,-3.16,-2.0361,-2.0563,-2.0563,-2.0193,-1.9641,-1.8711,-1.8416,-1.867,-1.8607,-1.853,-1.8315,-1.811,-1.806,-1.8052,-1.8293,-1.8622,-1.9056,-1.9183,-1.9506,-1.9971,-2.0311,-2.0547,-2.0736,-2.0736,-2.09,-2.1272,-2.1312,-2.14,-2.1597,-2.1699,-2.1485,-2.0926,-2.0924,-2.0412,-1.9364,-1.9377,-1.9675,-2.0094,-2.0448,-2.0449,-2.0035,-1.9483,-1.8886,-1.833,-1.8058,-1.7922,-1.7922,-1.7922,-1.7922,-1.7922,-1.7932,-1.7657,-1.7092,-1.4713,-1.3315,0.0,0.0,0.0,0.0,0.0,0.0,0.0,0.0,0.0,0.0,0.0,-1.6305,-1.6749,-1.7731,-1.8793,-2.0004,-2.0607,-2.1344,-2.2438,-2.3708,-2.4772,-2.5456,-2.6978,-2.7863,-2.7664,-2.9058,-3.0041,-3.0058,-3.1035,-3.1708,-3.1708,-3.1512,-3.115,-3.0629,-3.118,-3.197,-3.2676,-3.2681,-3.2618,-3.2602,-3.3123,-3.35,-3.3517,-3.3734,-3.3897,-3.388,-3.3558,-3.3169,-3.2831,-3.2442,-3.207,-3.1749,-3.1664,-3.1619,-3.1475,-3.1428,-3.1428,-3.1428,-3.1748,-3.195,-2.1702,-2.2138,-2.2127,-2.2412,-2.2705,-2.0864,-2.0216,-2.0486,-2.0564,-2.064,-2.0588,-2.0104,-1.9897,-1.9897,-1.9897,-1.9897,-1.9957,-2.0264,-2.0405,-2.0488,-2.1176,-2.1572,-2.162,-2.156,-2.1834,-2.2243,-2.1895,-2.1893,-2.2282,-2.2614,-2.2525,-2.2048,-2.2264,-2.2129,-2.1483,-2.1016,-2.0928,-2.1396,-2.141,-2.1077,-2.0495,-1.9985,-1.9402,-1.882,-1.8262,-1.7989,-1.8003,-1.8029,-1.8083,-1.8043,-1.8069,-1.7979,-1.7808,-1.6298,-1.5609,0.0,-1.468,0.0,0.0,0.0,0.0,0.0,0.0,0.0,0.0,-1.7699,-1.8297,-1.9204,-2.0448,-2.1632,-2.2671,-2.3405,-2.4141,-2.4893,-2.5677,-2.6449,-2.7126,-2.8682,-2.9582,-2.9181,-3.0599,-3.1715,-3.1682,-3.2397,-3.2929,-3.2973,-3.3326,-3.3316,-3.2702,-3.2755,-3.3178,-3.391,-3.3839,-3.3734,-3.3777,-3.4226,-3.458,-3.4641,-3.4641,-3.4641,-3.4658,-3.4523,-3.4252,-3.3694,-3.3406,-3.316,-3.2591,-3.253,-3.2412,-3.2248,-3.2293,-3.2171,-3.1893,-3.2109,-3.2351,-2.3337,-2.3416,-2.3482,-2.3482,-2.3537,-2.3124,-2.2465,-2.1624,-2.2102,-2.1999,-2.156,-2.1152,-2.0934,-2.0934,-2.0934,-2.1058,-2.1307,-2.1369,-2.1566,-2.1836,-2.1993,-2.2286,-2.2578,-2.2639,-2.2867,-2.3293,-2.3599,-2.3791,-2.3835,-2.3848,-2.3784,-2.3609,-2.3243,-2.2766,-2.2169,0.0,0.0,0.0,-2.141,-2.1138,-2.0495,-1.9985,-1.9402,-1.8833,-1.8533,0.0,-1.8397,-1.8707,-1.8874,-1.8874,-1.8874,0.0,0.0,0.0,0.0,0.0,0.0,0.0,0.0,0.0,0.0,0.0,-1.9327,-1.9311,-1.8192,-2.0327,-2.18,-2.1827,-2.2524,-2.3353,-2.4137,-2.5086,-2.5988,-2.677,-2.8256,-2.9311,-2.9496,-3.0275,-3.083,-3.079,-3.1571,-3.215,-3.2285,-3.3296,-3.4122,-3.4172,-3.4766,-3.5076,-3.4925,-3.4387,-3.4442,-3.5082,-3.5093,-3.5148,-3.5199,-3.5239,-3.5334,-3.5402,-3.5402,-3.5402,-3.5334,-3.4861,-3.4506,-3.4269,-3.3812,-3.3515,-3.3642,-3.3687,-3.3753,-3.4051,-3.4306,-3.4057,-3.2564,-3.2486,-3.2699,-2.4518,0.0,-2.453,-2.453,0.0,-2.453,-2.4014,-2.3167,-2.3258,-2.3117,-2.2791,-2.261,-2.2504,-2.2504,-2.2504,-2.2568,-2.2738,-2.273,-2.2809,-2.2934,-2.2898,-2.3005,-2.3245,-2.3245,-2.3471,-2.3943,-2.4176,-2.4408,-2.4637,-2.4581,-2.4422,-2.4123,-2.3771,-2.3324,-2.2766,-2.2454,-2.2007,-2.1375,-2.141,-2.1274,-2.0928,-2.0419,-1.9912,-1.957,0.0,0.0,0.0,0.0,0.0,0.0,0.0,0.0,0.0,0.0,0.0,-2.0194,-1.8563,-1.7578,-1.773,-1.8346,-1.9162,-2.0212,-2.1588,-2.1922,-2.0876,-2.2287,-2.3492,-2.4263,-2.4659,-2.5353,-2.6623,-2.727,-2.7897,-2.8636,-2.9559,-3.0243,-3.0615,-3.0954,-3.1343,-3.1732,-3.2374,-3.2949,-3.3339,-3.432,-3.4996,-3.5064,-3.5368,-3.5639,-3.5605,-3.5301,-3.5233,-3.5509,-3.5639,-3.5622,-3.5639,-3.5639,-3.5639,-3.5622,-3.5639,-3.5639,-3.5639,-3.5301,-3.5047,-3.503,-3.4742,-3.4516,-3.4547,-3.4582,-3.4658,-3.487,-3.5065,-3.5057,-3.4133,-3.4171,-3.4285,-2.5312,-2.5312,-2.5312,-2.5312,-2.5312,-2.5312,-2.5059,-2.4626,0.0,0.0,0.0,-2.3809,-2.3827,-2.3959,-2.3971,-2.4025,-2.4054,-2.4,-2.3991,-2.4029,-2.392,-2.3944,-2.4051,-2.3948,-2.4145,-2.4553,-2.4461,-2.465,-2.5005,-2.5005,-2.4761,-2.4313,-2.4286,-2.3974,-2.3351,-2.278,-2.2169,-2.1599,-2.1429,-2.141,-2.141,-2.0887,-2.0584,-2.0469,-2.0034,-1.9749,-1.9578,-1.9625,-1.9604,-1.9486,-1.9501,-1.9538,-1.9639,-1.9852,-2.0167,-2.0624,-2.0659,-2.0694,-2.0763,-2.129,-2.1719,-2.192,-2.3412,-2.4156,-2.3797,-2.4011,-2.4788,-2.6362,-2.6614,-2.7372,-2.9042,-2.9178,-2.9482,-3.0209,-3.0294,-3.0548,-3.1106,-3.1326,-3.163,-3.228,-3.3051,-3.3812,-3.437,-3.5098,-3.5639,-3.5622,-3.5605,-3.5639,-3.5639,-3.5588,-3.5571,-3.5622,-3.5639,-3.5639,-3.5639,-3.5639,-3.5639,-3.5639,-3.5639,-3.5639,-3.5639,-3.5639,-3.5622,-3.5671,-3.5739,-3.5694,-3.5636,-3.564,-3.5626,-3.5721,-3.5751,-3.5818,-3.6121,-3.6236,-3.6096,-2.5312,-2.5312,-2.5312,-2.5312,-2.5312,-2.5312,-2.5264,-2.5119,-2.4181,-2.4013,-2.4386,-2.3953,-2.4025,-2.4471,-2.4471,-2.4718,-2.5167,-2.5141,-2.5179,-2.5179,-2.5152,-2.5363,-2.5709,-2.5208,-2.5209,-2.5608,-2.5135,-2.4935,-2.5005,-2.5005,-2.4951,-2.4883,-2.4883,-2.4584,-2.3947,-2.3365,-2.2807,-2.2183,-2.1681,-2.141,-2.141,-2.1259,-2.1184,-2.1161,-2.1316,-2.1391,-2.1326,-2.1622,-2.1568,-2.1017,-2.0987,-2.0746,-2.0231,-2.0752,-2.1357,-2.1947,-2.2009,-2.218,-2.2512,-2.2607,-2.3231,-2.4459,-2.5335,-2.5535,-2.4978,-2.5986,-2.6942,-2.7532,-2.8176,-2.8955,-2.982,-2.9939,-3.0226,-3.0903,-3.1021,-3.1089,-3.1241,-3.1749,-3.2171,-3.2408,-3.3508,-3.4336,-3.4573,-3.5182,-3.5639,-3.5639,-3.5639,-3.5639,-3.5639,-3.5639,-3.5639,-3.5639,-3.5639,-3.5639,-3.5639,-3.5639,-3.5639,-3.5639,-3.5622,-3.5667,-3.5667,-3.5711,-3.5827,-3.6131,-3.6174,-3.6405,-3.692,-3.7198,-3.722,-3.741,-3.753,-3.7618,-3.7667,-3.7685,-3.7377,-2.5312,-2.5312,-2.5312,-2.5312,-2.5312,-2.5312,-2.5312,-2.5264,-2.4819,-2.4941,-2.5399,-2.5518,-2.5674,-2.5873,-2.594,-2.6006,-2.6257,-2.6207,-2.6205,-2.6179,-2.6192,-2.6246,-2.6417,-2.621,-2.6223,-2.6348,-2.5765,-2.5493,-2.5453,-2.5168,-2.5005,-2.5005,-2.5005,-2.4873,-2.4595,-2.4304,-2.4016,-2.3674,-2.2482,-2.1882,-2.1855,-2.1811,-2.1865,-2.2004,-2.2144,-2.2114,-2.2017,-2.221,-2.2147,-2.184,-2.1824,-2.1399,-2.04,-2.1249,-2.2313,-2.3271,-2.27,-2.2459,-2.2869,-2.3435,-2.4308,-2.5541,-2.6358,-2.6747,-2.657,-2.7157,-2.795,-2.8921,-2.9414,-2.9905,-3.0615,-3.07,-3.0835,-3.1157,-3.119,-3.136,-3.1749,-3.2053,-3.2594,-3.3355,-3.4066,-3.4641,-3.5064,-3.5402,-3.5622,-3.5639,-3.5639,-3.5639,-3.5639,-3.5639,-3.5622,-3.5639,-3.5639,-3.5639,-3.5639,-3.5639,-3.5639,-3.5639,-3.5827,-3.5958,-3.6002,-3.6114,-3.6374,-3.6557,-3.6638,-3.686,-3.7432,-3.7505,-3.7721,-3.8072,-3.8192,-3.8192,-3.8192,-3.8192,-3.7902,-2.5312,-2.5312,-2.5312,-2.5312,-2.53,-2.5453,-2.5523,-2.5523,-2.5779,-2.6151,-2.6564,-2.6756,-2.696,-2.7175,-2.7175,-2.7242,-2.7378,-2.7327,-2.7309,-2.7256,-2.7234,-2.7216,-2.7203,-2.7094,-2.7013,-2.6959,-2.6389,-2.6104,-2.6036,-2.5595,-2.5382,-2.5397,-2.537,-2.5409,-2.5398,-2.5384,-2.5292,-2.5023,-2.3794,-2.2999,-2.281,-2.278,-2.286,-2.3016,-2.299,-2.2909,-2.2778,-2.2732,-2.2671,-2.2532,-2.2517,-2.1988,-2.0878,-2.1889,-2.3118,-2.4277,-2.3521,-2.3099,-2.3615,-2.4639,-2.5598,-2.641,-2.7267,-2.7931,-2.8279,-2.8332,-2.8805,-2.9905,-3.0209,-3.062,-3.1038,-3.1173,-3.119,-3.119,-3.1343,-3.1681,-3.2229,-3.2584,-3.3169,-3.4303,-3.4624,-3.4996,-3.5453,-3.5639,-3.5639,-3.5639,-3.5639,-3.5639,-3.5639,-3.5639,-3.5622,-3.5711,-3.5667,-3.5639,-3.5622,-3.5711,-3.58,-3.5756,-3.6114,-3.6367,-3.6492,-3.6701,-3.6921,-3.6978,-3.7055,-3.7208,-3.7559,-3.7667,-3.7845,-3.814,-3.8192,-3.8192,-3.8192,-3.8192,-3.8174,-2.5312,-2.5312,-2.5312,-2.5312,-2.5382,-2.5873,-2.6151,-2.622,-2.7095,-2.7577,-2.7497,-2.6701,-2.6905,-2.763,-2.7709,-2.7973,-2.8392,-2.8468,-2.8414,-2.8414,-2.8451,-2.8424,-2.8379,-2.7881,-2.7623,-2.7556,-2.7087,-2.6788,-2.6808,-2.6632,-2.6551,-2.6539,-2.652,-2.6491,-2.6524,-2.6509,-2.6271,-2.5727,-2.5589,-2.5191,-2.4679,-2.4471,-2.4418,-2.4403,-2.4207,-2.4153,-2.4087,-2.4117,-2.3825,-2.3271,-2.3209,-2.2891,-2.2288,-2.2806,-2.3833,-2.5234,-2.491,-2.4968,-2.5743,-2.6868,-2.75,-2.767,-2.8397,-2.909,-2.9753,-2.9871,-2.9922,-3.0226,-3.0777,-3.1116,-3.1173,-3.119,-3.1224,-3.1326,-3.1765,-3.2263,-3.2476,-3.3474,-3.4353,-3.4438,-3.5064,-3.5509,-3.5605,-3.5622,-3.5622,-3.5667,-3.5756,-3.5739,-3.5711,-3.5739,-3.5854,-3.6045,-3.5932,-3.5711,-3.5694,-3.6002,-3.6156,-3.6259,-3.6557,-3.6781,-3.686,-3.6939,-3.6999,-3.7413,-3.745,-3.765,-3.7933,-3.8158,-3.8106,-3.814,-3.8192,-3.8192,-3.8192,-3.8192,-3.8192,-2.5931,-2.5382,-2.6,-2.6277,-2.6414,-2.6812,-2.6824,-2.6769,-2.755,-2.8012,-2.8091,-2.7829,-2.8078,-2.8573,-2.8573,-2.8844,-2.9162,-2.9162,-2.9162,-2.9162,-2.9226,-2.9226,-2.9198,-2.8927,-2.8789,-2.8796,-2.841,-2.8236,-2.8113,-2.7598,-2.7273,-2.7229,-2.6866,-2.6834,-2.7144,-2.7144,-2.7229,-2.7319,-2.7353,-2.7267,-2.6952,-2.5845,-2.5349,-2.559,-2.517,-2.4902,-2.4856,-2.4575,-2.4277,-2.4055,-2.4048,-2.39,-2.3508,-2.3844,-2.4563,-2.5582,-2.6168,-2.6587,-2.6931,-2.8026,-2.8696,-2.8696,-2.9431,-3.0011,-3.0245,-3.0782,-3.1056,-3.0993,-3.1138,-3.1213,-3.119,-3.119,-3.1343,-3.1765,-3.2104,-3.2652,-3.3541,-3.4117,-3.4641,-3.5081,-3.5419,-3.5622,-3.5667,-3.5827,-3.6002,-3.6028,-3.6199,-3.6266,-3.6088,-3.6199,-3.6433,-3.6597,-3.6474,-3.6392,-3.6374,-3.6498,-3.6638,-3.6719,-3.6978,-3.7246,-3.7283,-3.7541,-3.7739,-3.7898,-3.7898,-3.7933,-3.8122,-3.8192,-3.8192,-3.8225,-3.8192,-3.8192,-3.8192,-3.8192,-3.8192,-2.6564,-2.5931,-2.6688,-2.6973,-2.704,-2.743,-2.743,-2.731,-2.7881,-2.8287,-2.856,-2.8803,-2.9071,-2.9352,-2.9289,-2.9352,-2.9602,-2.9602,-2.9602,-2.9602,-2.9602,-2.9602,-2.9602,-2.9775,-2.9775,-2.9752,-2.9703,-2.9682,-2.9624,-2.8946,-2.8473,-2.821,-2.7736,-2.7643,-2.7795,-2.783,-2.8057,-2.8444,-2.8508,-2.8556,-2.8434,-2.7208,-2.6565,-2.6701,-2.6008,-2.5638,-2.5682,-2.5304,-2.5004,-2.4818,-2.4885,-2.4729,-2.444,-2.4623,-2.5211,-2.6216,-2.7361,-2.8005,-2.7988,-2.8983,-2.9622,-2.9674,-3.0309,-3.0737,-3.0802,-3.1325,-3.1634,-3.1517,-3.1533,-3.163,-3.1574,-3.1574,-3.1896,-3.2598,-3.2829,-3.3473,-3.4449,-3.4684,-3.5074,-3.5681,-3.582,-3.5827,-3.5985,-3.6266,-3.6451,-3.6474,-3.6701,-3.6821,-3.6557,-3.6719,-3.69,-3.7055,-3.7055,-3.7017,-3.6939,-3.7017,-3.7055,-3.717,-3.7395,-3.7685,-3.7685,-3.802,-3.8192,-3.8072,-3.8158,-3.8192,-3.8174,-3.8192,-3.8259,-3.8241,-3.8274,-3.8241,-3.8274,-3.8274,-3.8307,-2.696,-2.6973,-2.6973,-2.704,-2.704,-2.7643,-2.7855,-2.7842,-2.8379,-2.878,-2.9099,-2.9099,-2.9477,-2.9988,-2.9741,-2.9602,-2.9602,-2.9665,-2.9665,-2.9665,-2.9665,-2.9602,-2.9602,-3.004,-3.0269,-3.0389,-3.069,-3.0845,-3.084,-3.0743,-3.0334,-2.9524,-2.9515,-2.9257,-2.8664,-2.8651,-2.8747,-2.8747,-2.8763,-2.8794,-2.8794,-2.8654,-2.8186,-2.7641,-2.6851,-2.6494,-2.6582,-2.6611,-2.6283,-2.5701,-2.5696,-2.5373,-2.4748,-2.5029,-2.6,-2.7331,-2.8572,-2.9228,-2.9296,-2.9947,-3.0375,-3.046,-3.0991,-3.1432,-3.1384,-3.147,-3.1572,-3.1551,-3.2149,-3.2451,-3.2622,-3.2571,-3.2861,-3.3612,-3.4235,-3.4568,-3.4882,-3.5351,-3.5752,-3.6224,-3.6308,-3.6433,-3.6781,-3.6878,-3.6917,-3.69,-3.6939,-3.6939,-3.6939,-3.6939,-3.7132,-3.7395,-3.7469,-3.734,-3.7038,-3.7246,-3.7487,-3.7559,-3.7756,-3.8088,-3.8158,-3.8192,-3.8192,-3.8225,-3.8225,-3.8225,-3.8207,-3.8241,-3.8322,-3.8354,-3.8368,-3.8368,-3.8336,-3.8401,-3.8446,-2.8052,-2.7973,-2.7643,-2.7842,-2.8365,-2.8753,-2.8958,-2.9022,-2.9574,-2.9851,-2.9789,-2.9974,-3.0205,-3.0401,-3.0266,-3.0266,-3.028,-3.0266,-3.0205,-3.0266,-3.0568,-3.0687,-3.0732,-3.1116,-3.1349,-3.1392,-3.1664,-3.1982,-3.2137,-3.1705,-3.131,-3.1,-3.0585,-3.0089,-2.9495,-2.9434,-2.9231,-2.8857,-2.881,-2.8826,-2.8842,-2.8826,-2.8701,-2.8559,-2.7732,-2.7283,-2.7344,-2.7042,-2.6839,-2.6908,-2.6974,-2.6317,-2.5258,-2.682,-2.8076,-2.848,-2.9553,-3.0212,-3.0298,-3.09,-3.1276,-3.131,-3.1517,-3.1688,-3.1688,-3.1706,-3.1878,-3.2324,-3.2599,-3.3132,-3.3917,-3.3733,-3.3669,-3.4353,-3.4728,-3.5197,-3.5783,-3.6153,-3.6433,-3.6803,-3.6882,-3.7017,-3.7283,-3.7469,-3.7469,-3.745,-3.765,-3.765,-3.7487,-3.7595,-3.7846,-3.7967,-3.7967,-3.7915,-3.7845,-3.7845,-3.7967,-3.7967,-3.8088,-3.814,-3.8192,-3.8225,-3.8225,-3.8274,-3.8274,-3.8307,-3.8289,-3.8303,-3.8401,-3.8401,-3.8415,-3.8446,-3.8382,-3.8554,-3.8658,-2.878,-2.8716,-2.8509,-2.8702,-2.9289,-2.9491,-2.9602,-2.9665,-3.0083,-3.0219,-3.0172,-3.0341,-3.0522,-3.0582,-3.0642,-3.0687,-3.0821,-3.0687,-3.0687,-3.0866,-3.1176,-3.1336,-3.1567,-3.1936,-3.2089,-3.216,-3.2508,-3.2812,-3.2958,-3.2504,-3.216,-3.1857,-3.144,-3.0942,-3.0313,-3.0203,-2.9923,-2.939,-2.9265,-2.9203,-2.9029,-2.8905,-2.8967,-2.9028,-2.8632,-2.8304,-2.8183,-2.7952,-2.7833,-2.7978,-2.8176,-2.7653,-2.6721,-2.8777,-3.0048,-2.9721,-3.0503,-3.1041,-3.1093,-3.1524,-3.18,-3.18,-3.18,-3.18,-3.18,-3.2007,-3.2403,-3.2835,-3.3592,-3.438,-3.5057,-3.5144,-3.5151,-3.552,-3.5607,-3.5966,-3.6716,-3.6825,-3.6981,-3.7285,-3.7524,-3.7685,-3.7897,-3.7948,-3.7948,-3.7931,-3.837,-3.8497,-3.809,-3.8592,-3.8891,-3.8813,-3.9016,-3.9127,-3.9184,-3.9275,-3.8572,-3.8427,-3.8373,-3.837,-3.8404,-3.8368,-3.8295,-3.8325,-3.8354,-3.8368,-3.8401,-3.8415,-3.8446,-3.8478,-3.8528,-3.8559,-3.8634,-3.8778,-3.8961,-2.9099,-2.9099,-2.9477,-2.954,-2.9602,-2.9617,-2.9602,-2.9665,-2.9727,-2.9927,-3.0172,-3.0172,-3.0462,-3.0642,-3.0747,-3.094,-3.1161,-3.0925,-3.0925,-3.1263,-3.1394,-3.161,-3.1936,-3.2382,-3.2602,-3.2602,-3.3065,-3.324,-3.324,-3.3161,-3.2809,-3.2269,-3.2262,-3.1817,-3.0992,-3.1092,-3.0826,-3.029,-3.018,-2.9848,-2.9232,-2.917,-2.9154,-2.9167,-2.9451,-2.9448,-2.9104,-2.9492,-2.9383,-2.899,-2.9222,-2.9287,-2.9191,-3.0629,-3.1433,-3.0884,-3.1369,-3.1714,-3.1748,-3.1765,-3.18,-3.1817,-3.1834,-3.1975,-3.2098,-3.2599,-3.3049,-3.3491,-3.4571,-3.5706,-3.594,-3.6661,-3.7053,-3.6981,-3.6897,-3.7159,-3.7342,-3.734,-3.7377,-3.7791,-3.8083,-3.8332,-3.8364,-3.835,-3.8387,-3.8605,-3.9006,-3.9312,-3.89,-3.9698,-4.0206,-3.9951,-3.9935,-4.0136,-4.0461,-4.0662,-3.9649,-3.8873,-3.8767,-3.8712,-3.8852,-3.8852,-3.874,-3.8733,-3.8506,-3.8519,-3.8528,-3.8559,-3.8683,-3.8713,-3.8713,-3.8785,-3.897,-3.9146,-3.9383,-2.9429,-2.9491,-2.954,-2.9741,-2.9927,-2.9927,-3.0036,-3.0266,-3.0266,-3.0341,-3.0522,-3.0762,-3.0999,-3.1102,-3.1364,-3.1595,-3.1724,-3.1537,-3.1595,-3.1766,-3.2048,-3.2201,-3.2437,-3.2888,-3.3081,-3.3118,-3.324,-3.3293,-3.3293,-3.3293,-3.3114,-3.2972,-3.2977,-3.2613,-3.1915,-3.1918,-3.1602,-3.0986,-3.0891,-3.0543,-2.9911,-2.9864,-2.9751,-2.9608,-2.9705,-2.9837,-3.0038,-3.0208,-3.0303,-3.0356,-3.0476,-3.0666,-3.0994,-3.1485,-3.166,-3.1524,-3.1645,-3.18,-3.18,-3.18,-3.18,-3.1903,-3.2248,-3.2656,-3.3017,-3.3682,-3.4423,-3.5047,-3.5616,-3.5953,-3.6825,-3.7417,-3.7649,-3.7358,-3.7377,-3.7596,-3.7861,-3.805,-3.8303,-3.8401,-3.8546,-3.8578,-3.8528,-3.8528,-3.8766,-3.9246,-3.9593,-3.9739,-4.0196,-4.0529,-4.0821,-4.0635,-4.0839,-4.1076,-4.1275,-4.1384,-4.0842,-4.0117,-3.9829,-3.9504,-3.9519,-3.9462,-3.9331,-3.915,-3.8889,-3.8744,-3.8738,-3.8773,-3.8902,-3.9017,-3.9082,-3.92,-3.935,-3.9526,-3.9693,-2.9803,-2.9803,-2.9913,-3.0097,-3.028,-3.028,-3.0416,-3.0582,-3.0642,-3.0687,-3.094,-3.1176,-3.1379,-3.1552,-3.1766,-3.1992,-3.2145,-3.2145,-3.2256,-3.2382,-3.2477,-3.2711,-3.2888,-3.3134,-3.3293,-3.3293,-3.3293,-3.3293,-3.3293,-3.3293,-3.3293,-3.3293,-3.3293,-3.3103,-3.2692,-3.2645,-3.2313,-3.1713,-3.1586,-3.127,-3.0766,-3.0752,-3.0683,-3.0312,-3.0549,-3.07,-3.0757,-3.0868,-3.1004,-3.1123,-3.124,-3.1504,-3.18,-3.18,-3.18,-3.18,-3.18,-3.18,-3.18,-3.18,-3.1938,-3.2231,-3.2778,-3.3345,-3.3969,-3.4781,-3.5705,-3.6167,-3.654,-3.686,-3.7576,-3.8013,-3.8096,-3.7982,-3.7982,-3.8068,-3.8336,-3.8564,-3.8676,-3.8658,-3.8707,-3.8658,-3.8609,-3.8627,-3.9006,-3.9653,-4.0097,-4.0335,-4.1013,-4.1525,-4.1599,-4.1708,-4.191,-4.202,-4.1983,-4.1983,-4.1912,-4.1494,-4.1079,-4.0696,-4.044,-4.0309,-4.016,-3.9866,-3.9601,-3.9322,-3.9268,-3.9193,-3.9245,-3.9331,-3.9408,-3.9483,-3.9575,-3.9717,-3.987,-3.0111,-3.0172,-3.0462,-3.0582,-3.0642,-3.0628,-3.0687,-3.0747,-3.0747,-3.097,-3.1278,-3.1452,-3.161,-3.1864,-3.2048,-3.2327,-3.2602,-3.2656,-3.2834,-3.3011,-3.2888,-3.2888,-3.3187,-3.3293,-3.3293,-3.3293,-3.3293,-3.3293,-3.3293,-3.3293,-3.3293,-3.3293,-3.3293,-3.3293,-3.3198,-3.3277,-3.3018,-3.2546,-3.2517,-3.2151,-3.1515,-3.1822,-3.1765,-3.1079,-3.1707,-3.1861,-3.1489,-3.1534,-3.1542,-3.1295,-3.1542,-3.1746,-3.18,-3.18,-3.18,-3.18,-3.18,-3.18,-3.18,-3.2012,-3.2273,-3.2827,-3.3508,-3.3988,-3.4942,-3.5901,-3.6593,-3.684,-3.746,-3.8044,-3.8183,-3.8433,-3.8596,-3.8658,-3.8546,-3.8596,-3.8658,-3.8707,-3.8707,-3.8707,-3.8707,-3.8707,-3.8689,-3.8707,-3.9148,-3.9937,-4.062,-4.0969,-4.1629,-4.2289,-4.2855,-4.2962,-4.2901,-4.2982,-4.3005,-4.305,-4.2963,-4.2815,-4.2442,-4.2069,-4.165,-4.1429,-4.1033,-4.0693,-4.0337,-4.0056,-3.9788,-3.9696,-3.9577,-3.9556,-3.9623,-3.9693,-3.9804,-3.9935,-4.0017,-3.0462,-3.0462,-3.0582,-3.0807,-3.1102,-3.1117,-3.1278,-3.1537,-3.1537,-3.1595,-3.1766,-3.2089,-3.2256,-3.2422,-3.278,-3.3011,-3.3065,-3.3118,-3.3134,-3.324,-3.3187,-3.3187,-3.3309,-3.3293,-3.3293,-3.3293,-3.3293,-3.3293,-3.3293,-3.3293,-3.3293,-3.3293,-3.3346,-3.3293,-3.3361,-3.3694,-3.3818,-3.3691,-3.3974,-3.3761,-3.3219,-3.3228,-3.3139,-3.2763,-3.2512,-3.2423,-3.2351,-3.1984,-3.1763,-3.1654,-3.1709,-3.18,-3.18,-3.18,-3.18,-3.1837,-3.1837,-3.1854,-3.1977,-3.256,-3.3124,-3.3457,-3.4695,-3.581,-3.635,-3.7156,-3.7721,-3.8045,-3.8442,-3.8515,-3.8546,-3.8627,-3.8707,-3.8707,-3.8707,-3.8707,-3.8707,-3.8707,-3.8707,-3.8707,-3.8707,-3.8707,-3.8707,-3.8836,-3.9276,-4.0396,-4.1071,-4.1603,-4.2445,-4.2953,-4.3461,-4.368,-4.3706,-4.3918,-4.4009,-4.408,-4.4071,-4.4026,-4.3818,-4.3606,-4.3185,-4.2858,-4.2304,-4.1761,-4.1255,-4.091,-4.0459,-4.0174,-4.0014,-3.9974,-3.9933,-4.0055,-4.0117,-4.0215,-4.0215,-3.0687,-3.0866,-3.0866,-3.1146,-3.1552,-3.1552,-3.1667,-3.1879,-3.1879,-3.2033,-3.2201,-3.2477,-3.2711,-3.2888,-3.3187,-3.3293,-3.3293,-3.3293,-3.3309,-3.3309,-3.3309,-3.3293,-3.3293,-3.3293,-3.3293,-3.3293,-3.3293,-3.3293,-3.3293,-3.3293,-3.3293,-3.3361,-3.3539,-3.3591,-3.371,-3.4134,-3.4415,-3.4464,-3.469,-3.4584,-3.4237,-3.4435,-3.4242,-3.3956,-3.3522,-3.3465,-3.2917,-3.2179,-3.18,-3.18,-3.18,-3.18,-3.18,-3.18,-3.1856,-3.2001,-3.2037,-3.2213,-3.2739,-3.3371,-3.4022,-3.4729,-3.604,-3.6798,-3.7395,-3.8016,-3.8483,-3.8609,-3.8707,-3.8707,-3.8707,-3.8707,-3.8707,-3.8707,-3.8707,-3.8707,-3.8707,-3.8707,-3.8707,-3.8707,-3.8707,-3.8707,-3.8726,-3.8964,-3.979,-4.0795,-4.1549,-4.241,-4.3361,-4.3666,-4.3936,-4.4091,-4.4162,-4.426,-4.4318,-4.4355,-4.4411,-4.4438,-4.4546,-4.4484,-4.4233,-4.3886,-4.3423,-4.2793,-4.2253,-4.1774,-4.1434,-4.107,-4.0796,-4.0708,-4.054,-4.0349,-4.0349,-4.0329,-4.0329,-3.0984,-3.1336,-3.1336,-3.161,-3.1936,-3.1992,-3.2048,-3.2048,-3.2104,-3.2327,-3.2656,-3.2656,-3.2942,-3.3293,-3.324,-3.3293,-3.3293,-3.3293,-3.3293,-3.3293,-3.3293,-3.3293,-3.3293,-3.3293,-3.3293,-3.3293,-3.3293,-3.3293,-3.3346,-3.3346,-3.3398,-3.3555,-3.3949,-3.4134,-3.4284,-3.4642,-3.488,-3.4927,-3.5052,-3.5111,-3.5057,-3.5313,-3.5246,-3.4814,-3.4761,-3.422,-3.3317,-3.2507,-3.2162,-3.2093,-3.1886,-3.18,-3.18,-3.1837,-3.2018,-3.2232,-3.2353,-3.277,-3.3764,-3.4079,-3.484,-3.609,-3.6808,-3.7406,-3.8049,-3.8446,-3.8658,-3.8689,-3.8707,-3.8707,-3.8707,-3.8707,-3.8707,-3.8707,-3.8707,-3.8707,-3.8707,-3.8707,-3.8707,-3.8707,-3.8707,-3.8707,-3.8921,-3.9448,-4.027,-4.1211,-4.2006,-4.2921,-4.3688,-4.4009,-4.4231,-4.4383,-4.4438,-4.4465,-4.4519,-4.4565,-4.4591,-4.4643,-4.4795,-4.4795,-4.4695,-4.4424,-4.4247,-4.3824,-4.3251,-4.2924,-4.2726,-4.2333,-4.1685,-4.1132,-4.075,-4.0578,-4.0463,-4.0368,-4.0329,-3.1652,-3.1766,-3.1766,-3.2033,-3.2422,-3.2492,-3.2656,-3.2958,-3.2958,-3.3011,-3.3118,-3.3118,-3.3187,-3.3293,-3.3293,-3.3293,-3.3293,-3.3293,-3.3293,-3.3293,-3.3293,-3.3293,-3.3293,-3.3293,-3.3309,-3.3309,-3.3293,-3.3309,-3.3398,-3.3745,-3.3949,-3.4,-3.435,-3.4642,-3.4738,-3.5161,-3.5436,-3.5481,-3.5766,-3.5881,-3.5881,-3.5968,-3.6011,-3.5736,-3.5432,-3.4766,-3.4059,-3.368,-3.3593,-3.3317,-3.2562,-3.1992,-3.21,-3.2422,-3.2634,-3.2614,-3.2727,-3.3158,-3.3984,-3.4947,-3.5774,-3.6819,-3.7717,-3.8413,-3.8523,-3.8627,-3.8707,-3.8707,-3.8707,-3.8707,-3.8707,-3.8707,-3.8719,-3.8719,-3.8719,-3.8719,-3.8707,-3.8707,-3.8707,-3.8719,-3.8738,-3.8799,-3.9034,-3.9814,-4.0661,-4.1586,-4.2511,-4.3399,-4.3924,-4.4373,-4.4546,-4.472,-4.4745,-4.477,-4.4862,-4.4862,-4.4862,-4.4862,-4.5,-4.5068,-4.4976,-4.4934,-4.4729,-4.4532,-4.4276,-4.3996,-4.3749,-4.2679,-4.1819,-4.1399,-4.1036,-4.0903,-4.0769,-4.0578,-4.0692,-3.2048,-3.2216,-3.2201,-3.2492,-3.2888,-3.2942,-3.3065,-3.324,-3.3293,-3.3293,-3.3293,-3.3293,-3.3293,-3.3293,-3.3293,-3.3293,-3.3293,-3.3293,-3.3293,-3.3293,-3.3293,-3.3293,-3.3398,-3.3503,-3.3607,-3.3398,-3.3607,-3.3658,-3.3797,-3.4134,-3.4415,-3.4464,-3.4911,-3.5144,-3.5237,-3.5661,-3.5881,-3.5941,-3.6174,-3.6284,-3.6284,-3.6284,-3.6284,-3.6163,-3.5611,-3.4973,-3.4645,-3.4214,-3.4211,-3.4067,-3.3445,-3.2976,-3.3206,-3.3634,-3.3864,-3.3955,-3.4031,-3.4681,-3.5566,-3.6194,-3.6918,-3.769,-3.8394,-3.8585,-3.8707,-3.8707,-3.8707,-3.8707,-3.8707,-3.8707,-3.8707,-3.8707,-3.8719,-3.8881,-3.891,-3.8921,-3.8989,-3.8851,-3.875,-3.8822,-3.891,-3.9305,-3.9779,-4.0485,-4.1389,-4.2415,-4.3434,-4.424,-4.4354,-4.4745,-4.4887,-4.5023,-4.5042,-4.5087,-4.5173,-4.5194,-4.5173,-4.5173,-4.5173,-4.5216,-4.5173,-4.5194,-4.5237,-4.4991,-4.4722,-4.48,-4.4399,-4.3233,-4.2335,-4.2087,-4.18,-4.1457,-4.1094,-4.0807,-4.1208,-3.2327,-3.2711,-3.2711,-3.2942,-3.324,-3.3293,-3.3293,-3.3293,-3.3293,-3.3293,-3.3293,-3.3293,-3.3293,-3.3293,-3.3293,-3.3293,-3.3293,-3.345,-3.3503,-3.3503,-3.3694,-3.3694,-3.3797,-3.3984,-3.4034,-3.3591,-3.4,-3.4184,-3.4317,-3.4658,-3.4927,-3.5005,-3.5436,-3.5661,-3.581,-3.6071,-3.6241,-3.6241,-3.6241,-3.6284,-3.6284,-3.6284,-3.6284,-3.6163,-3.5835,-3.5538,-3.5428,-3.5087,-3.4822,-3.5043,-3.4796,-3.4851,-3.5171,-3.5545,-3.5544,-3.5742,-3.552,-3.6042,-3.6815,-3.7356,-3.7723,-3.8615,-3.8707,-3.8707,-3.8707,-3.8707,-3.8707,-3.8738,-3.875,-3.881,-3.875,-3.8881,-3.8979,-3.9101,-3.9183,-3.9272,-3.935,-3.9073,-3.9017,-3.912,-3.9444,-3.9914,-4.0652,-4.1437,-4.2347,-4.3227,-4.4196,-4.4868,-4.4957,-4.5004,-4.5132,-4.5194,-4.5173,-4.5173,-4.5256,-4.5277,-4.5277,-4.5277,-4.5277,-4.5277,-4.5277,-4.5277,-4.5277,-4.5277,-4.5163,-4.5163,-4.4934,-4.4055,-4.3348,-4.2966,-4.2354,-4.1762,-4.1361,-4.1017,-4.1724,-3.3118,-3.3187,-3.3187,-3.324,-3.3309,-3.3293,-3.3293,-3.3293,-3.3293,-3.3293,-3.3293,-3.3293,-3.3293,-3.3293,-3.3293,-3.3293,-3.345,-3.3761,-3.3949,-3.405,-3.4267,-3.4399,-3.4448,-3.4593,-3.4593,-3.4593,-3.469,-3.4738,-3.4833,-3.5207,-3.5436,-3.5571,-3.5898,-3.6114,-3.6156,-3.6241,-3.6284,-3.6284,-3.6284,-3.6284,-3.6284,-3.6284,-3.6326,-3.6326,-3.6143,-3.6255,-3.6496,-3.6505,-3.6608,-3.6985,-3.6968,-3.7095,-3.7286,-3.77,-3.7166,-3.6344,-3.6243,-3.682,-3.7496,-3.7569,-3.7936,-3.8469,-3.8707,-3.8707,-3.8707,-3.8707,-3.8738,-3.878,-3.8892,-3.9017,-3.9064,-3.9165,-3.935,-3.9427,-3.9433,-3.9458,-3.9483,-3.9552,-3.9495,-3.969,-4.0084,-4.0697,-4.1585,-4.2408,-4.3152,-4.3843,-4.4562,-4.503,-4.5132,-4.5173,-4.5235,-4.5256,-4.5256,-4.5256,-4.5277,-4.5277,-4.5277,-4.5277,-4.5277,-4.5277,-4.5277,-4.5277,-4.5277,-4.5277,-4.5277,-4.5239,-4.4914,-4.4532,-4.4112,-4.3558,-4.2794,-4.203,-4.2106,-4.2202,-4.2412,-3.3293,-3.3293,-3.3293,-3.3293,-3.3293,-3.3293,-3.3293,-3.3293,-3.3293,-3.3293,-3.3293,-3.3293,-3.3293,-3.3293,-3.3293,-3.3398,-3.3797,-3.4234,-3.4464,-3.4561,-3.469,-3.4816,-3.4911,-3.5052,-3.5207,-3.5299,-3.5419,-3.5374,-3.5299,-3.5705,-3.5898,-3.6028,-3.6199,-3.6284,-3.6284,-3.6284,-3.6284,-3.6284,-3.6284,-3.6284,-3.6284,-3.6284,-3.6409,-3.6557,-3.6638,-3.6821,-3.7114,-3.719,-3.7377,-3.7667,-3.7594,-3.7889,-3.8281,-3.8442,-3.8266,-3.7454,-3.7351,-3.7643,-3.8028,-3.812,-3.834,-3.8597,-3.8707,-3.8707,-3.8707,-3.8707,-3.878,-3.8892,-3.8979,-3.9165,-3.9298,-3.9433,-3.9551,-3.967,-3.9717,-3.9762,-3.9946,-4.0252,-4.0382,-4.0435,-4.0749,-4.1495,-4.268,-4.3414,-4.3988,-4.4548,-4.5029,-4.5182,-4.5277,-4.5277,-4.5277,-4.5277,-4.5277,-4.5277,-4.5277,-4.5277,-4.5277,-4.5277,-4.5277,-4.5277,-4.5277,-4.5277,-4.5277,-4.5277,-4.5277,-4.5319,-4.5201,-4.4914,-4.4513,-4.4111,-4.352,-4.31,-4.3291,-4.3463,-4.3482,-3.3293,-3.3293,-3.3293,-3.3293,-3.3293,-3.3293,-3.3293,-3.3293,-3.3293,-3.3293,-3.3293,-3.3293,-3.3346,-3.3503,-3.3642,-3.3882,-3.4284,-3.4738,-3.4958,-3.5005,-3.5144,-3.5144,-3.5237,-3.5464,-3.5749,-3.5749,-3.5985,-3.6114,-3.5837,-3.6071,-3.6241,-3.6241,-3.6284,-3.6284,-3.6284,-3.6284,-3.6284,-3.6284,-3.6284,-3.6301,-3.6409,-3.6533,-3.6678,-3.6978,-3.6999,-3.7208,-3.7578,-3.7596,-3.7844,-3.8013,-3.8038,-3.8063,-3.8572,-3.8707,-3.8707,-3.8707,-3.8707,-3.8707,-3.867,-3.8652,-3.8597,-3.8707,-3.8707,-3.8719,-3.8822,-3.8892,-3.8979,-3.9129,-3.9272,-3.9376,-3.9575,-3.9647,-3.9781,-3.9892,-3.9996,-4.0076,-4.0366,-4.0768,-4.1378,-4.1471,-4.158,-4.2267,-4.3399,-4.4128,-4.4643,-4.4739,-4.5201,-4.5201,-4.5277,-4.5277,-4.5277,-4.5277,-4.5277,-4.5277,-4.5277,-4.5277,-4.5277,-4.5277,-4.5277,-4.5277,-4.5277,-4.5277,-4.5298,-4.5319,-4.536,-4.538,-4.5339,-4.5277,-4.4934,-4.4571,-4.4227,-4.4112,-4.4208,-4.4018,-4.3846,-3.3293,-3.3293,-3.3293,-3.3293,-3.3293,-3.3293,-3.3293,-3.3293,-3.3309,-3.3293,-3.3346,-3.3346,-3.3642,-3.3984,-3.4448,-3.4642,-3.488,-3.5253,-3.5481,-3.5526,-3.5793,-3.5968,-3.6071,-3.6156,-3.6114,-3.6114,-3.6241,-3.6301,-3.6199,-3.6284,-3.6284,-3.6284,-3.6326,-3.6326,-3.6367,-3.6433,-3.6284,-3.6326,-3.6326,-3.6516,-3.6821,-3.7114,-3.7321,-3.7432,-3.7469,-3.7632,-3.7948,-3.8034,-3.8219,-3.8515,-3.8559,-3.859,-3.8707,-3.8707,-3.8707,-3.8707,-3.8707,-3.8707,-3.8707,-3.8707,-3.8719,-3.875,-3.8738,-3.8822,-3.9017,-3.9219,-3.935,-3.9433,-3.9604,-3.9762,-3.987,-4.0038,-4.0176,-4.0215,-4.0215,-4.0215,-4.0463,-4.1342,-4.1934,-4.2565,-4.2673,-4.3209,-4.4053,-4.4666,-4.5201,-4.5258,-4.5277,-4.5277,-4.5277,-4.5277,-4.5277,-4.5277,-4.5277,-4.5277,-4.5277,-4.5277,-4.5297,-4.5297,-4.5319,-4.5319,-4.5339,-4.536,-4.5339,-4.538,-4.5438,-4.5477,-4.54,-4.5341,-4.5243,-4.5033,-4.471,-4.4824,-4.5067,-4.4725,-4.4327,-3.3555,-3.3309,-3.3293,-3.3293,-3.3293,-3.3293,-3.3293,-3.3361,-3.3607,-3.3745,-3.3797,-3.4068,-3.4317,-3.4593,-3.5021,-3.5253,-3.5391,-3.5749,-3.5968,-3.5985,-3.6199,-3.6284,-3.6241,-3.6284,-3.6284,-3.6326,-3.6326,-3.6474,-3.6474,-3.6409,-3.6284,-3.6367,-3.6516,-3.6661,-3.6678,-3.686,-3.6978,-3.7017,-3.7017,-3.7055,-3.7246,-3.7432,-3.7614,-3.7844,-3.7844,-3.8068,-3.8336,-3.8433,-3.8515,-3.8707,-3.8707,-3.8707,-3.8707,-3.8707,-3.8768,-3.8976,-3.8939,-3.8851,-3.8719,-3.8719,-3.8792,-3.8892,-3.895,-3.9045,-3.9272,-3.9452,-3.9623,-3.9717,-3.9807,-3.9935,-4.0077,-4.0215,-4.0273,-4.0329,-4.0329,-4.0329,-4.0616,-4.1724,-4.2526,-4.3176,-4.3787,-4.4169,-4.4494,-4.4895,-4.5258,-4.5277,-4.5277,-4.5277,-4.5277,-4.5277,-4.5277,-4.5277,-4.5277,-4.5277,-4.5277,-4.5277,-4.5317,-4.5319,-4.5438,-4.5438,-4.5458,-4.5458,-4.5457,-4.5495,-4.5584,-4.5584,-4.5513,-4.5494,-4.5455,-4.534,-4.5223,-4.5322,-4.5419,-4.5435,-4.5122,-3.4034,-3.3694,-3.3678,-3.3694,-3.3678,-3.3678,-3.3694,-3.3729,-3.4084,-3.4284,-3.4415,-3.4721,-3.4958,-3.5098,-3.5526,-3.5766,-3.581,-3.6114,-3.6241,-3.6284,-3.6284,-3.6284,-3.6284,-3.6284,-3.6367,-3.6451,-3.6516,-3.6701,-3.686,-3.6821,-3.6678,-3.6597,-3.6939,-3.7038,-3.7114,-3.7266,-3.7395,-3.7395,-3.7542,-3.7614,-3.7685,-3.7774,-3.7982,-3.8168,-3.8285,-3.8382,-3.8627,-3.8658,-3.8707,-3.8707,-3.8707,-3.8701,-3.87,-3.8815,-3.8931,-3.911,-3.9154,-3.9129,-3.9017,-3.9007,-3.9017,-3.9137,-3.9298,-3.9408,-3.9556,-3.9647,-3.9758,-3.9996,-4.0017,-4.0118,-4.0234,-4.0291,-4.0291,-4.0329,-4.0329,-4.0329,-4.054,-4.159,-4.2469,-4.3042,-4.3711,-4.4609,-4.4914,-4.5144,-4.5277,-4.5277,-4.5277,-4.5277,-4.5298,-4.5319,-4.5298,-4.5319,-4.5298,-4.5298,-4.5298,-4.5298,-4.5338,-4.538,-4.5476,-4.5549,-4.5566,-4.5601,-4.5599,-4.5684,-4.5731,-4.5731,-4.568,-4.568,-4.568,-4.5536,-4.5481,-4.5571,-4.5665,-4.5731,-4.5727,-3.4721,-3.469,-3.4673,-3.469,-3.4625,-3.4673,-3.4673,-3.4593,-3.469,-3.4785,-3.4927,-3.5299,-3.5509,-3.5661,-3.5924,-3.6156,-3.6199,-3.6301,-3.6284,-3.6284,-3.6284,-3.6326,-3.6367,-3.6392,-3.6516,-3.6838,-3.686,-3.7094,-3.7358,-3.7377,-3.734,-3.7414,-3.7469,-3.7451,-3.7487,-3.7614,-3.7685,-3.7739,-3.7913,-3.8068,-3.8135,-3.8336,-3.8546,-3.8596,-3.8627,-3.8658,-3.8707,-3.8707,-3.8707,-3.8707,-3.875,-3.8711,-3.8746,-3.899,-3.9173,-3.9364,-3.9421,-3.9433,-3.9452,-3.9376,-3.9427,-3.9526,-3.967,-3.9785,-3.987,-4.0098,-4.0234,-4.0215,-4.0195,-4.0234,-4.0291,-4.0329,-4.0329,-4.0329,-4.0368,-4.0482,-4.075,-4.138,-4.2221,-4.2813,-4.3674,-4.4746,-4.5169,-4.5342,-4.5319,-4.5317,-4.536,-4.536,-4.538,-4.538,-4.536,-4.536,-4.5339,-4.5339,-4.5339,-4.538,-4.5477,-4.5531,-4.5618,-4.5668,-4.57,-4.5731,-4.5752,-4.5771,-4.5814,-4.5847,-4.586,-4.5814,-4.5766,-4.5712,-4.5696,-4.5752,-4.578,-4.5814,-4.586,-3.5283,-3.5328,-3.5616,-3.5374,-3.4816,-3.4816,-3.4816,-3.4864,-3.5161,-3.5464,-3.5688,-3.5941,-3.6028,-3.6071,-3.6156,-3.6284,-3.6284,-3.6284,-3.6326,-3.6284,-3.6284,-3.6451,-3.6557,-3.6701,-3.686,-3.7208,-3.7283,-3.7469,-3.7844,-3.7861,-3.805,-3.8101,-3.8,-3.7879,-3.7913,-3.8068,-3.8168,-3.8219,-3.8368,-3.8451,-3.8515,-3.8546,-3.8707,-3.8707,-3.8707,-3.8707,-3.8707,-3.8707,-3.8707,-3.875,-3.887,-3.883,-3.885,-3.9197,-3.9496,-3.9735,-3.9777,-3.9807,-3.9848,-3.9735,-3.9575,-3.9785,-3.9975,-4.0118,-4.0137,-4.0253,-4.0291,-4.0311,-4.0329,-4.0329,-4.0329,-4.0329,-4.0329,-4.0329,-4.0444,-4.0616,-4.1036,-4.1667,-4.245,-4.3273,-4.4173,-4.5151,-4.538,-4.5494,-4.5438,-4.5359,-4.54,-4.5458,-4.5476,-4.5495,-4.5476,-4.5476,-4.5476,-4.5495,-4.5495,-4.5566,-4.5635,-4.5684,-4.5731,-4.5776,-4.5819,-4.588,-4.5898,-4.5898,-4.5886,-4.5917,-4.5929,-4.5917,-4.5873,-4.5835,-4.5848,-4.5886,-4.5898,-4.5917,-4.5917,-3.581,-3.5837,-3.6174,-3.5881,-3.5283,-3.5237,-3.5237,-3.5328,-3.5661,-3.5985,-3.6284,-3.6284,-3.6284,-3.6284,-3.6284,-3.6409,-3.6492,-3.6516,-3.6597,-3.6678,-3.6759,-3.6838,-3.6978,-3.7132,-3.7283,-3.7578,-3.7721,-3.7879,-3.8252,-3.8285,-3.8401,-3.8483,-3.8451,-3.8336,-3.8336,-3.8515,-3.8707,-3.8707,-3.8707,-3.8707,-3.8689,-3.8689,-3.8707,-3.8707,-3.8707,-3.8707,-3.8707,-3.8707,-3.878,-3.8851,-3.897,-3.9007,-3.9137,-3.9395,-3.9838,-4.0046,-4.0152,-4.0137,-4.0137,-4.0036,-3.9826,-4.0017,-4.0138,-4.0273,-4.0329,-4.0329,-4.0329,-4.0329,-4.0329,-4.0329,-4.0329,-4.0329,-4.0329,-4.0329,-4.0788,-4.1036,-4.1476,-4.203,-4.2967,-4.3829,-4.4557,-4.5034,-4.5526,-4.5618,-4.5584,-4.5513,-4.5531,-4.5584,-4.5582,-4.5616,-4.5616,-4.5616,-4.5632,-4.5648,-4.568,-4.5712,-4.5761,-4.5771,-4.5847,-4.588,-4.5929,-4.5986,-4.5997,-4.5956,-4.5944,-4.5977,-4.5966,-4.5944,-4.5956,-4.5966,-4.5966,-4.5944,-4.5956,-4.5964,-4.5975,-3.6301,-3.6301,-3.6343,-3.6284,-3.6241,-3.6259,-3.6199,-3.6114,-3.6199,-3.6241,-3.6301,-3.6284,-3.6284,-3.6284,-3.6326,-3.6516,-3.6781,-3.686,-3.7017,-3.7228,-3.7246,-3.7395,-3.7469,-3.7542,-3.7685,-3.8,-3.8101,-3.8285,-3.8627,-3.8578,-3.8676,-3.8676,-3.8627,-3.8596,-3.8658,-3.8676,-3.8707,-3.8707,-3.8707,-3.8707,-3.8707,-3.8707,-3.8707,-3.8707,-3.8707,-3.8707,-3.878,-3.8762,-3.8881,-3.9073,-3.9165,-3.927,-3.9415,-3.9694,-4.0036,-4.0234,-4.0292,-4.0291,-4.0291,-4.0273,-4.0234,-4.0234,-4.0291,-4.0291,-4.0329,-4.0329,-4.0329,-4.0329,-4.0329,-4.0329,-4.0329,-4.0329,-4.0329,-4.0616,-4.1074,-4.1648,-4.2087,-4.2604,-4.3541,-4.4364,-4.4419,-4.4587,-4.5266,-4.5715,-4.5731,-4.5696,-4.568,-4.5696,-4.5727,-4.5737,-4.5766,-4.5766,-4.5766,-4.5786,-4.5814,-4.586,-4.5874,-4.5899,-4.5925,-4.5941,-4.5964,-4.5986,-4.5997,-4.5977,-4.5977,-4.5977,-4.5977,-4.5977,-4.5977,-4.5977,-4.5977,-4.5977,-4.5977,-4.5977,-4.5977,-3.6719,-3.6719,-3.6978,-3.7076,-3.6999,-3.6533,-3.6284,-3.6284,-3.6284,-3.6284,-3.6284,-3.6284,-3.6284,-3.6367,-3.6597,-3.6781,-3.6939,-3.7228,-3.7451,-3.7505,-3.7578,-3.7685,-3.7809,-3.7948,-3.8101,-3.8401,-3.8515,-3.8515,-3.8658,-3.8707,-3.8707,-3.8707,-3.875,-3.8707,-3.8707,-3.8707,-3.8707,-3.8707,-3.8707,-3.8707,-3.8707,-3.8707,-3.8719,-3.8719,-3.875,-3.8822,-3.895,-3.8979,-3.9101,-3.935,-3.9458,-3.958,-3.9648,-3.9884,-4.0176,-4.0291,-4.0329,-4.0329,-4.0329,-4.0291,-4.0291,-4.0329,-4.0329,-4.0329,-4.0329,-4.0329,-4.0329,-4.0329,-4.0329,-4.0329,-4.0329,-4.0329,-4.0444,-4.1036,-4.159,-4.2335,-4.289,-4.3426,-4.4153,-4.4895,-4.5233,-4.5278,-4.5719,-4.5841,-4.5841,-4.5841,-4.5827,-4.5854,-4.588,-4.5898,-4.591,-4.591,-4.5929,-4.5917,-4.5917,-4.5917,-4.5929,-4.5941,-4.5953,-4.5975,-4.5997,-4.5977,-4.5977,-4.5977,-4.5977,-4.5977,-4.5977,-4.5977,-4.5977,-4.5977,-4.5977,-4.5977,-4.5977,-4.5977,-4.5977,-3.6688,-3.6761,-3.7288,-3.7505,-3.7432,-3.6939,-3.6701,-3.6701,-3.6701,-3.6719,-3.6701,-3.6701,-3.6741,-3.6821,-3.6978,-3.7246,-3.7303,-3.7578,-3.7861,-3.7879,-3.7913,-3.8101,-3.8252,-3.8285,-3.8433,-3.8658,-3.8707,-3.8707,-3.8707,-3.8707,-3.875,-3.8851,-3.8939,-3.9017,-3.8979,-3.8862,-3.8707,-3.8719,-3.878,-3.8881,-3.891,-3.8921,-3.8989,-3.9007,-3.9036,-3.9073,-3.921,-3.9272,-3.9376,-3.9623,-3.9766,-3.9859,-3.9886,-4.0062,-4.0329,-4.0329,-4.0329,-4.0329,-4.0329,-4.0329,-4.0329,-4.0329,-4.0329,-4.0329,-4.0329,-4.0329,-4.0329,-4.0329,-4.0329,-4.0348,-4.0368,-4.0368,-4.0903,-4.1514,-4.2374,-4.3101,-4.3637,-4.4189,-4.4752,-4.5491,-4.5727,-4.588,-4.5994,-4.5986,-4.5944,-4.5953,-4.5953,-4.5975,-4.5986,-4.5997,-4.5977,-4.5997,-4.5997,-4.5975,-4.5964,-4.5975,-4.5986,-4.5997,-4.5977,-4.5977,-4.5977,-4.5977,-4.5977,-4.5977,-4.5977,-4.5977,-4.5977,-4.5977,-4.5977,-4.5977,-4.5977,-4.5977,-4.5977,-4.5977,-4.5977,-3.6292,-3.6399,-3.7148,-3.7506,-3.7488,-3.7488,-3.7505,-3.7451,-3.7451,-3.7469,-3.7469,-3.7395,-3.7358,-3.7432,-3.7487,-3.7685,-3.7948,-3.8068,-3.8285,-3.8515,-3.8465,-3.8596,-3.8596,-3.8627,-3.867,-3.8689,-3.875,-3.8822,-3.875,-3.8851,-3.8979,-3.9101,-3.929,-3.9324,-3.9245,-3.9073,-3.8881,-3.8921,-3.9036,-3.9101,-3.9129,-3.9298,-3.9331,-3.935,-3.9357,-3.9408,-3.9502,-3.9551,-3.967,-3.9829,-3.9935,-4.0058,-4.0196,-4.0291,-4.0329,-4.0329,-4.0329,-4.0329,-4.0329,-4.0329,-4.0329,-4.0329,-4.0329,-4.0329,-4.0329,-4.0329,-4.0329,-4.0329,-4.0329,-4.0387,-4.0444,-4.0941,-4.1476,-4.2317,-4.3234,-4.3846,-4.4359,-4.4903,-4.5437,-4.5838,-4.586,-4.5949,-4.5986,-4.5997,-4.5977,-4.5997,-4.5975,-4.5986,-4.5997,-4.5997,-4.5977,-4.5977,-4.5997,-4.5997,-4.5977,-4.5977,-4.5977,-4.5977,-4.5977,-4.5977,-4.5977,-4.5977,-4.5977,-4.5977,-4.5977,-4.5977,-4.5977,-4.5977,-4.5977,-4.5977,-4.5977,-4.5977,-4.5977,-4.5977,-4.5977,-3.5861,-3.5984,-3.7021,-3.7512,-3.7585,-3.8113,-3.805,-3.7542,-3.7505,-3.7505,-3.7505,-3.7505,-3.7578,-3.7542,-3.7809,-3.7982,-3.8168,-3.8368,-3.8564,-3.8707,-3.878,-3.8719,-3.8719,-3.875,-3.8822,-3.8921,-3.8989,-3.9045,-3.9219,-3.9245,-3.9272,-3.9383,-3.9526,-3.9532,-3.9483,-3.935,-3.9298,-3.929,-3.9376,-3.9376,-3.9401,-3.9508,-3.9556,-3.9575,-3.9556,-3.9628,-3.9739,-3.9785,-3.9914,-4.0098,-4.0176,-4.0273,-4.0273,-4.0329,-4.0329,-4.0329,-4.0329,-4.0329,-4.0329,-4.0329,-4.0329,-4.0329,-4.0329,-4.0329,-4.0329,-4.0329,-4.0329,-4.0329,-4.0348,-4.0425,-4.0883,-4.1456,-4.2201,-4.3193,-4.3993,-4.4506,-4.4958,-4.5356,-4.586,-4.5906,-4.5944,-4.596,-4.5997,-4.5977,-4.5977,-4.5977,-4.5977,-4.5977,-4.5977,-4.5977,-4.5977,-4.5977,-4.5977,-4.5977,-4.5977,-4.5977,-4.5977,-4.5977,-4.5977,-4.5977,-4.5977,-4.5977,-4.5977,-4.5977,-4.5977,-4.5977,-4.5977,-4.5977,-4.5977,-4.5977,-4.5977,-4.5977,-4.5977,-4.5977,-4.5977,-3.5412,-3.5581,-3.6564,-3.7019,-3.7165,-3.7863,-3.7927,-3.76,-3.7837,-3.8,-3.8,-3.7982,-3.8,-3.8034,-3.8252,-3.8368,-3.8401,-3.8683,-3.8881,-3.8892,-3.895,-3.9045,-3.9017,-3.8989,-3.911,-3.9219,-3.9272,-3.9324,-3.9508,-3.9647,-3.967,-3.967,-3.9739,-3.9804,-3.9826,-3.9826,-3.9826,-3.9781,-3.9739,-3.967,-3.9693,-3.9739,-3.9804,-3.9804,-3.9804,-3.9892,-4.0017,-4.0038,-4.0138,-4.0272,-4.0291,-4.0329,-4.0329,-4.0329,-4.0329,-4.0329,-4.0329,-4.0329,-4.0329,-4.0329,-4.0329,-4.0329,-4.0329,-4.0329,-4.0329,-4.0329,-4.0329,-4.0329,-4.0406,-4.0596,-4.1283,-4.199,-4.3038,-4.4066,-4.4595,-4.514,-4.5481,-4.5796,-4.5925,-4.5949,-4.5972,-4.5986,-4.5977,-4.5977,-4.5977,-4.5977,-4.5977,-4.5977,-4.5977,-4.5977,-4.5977,-4.5977,-4.5977,-4.5977,-4.5977,-4.5977,-4.5977,-4.5977,-4.5977,-4.5977,-4.5977,-4.5977,-4.5977,-4.5977,-4.5977,-4.5977,-4.5977,-4.5977,-4.5977,-4.5977,-4.5977,-4.5977,-4.5977,-4.5977,-4.5977,-3.488,-3.4972,-3.5844,-3.6266,-3.6413,-3.714,-3.75,-3.761,-3.8272,-3.8646,-3.8621,-3.8689,-3.8689,-3.8652,-3.8743,-3.8755,-3.8826,-3.9045,-3.9129,-3.9156,-3.9272,-3.9376,-3.9383,-3.9483,-3.9433,-3.9502,-3.9551,-3.9599,-3.9647,-3.9785,-3.9935,-3.9954,-4.0118,-4.0176,-4.0176,-4.0195,-4.0157,-4.0098,-4.0017,-3.9935,-3.9996,-4.0137,-4.0329,-4.0273,-4.0273,-4.0291,-4.0291,-4.0291,-4.0329,-4.0329,-4.0329,-4.0329,-4.0329,-4.0329,-4.0329,-4.0329,-4.0329,-4.0329,-4.0329,-4.0329,-4.0329,-4.0329,-4.0329,-4.0329,-4.0329,-4.0329,-4.0329,-4.0425,-4.0501,-4.1168,-4.1874,-4.2694,-4.3667,-4.455,-4.5201,-4.5529,-4.5744,-4.5929,-4.5953,-4.5975,-4.5975,-4.5977,-4.5977,-4.5977,-4.5977,-4.5977,-4.5977,-4.5977,-4.5977,-4.5977,-4.5977,-4.5977,-4.5977,-4.5977,-4.5977,-4.5977,-4.5977,-4.5977,-4.5977,-4.5977,-4.5977,-4.5977,-4.5977,-4.5977,-4.5977,-4.5977,-4.5977,-4.5977,-4.5977,-4.5977,-4.5977,-4.5977,-4.5977,-4.5977,-4.5977,-3.4082,-3.4192,-3.4981,-3.5679,-3.6295,-3.6657,-3.7211,-3.7812,-3.8156,-3.8433,-3.867,-3.8873,-3.8989,-3.9017,-3.9165,-3.9227,-3.9279,-3.9305,-3.9383,-3.9408,-3.9508,-3.9623,-3.9532,-3.9604,-3.9647,-3.9762,-3.9848,-3.9911,-4.0015,-4.0137,-4.0196,-4.0215,-4.031,-4.031,-4.0329,-4.0329,-4.0291,-4.0291,-4.0234,-4.0157,-4.0195,-4.0234,-4.0329,-4.0329,-4.0329,-4.0329,-4.0329,-4.0329,-4.0329,-4.0329,-4.0329,-4.0329,-4.0329,-4.0329,-4.0329,-4.0329,-4.0329,-4.0329,-4.031,-4.031,-4.031,-4.0329,-4.0329,-4.031,-4.0329,-4.0329,-4.0387,-4.0501,-4.0882,-4.1625,-4.2499,-4.334,-4.4215,-4.5008,-4.5719,-4.5828,-4.5953,-4.5975,-4.5997,-4.5977,-4.5977,-4.5977,-4.5977,-4.5977,-4.5977,-4.5977,-4.5977,-4.5977,-4.5977,-4.5977,-4.5977,-4.5977,-4.5977,-4.5977,-4.5977,-4.5977,-4.5977,-4.5977,-4.5977,-4.5977,-4.5977,-4.5977,-4.5977,-4.5977,-4.5977,-4.5977,-4.5977,-4.5977,-4.5977,-4.5977,-4.5977,-4.5977,-4.5977,-4.5977,-4.5977,-3.4111,-3.4167,-3.4593,-3.505,-3.5546,-3.6006,-3.6503,-3.6963,-3.7398,-3.7935,-3.8516,-3.8987,-3.9272,-3.9253,-3.9433,-3.9508,-3.9532,-3.9647,-3.967,-3.9693,-3.9762,-3.9889,-3.9848,-3.9826,-3.9935,-4.0058,-4.0077,-4.0157,-4.0291,-4.0291,-4.0291,-4.0329,-4.0329,-4.031,-4.031,-4.031,-4.0329,-4.0329,-4.031,-4.0329,-4.0329,-4.0329,-4.0329,-4.0329,-4.0329,-4.0329,-4.0329,-4.0329,-4.0329,-4.0329,-4.0329,-4.0329,-4.0329,-4.0329,-4.0329,-4.0329,-4.0329,-4.0329,-4.0329,-4.0327,-4.0344,-4.0344,-4.043,-4.0463,-4.0479,-4.046,-4.0411,-4.0526,-4.0614,-4.1274,-4.2536,-4.3506,-4.4485,-4.535,-4.5735,-4.5944,-4.5986,-4.5997,-4.5977,-4.5977,-4.5977,-4.5977,-4.5977,-4.5977,-4.5977,-4.5977,-4.5977,-4.5977,-4.5977,-4.5977,-4.5977,-4.5977,-4.5977,-4.5977,-4.5977,-4.5977,-4.5977,-4.5977,-4.5977,-4.5977,-4.5977,-4.5977,-4.5977,-4.5977,-4.5977,-4.5977,-4.5977,-4.5977,-4.5977,-4.5977,-4.5977,-4.5977,-4.5977,-4.5977,-4.5977,-3.4467,-3.4489,-3.4508,-3.4508,-3.4602,-3.5281,-3.5694,-3.5942,-3.6543,-3.7431,-3.8395,-3.9091,-3.9411,-3.9513,-3.958,-3.9599,-3.967,-3.987,-3.9954,-4.0017,-4.0157,-4.0137,-4.0195,-4.0273,-4.0234,-4.0234,-4.0273,-4.0273,-4.0311,-4.0329,-4.0329,-4.0329,-4.031,-4.031,-4.0329,-4.031,-4.031,-4.0328,-4.0328,-4.031,-4.0329,-4.0329,-4.0329,-4.0329,-4.0329,-4.0329,-4.0329,-4.0329,-4.0329,-4.0329,-4.031,-4.0346,-4.0345,-4.0363,-4.04,-4.0381,-4.0398,-4.0381,-4.0362,-4.0408,-4.0406,-4.0454,-4.0559,-4.0588,-4.0588,-4.0574,-4.053,-4.0603,-4.0684,-4.1368,-4.2628,-4.3853,-4.4851,-4.5517,-4.5792,-4.5997,-4.5997,-4.5977,-4.5977,-4.5977,-4.5977,-4.5977,-4.5977,-4.5977,-4.5977,-4.5977,-4.5977,-4.5977,-4.5977,-4.5977,-4.5977,-4.5977,-4.5977,-4.5977,-4.5977,-4.5977,-4.5977,-4.5977,-4.5977,-4.5977,-4.5977,-4.5977,-4.5977,-4.5977,-4.5977,-4.5977,-4.5977,-4.5977,-4.5977,-4.5977,-4.5977,-4.5977,-4.5977,-4.5977,-4.5977,-3.4489,-3.4489,-3.4489,-3.4489,-3.4588,-3.4922,-3.5418,-3.6024,-3.6388,-3.7395,-3.8518,-3.8937,-3.9315,-3.9848,-4.0077,-4.0117,-4.0036,-4.0157,-4.0196,-4.0253,-4.0273,-4.0291,-4.0329,-4.0329,-4.0329,-4.031,-4.031,-4.031,-4.0346,-4.0347,-4.031,-4.0329,-4.0329,-4.0327,-4.0377,-4.0379,-4.0345,-4.0362,-4.0344,-4.0328,-4.0329,-4.0329,-4.0329,-4.0329,-4.0329,-4.0329,-4.0329,-4.0329,-4.0329,-4.031,-4.0362,-4.0394,-4.0408,-4.0457,-4.0508,-4.0492,-4.0489,-4.0489,-4.0504,-4.053,-4.0545,-4.0559,-4.0629,-4.0629,-4.0655,-4.0713,-4.0726,-4.0842,-4.1158,-4.1977,-4.3169,-4.4453,-4.5491,-4.5712,-4.5977,-4.5997,-4.5997,-4.5977,-4.5977,-4.5977,-4.5977,-4.5977,-4.5977,-4.5977,-4.5977,-4.5977,-4.5977,-4.5977,-4.5977,-4.5977,-4.5977,-4.5977,-4.5977,-4.5977,-4.5977,-4.5977,-4.5977,-4.5977,-4.5977,-4.5977,-4.5977,-4.5977,-4.5977,-4.5977,-4.5977,-4.5977,-4.5977,-4.5977,-4.5977,-4.5977,-4.5977,-4.5977,-4.5977,-4.5977,-4.5977]}]]